Date StartTime U_cm/s V_cm/s W_cm/s Ustd_cm/s Vstd_cm/s Wstd_cm/s Uvar_(cm/s)^2 Vvar_(cm/s)^2 Wvar_(cm/s)^2 KE_(m/s)^2 TurbulentKE_(m/s)^2 HorizWindSpeed_cm/s FrictionSpeec_cm/s DragCoef SpeedOfSound_m/s SonicTemperature_C Pressure_mb 
11/06/2014  00:00:00      -69.699      -36.622       -1.566       24.275       20.445       14.617      589.257      417.986      213.667        0.371        0.061       78.734       13.150        0.028      336.458        7.773      868.978
11/06/2014  00:01:00      -88.522      -40.815      -11.572       10.189       11.452        9.601      103.811      131.146       92.171        0.498        0.016       97.478        5.080        0.003      336.455        7.768      868.974
11/06/2014  00:02:00      -99.715      -49.962       -5.590       11.829        9.786        8.147      139.930       95.761       66.377        0.639        0.015      111.532        6.309        0.003      336.418        7.705      868.979
11/06/2014  00:03:00     -104.377      -53.047      -10.065        8.101       11.755        6.321       65.623      138.183       39.952        0.703        0.012      117.083        3.589        0.001      336.513        7.867      868.973
11/06/2014  00:04:00     -105.255      -55.584       -3.646       14.790       14.667       10.528      218.757      215.111      110.849        0.736        0.027      119.030        5.977        0.003      336.528        7.891      868.959
11/06/2014  00:05:00      -62.610      -36.011        4.205       30.565       24.491       18.547      934.223      599.818      343.996        0.356        0.094       72.228       16.400        0.052      336.432        7.730      868.952
11/06/2014  00:06:00      -53.648      -48.006        1.373       34.368       32.765       24.984     1181.127     1073.572      624.200        0.403        0.144       71.991       23.929        0.110      336.341        7.579      868.939
11/06/2014  00:07:00      -92.111      -80.147        2.313       39.105       28.145       22.282     1529.232      792.115      496.484        0.886        0.141      122.098       19.367        0.025      336.344        7.583      868.935
11/06/2014  00:08:00     -123.927      -88.213       -2.092       50.468       33.171       27.687     2547.059     1100.284      766.556        1.378        0.221      152.116       23.249        0.023      336.323        7.548      868.938
11/06/2014  00:09:00      -84.973      -58.233        4.320       38.183       30.483       20.416     1457.958      929.239      416.811        0.672        0.140      103.012       21.114        0.042      336.308        7.522      868.932
11/06/2014  00:10:00      -71.304      -42.447       -2.940       40.256       23.821       14.359     1620.575      567.451      206.194        0.464        0.120       82.982        9.427        0.013      336.351        7.596      868.912
11/06/2014  00:11:00      -67.460      -38.763       -2.897       25.865       17.683       12.309      669.002      312.683      151.519        0.360        0.057       77.804       10.033        0.017      336.341        7.578      868.886
11/06/2014  00:12:00      -74.281      -41.445        5.242       32.978       20.638       19.949     1087.527      425.921      397.962        0.459        0.096       85.061       17.200        0.041      336.326        7.552      868.896
11/06/2014  00:13:00     -131.975      -79.993       -7.625       24.466       23.630       17.299      598.566      558.375      299.241        1.266        0.073      154.325        9.336        0.004      336.259        7.440      868.921
11/06/2014  00:14:00     -108.946      -88.587       -0.094       31.669       28.411       22.980     1002.955      807.180      528.101        1.103        0.117      140.417       17.053        0.015      336.206        7.352      868.949
11/06/2014  00:15:00      -96.099      -69.430       -3.214       28.172       23.144       18.345      793.644      535.647      336.529        0.787        0.083      118.556       12.308        0.011      336.257        7.437      868.946
11/06/2014  00:16:00      -73.994      -49.036        0.714       21.986       15.971       14.989      483.380      255.059      224.675        0.442        0.048       88.767       13.116        0.022      336.381        7.644      868.941
11/06/2014  00:17:00      -99.585      -59.241       -5.668       19.658       23.474       16.472      386.438      551.052      271.343        0.733        0.060      115.873       13.040        0.013      336.412        7.697      868.963
11/06/2014  00:18:00     -136.238      -74.235       -5.777       18.314       14.350       13.604      335.410      205.925      185.065        1.242        0.036      155.151       11.512        0.006      336.311        7.525      868.997
11/06/2014  00:19:00     -134.964      -57.716       -0.936       27.609       21.200       19.039      762.271      449.429      362.501        1.156        0.079      146.787       16.537        0.013      336.236        7.402      869.011
11/06/2014  00:20:00     -113.364      -33.344       -4.899       24.590       21.837       17.913      604.668      476.864      320.888        0.769        0.070      118.166       14.668        0.015      336.175        7.300      869.000
11/06/2014  00:21:00      -86.137      -42.712        2.569       38.244       22.318       17.135     1462.635      498.102      293.600        0.575        0.113       96.145       14.954        0.024      336.240        7.410      868.982
11/06/2014  00:22:00      -90.571      -33.806       -3.353       34.535       16.627       13.243     1192.687      276.465      175.388        0.550        0.082       96.674       17.112        0.031      336.266        7.452      868.969
11/06/2014  00:23:00      -62.351      -33.176       -2.826       22.949       18.748       15.942      526.645      351.488      254.134        0.306        0.057       70.628       13.119        0.035      336.270        7.460      868.967
11/06/2014  00:24:00      -77.626      -37.281      -12.358        9.039        8.331        9.049       81.705       69.402       81.893        0.390        0.012       86.114        6.025        0.005      336.287        7.486      868.942
11/06/2014  00:25:00      -74.633      -41.502       -3.984       26.404       18.386       11.658      697.176      338.062      135.907        0.424        0.059       85.396       10.281        0.014      336.326        7.553      868.926
11/06/2014  00:26:00      -64.277      -42.375       -1.730       24.420       33.407       15.888      596.317     1116.021      252.441        0.395        0.098       76.988       12.744        0.027      336.376        7.637      868.922
11/06/2014  00:27:00      -79.523      -51.755       -1.353       39.777       29.069       16.219     1582.192      845.028      263.045        0.585        0.135       94.881       15.614        0.027      336.351        7.593      868.932
11/06/2014  00:28:00      -69.164      -17.257       -4.315       43.891       30.810       20.550     1926.399      949.268      422.321        0.420        0.165       71.285       17.806        0.062      336.444        7.752      868.953
11/06/2014  00:29:00      -61.114      -10.423       -9.406       27.631       42.204       20.728      763.486     1781.155      429.646        0.345        0.149       61.996       17.431        0.079      336.520        7.878      868.951
11/06/2014  00:30:00      -76.543       12.154       -9.479       24.765       32.108       15.334      613.294     1030.932      235.125        0.399        0.094       77.502       12.130        0.024      336.555        7.936      868.933
11/06/2014  00:31:00      -61.204      -14.471       -4.729       29.471       23.156       17.655      868.548      536.220      311.714        0.285        0.086       62.892       15.632        0.062      336.487        7.823      868.906
11/06/2014  00:32:00      -35.659      -52.420       -4.468       32.908       19.621       21.785     1082.925      384.965      474.601        0.299        0.097       63.399       20.854        0.108      336.467        7.787      868.901
11/06/2014  00:33:00      -86.757      -30.933       -8.123       42.696       24.088       17.941     1822.980      580.210      321.883        0.564        0.136       92.106       17.710        0.037      336.380        7.643      868.912
11/06/2014  00:34:00      -69.326      -28.095      -12.880       38.847       21.115       18.791     1509.060      445.828      353.113        0.403        0.115       74.803       10.198        0.019      336.395        7.668      868.917
11/06/2014  00:35:00      -50.776      -33.442        0.197       61.843       32.533       24.636     3824.591     1058.428      606.937        0.459        0.274       60.799       33.676        0.307      336.369        7.623      868.921
11/06/2014  00:36:00      -33.266       -7.421        8.104       27.427       15.402       15.115      752.244      237.225      228.458        0.122        0.061       34.083       17.740        0.271      336.342        7.579      868.919
11/06/2014  00:37:00      -17.072      -33.190       -8.324       23.789       19.109       15.214      565.895      365.154      231.458        0.131        0.058       37.323        8.090        0.047      336.430        7.727      868.913
11/06/2014  00:38:00      -51.189      -10.852      -11.554       11.215       10.846       10.564      125.785      117.642      111.604        0.161        0.018       52.327        4.844        0.009      336.516        7.869      868.898
11/06/2014  00:39:00      -69.968      -38.943       -9.724       23.609       15.807       15.048      557.392      249.847      226.443        0.377        0.052       80.075        4.773        0.004      336.398        7.673      868.894
11/06/2014  00:40:00     -110.937      -54.829      -11.498       19.198       19.327       11.697      368.575      373.536      136.822        0.816        0.044      123.746        6.961        0.003      336.308        7.522      868.896
11/06/2014  00:41:00     -105.075      -57.725      -10.035       16.621       13.666       10.532      276.243      186.769      110.926        0.752        0.029      119.887        6.780        0.003      336.248        7.420      868.905
11/06/2014  00:42:00      -95.786      -49.514      -10.003       11.985       11.119        9.334      143.640      123.625       87.127        0.604        0.018      107.826        5.177        0.002      336.240        7.409      868.924
11/06/2014  00:43:00      -99.473      -52.435      -16.595        9.209       11.086        9.485       84.811      122.898       89.961        0.661        0.015      112.447        3.744        0.001      336.407        7.689      868.940
11/06/2014  00:44:00     -106.100      -57.349      -17.661       12.425       16.044       12.143      154.381      257.421      147.456        0.771        0.028      120.607        9.537        0.006      336.350        7.593      868.958
11/06/2014  00:45:00      -68.536      -51.944       -2.371       40.263       20.081       23.195     1621.107      403.244      538.011        0.498        0.128       85.996       17.395        0.041      336.305        7.518      868.973
11/06/2014  00:46:00      -94.607      -66.877       -1.689       42.648       35.225       23.025     1818.834     1240.787      530.160        0.851        0.179      115.858       22.463        0.038      336.237        7.405      868.992
11/06/2014  00:47:00     -116.631      -59.246       -7.062       23.380       17.247       11.508      546.638      297.465      132.431        0.907        0.049      130.816        9.149        0.005      336.233        7.399      868.990
11/06/2014  00:48:00      -89.899      -27.389       -7.873       20.124       16.345       15.210      404.961      267.172      231.336        0.490        0.045       93.978       11.364        0.015      336.272        7.462      868.973
11/06/2014  00:49:00      -75.130      -24.728       -7.441       16.331       10.883       12.267      266.711      118.438      150.483        0.342        0.027       79.095        7.576        0.009      336.274        7.466      868.948
11/06/2014  00:50:00     -119.646      -37.278       -9.580       15.962       16.388       10.881      254.778      268.573      118.386        0.822        0.032      125.319        6.751        0.003      336.176        7.301      868.941
11/06/2014  00:51:00     -123.658      -63.733      -11.881       16.246       16.177       16.225      263.942      261.693      263.243        1.014        0.039      139.115        6.823        0.002      336.093        7.164      868.948
11/06/2014  00:52:00     -133.699      -56.802       -9.872       31.793       23.032       14.757     1010.817      530.450      217.781        1.148        0.088      145.265        8.140        0.003      336.097        7.169      868.963
11/06/2014  00:53:00      -94.363      -41.456       -0.731       30.962       23.273       17.268      958.657      541.633      298.184        0.621        0.090      103.068       13.570        0.017      336.102        7.177      868.964
11/06/2014  00:54:00      -43.395      -38.547       -1.695       39.802       19.207       16.245     1584.192      368.926      263.896        0.279        0.111       58.043       16.831        0.084      336.151        7.259      868.955
11/06/2014  00:55:00      -67.193      -42.357       -4.668       26.552       20.268       11.174      704.997      410.799      124.869        0.379        0.062       79.429       11.941        0.023      336.167        7.285      868.936
11/06/2014  00:56:00      -94.483      -51.184      -14.268       26.404       17.503       13.603      697.194      306.361      185.049        0.647        0.059      107.456       11.531        0.012      336.170        7.292      868.914
11/06/2014  00:57:00     -116.190      -65.150      -16.425       14.871       13.504       10.455      221.142      182.351      109.305        0.926        0.026      133.209        6.689        0.003      336.134        7.230      868.914
11/06/2014  00:58:00      -94.887      -57.057        3.160       48.827       45.402       23.085     2384.060     2061.336      532.931        0.862        0.249      110.721       31.027        0.079      336.066        7.118      868.933
11/06/2014  00:59:00      -95.783      -76.369        2.452       43.402       40.482       28.489     1883.749     1638.769      811.604        0.967        0.217      122.501       20.899        0.029      335.965        6.949      868.954
11/06/2014  01:00:00     -123.300      -66.008        2.206       46.495       26.057       24.751     2161.771      678.978      612.603        1.151        0.173      139.857       24.855        0.032      336.036        7.068      868.956
11/06/2014  01:01:00     -105.250      -42.748       -5.722       22.027       20.637       19.114      485.187      425.880      365.328        0.711        0.064      113.600       13.832        0.015      335.993        6.998      868.961
11/06/2014  01:02:00     -111.527      -51.418       -4.777       29.184       22.243       17.285      851.704      494.764      298.758        0.837        0.082      122.809       16.179        0.017      336.080        7.141      868.964
11/06/2014  01:03:00     -102.310      -49.990        2.952       43.374       26.165       20.711     1881.308      684.604      428.925        0.798        0.150      113.870       22.943        0.041      336.046        7.084      868.977
11/06/2014  01:04:00     -112.413      -56.769       -7.715       16.484       19.050        9.804      271.725      362.914       96.119        0.832        0.037      125.934        3.913        0.001      336.003        7.013      868.998
11/06/2014  01:05:00      -95.140      -44.846       -7.438       23.825       16.642       11.051      567.611      276.947      122.123        0.604        0.048      105.180       10.637        0.010      336.019        7.039      868.990
11/06/2014  01:06:00     -105.709      -38.908      -12.158        9.417        8.955        6.826       88.685       80.187       46.599        0.653        0.011      112.642        4.157        0.001      335.954        6.929      868.963
11/06/2014  01:07:00     -121.816      -37.144      -18.298       13.668       10.666       10.036      186.822      113.754      100.717        0.848        0.020      127.353        4.871        0.001      335.986        6.983      868.948
11/06/2014  01:08:00     -132.377      -57.604      -18.648        9.548       16.331        9.624       91.165      266.696       92.629        1.082        0.023      144.367        9.833        0.005      336.053        7.096      868.938
11/06/2014  01:09:00     -134.194      -74.447       -9.916       23.557       14.333       18.547      554.939      205.429      344.006        1.238        0.055      153.461       11.144        0.005      336.032        7.062      868.940
11/06/2014  01:10:00     -102.680      -70.480       -8.752       32.092       24.150       21.180     1029.901      583.213      448.591        0.882        0.103      124.541       11.927        0.009      335.948        6.922      868.946
11/06/2014  01:11:00      -79.881      -78.099       -6.597       40.609       26.780       17.903     1649.072      717.153      320.503        0.760        0.134      111.716       12.845        0.013      335.932        6.895      868.953
11/06/2014  01:12:00      -86.553      -49.309       -3.571       20.248       23.508       13.047      409.989      552.618      170.230        0.553        0.057       99.613        6.914        0.005      335.956        6.934      868.943
11/06/2014  01:13:00      -67.732      -37.214       -0.986       29.926       18.649       15.695      895.581      347.781      246.331        0.373        0.074       77.282       15.955        0.043      335.917        6.868      868.939
11/06/2014  01:14:00      -99.537      -56.544       -5.536       20.808       22.453       14.229      432.987      504.138      202.477        0.714        0.057      114.476       11.594        0.010      335.899        6.840      868.944
11/06/2014  01:15:00      -39.394      -32.330        7.924       38.460       31.635       25.475     1479.198     1000.766      649.000        0.289        0.156       50.962       24.088        0.223      335.900        6.841      868.958
11/06/2014  01:16:00      -24.844      -61.835       13.053       49.305       38.055       28.050     2430.995     1448.183      786.798        0.464        0.233       66.639       27.704        0.173      335.958        6.940      868.962
11/06/2014  01:17:00      -69.331      -67.508       -7.637       20.144       32.468       16.810      405.791     1054.174      282.585        0.558        0.087       96.769       17.932        0.034      336.042        7.078      868.951
11/06/2014  01:18:00      -50.700      -30.638        5.318       30.597       12.183       13.992      936.150      148.415      195.779        0.241        0.064       59.238       14.887        0.063      336.122        7.212      868.925
11/06/2014  01:19:00     -100.859      -54.119       -7.696       26.587       20.618       14.847      706.859      425.105      220.435        0.726        0.068      114.461       10.075        0.008      336.028        7.054      868.902
11/06/2014  01:20:00     -113.007      -68.139       -2.908       44.746       26.689       19.625     2002.182      712.313      385.123        1.026        0.155      131.960       19.029        0.021      335.951        6.926      868.902
11/06/2014  01:21:00      -92.071      -68.155        2.375       46.214       34.681       22.226     2135.772     1202.756      494.002        0.848        0.192      114.552       22.045        0.037      335.915        6.866      868.931
11/06/2014  01:22:00      -74.054      -53.679        7.835       41.257       36.267       24.848     1702.175     1315.307      617.418        0.603        0.182       91.463       22.681        0.061      335.937        6.903      868.939
11/06/2014  01:23:00      -88.448      -49.709        0.839       36.917       31.077       21.743     1362.847      965.781      472.739        0.655        0.140      101.460       17.256        0.029      335.961        6.944      868.921
11/06/2014  01:24:00      -83.145      -39.326        1.457       19.114       13.733       12.095      365.357      188.598      146.284        0.458        0.035       91.976        9.135        0.010      336.074        7.132      868.900
11/06/2014  01:25:00       -5.985      -20.744       12.756       26.677       11.540       11.728      711.684      133.162      137.544        0.081        0.049       21.590       15.101        0.489      336.185        7.318      868.897
11/06/2014  01:26:00      -20.857      -20.996        2.109       13.730       10.514        7.885      188.524      110.546       62.175        0.062        0.018       29.595        5.457        0.034      336.284        7.482      868.904
11/06/2014  01:27:00      -59.214      -26.656       -1.757       31.884        8.701       10.159     1016.607       75.703      103.212        0.271        0.060       64.937       13.681        0.044      336.237        7.403      868.924
11/06/2014  01:28:00     -110.157      -36.420      -13.467       11.645       14.972        9.631      135.609      224.166       92.756        0.705        0.023      116.022        8.096        0.005      336.119        7.207      868.937
11/06/2014  01:29:00      -92.859      -56.679      -12.491       21.812       17.287       12.083      475.778      298.843      145.999        0.646        0.046      108.790        5.025        0.002      335.994        6.997      868.952
11/06/2014  01:30:00      -80.224      -57.188       -9.798       27.872       25.050       15.439      776.849      627.521      238.378        0.572        0.082       98.521       16.015        0.026      336.031        7.060      868.950
11/06/2014  01:31:00      -89.828      -59.171       -6.275       13.488       18.561       10.286      181.919      344.514      105.807        0.612        0.032      107.565        6.139        0.003      336.011        7.026      868.936
11/06/2014  01:32:00      -81.947      -61.920       -7.585       16.206       18.276       11.099      262.650      334.028      123.179        0.566        0.036      102.710        9.225        0.008      335.967        6.953      868.933
11/06/2014  01:33:00      -67.994      -43.347       -0.622       25.098       27.885       18.569      629.913      777.561      344.823        0.413        0.088       80.635       15.835        0.039      335.873        6.796      868.963
11/06/2014  01:34:00     -111.179      -48.164       -7.161       21.192       26.596       15.318      449.102      707.324      234.641        0.806        0.070      121.163        7.502        0.004      335.836        6.735      868.984
11/06/2014  01:35:00     -101.758      -55.692        0.147       38.551       31.947       20.728     1486.158     1020.588      429.642        0.820        0.147      116.002       22.471        0.038      335.786        6.651      869.001
11/06/2014  01:36:00      -66.279      -51.895        5.270       50.344       34.857       21.042     2534.567     1215.035      442.784        0.565        0.210       84.179       23.772        0.080      335.878        6.805      869.013
11/06/2014  01:37:00     -139.150      -36.616       -3.689       37.502       35.279       21.163     1406.378     1244.577      447.886        1.191        0.155      143.887       20.343        0.020      335.859        6.772      869.026
11/06/2014  01:38:00     -123.966      -64.889        0.050       33.410       30.755       17.143     1116.231      945.889      293.882        1.097        0.118      139.922       13.365        0.009      335.926        6.884      869.037
11/06/2014  01:39:00     -115.859      -69.662       -4.004       34.588       21.128       14.940     1196.322      446.402      223.196        1.008        0.093      135.189       16.294        0.015      335.885        6.817      869.041
11/06/2014  01:40:00     -112.658      -65.814      -10.545       23.372       23.064       16.555      546.252      531.951      274.082        0.924        0.068      130.473       10.185        0.006      335.912        6.861      869.027
11/06/2014  01:41:00     -106.980      -68.295      -12.603       25.387       16.967       13.986      644.486      287.895      195.618        0.870        0.056      126.921        6.389        0.003      335.875        6.800      869.028
11/06/2014  01:42:00      -63.523      -50.416       11.254       42.334       28.085       21.959     1792.139      788.755      482.215        0.488        0.153       81.098       17.603        0.047      335.832        6.728      869.041
11/06/2014  01:43:00       -0.806      -32.844       22.785       30.895       24.024       23.403      954.485      577.172      547.677        0.184        0.104       32.854       18.195        0.307      335.957        6.937      869.035
11/06/2014  01:44:00      -41.429      -18.538        1.507       22.601       14.512       14.239      510.800      210.607      202.759        0.149        0.046       45.387       11.471        0.064      335.997        7.003      869.010
11/06/2014  01:45:00      -38.035      -30.046       -1.758       14.603       13.353        8.706      213.244      178.294       75.800        0.141        0.023       48.471        6.191        0.016      336.044        7.081      868.989
11/06/2014  01:46:00      -67.626      -27.227       -5.749       13.958       15.181       11.289      194.831      230.450      127.443        0.295        0.028       72.901        8.549        0.014      336.105        7.183      868.975
11/06/2014  01:47:00      -65.411      -42.615       -3.955       18.220        8.036       11.137      331.951       64.570      124.035        0.332        0.026       78.068        6.806        0.008      336.084        7.148      868.974
11/06/2014  01:48:00      -80.837      -45.154      -12.260       27.531       12.203       12.735      757.934      148.920      162.174        0.490        0.053       92.593       13.526        0.021      335.968        6.953      868.979
11/06/2014  01:49:00     -101.843      -57.454      -12.417        9.244       14.118        9.788       85.452      199.311       95.803        0.710        0.019      116.932        6.498        0.003      335.913        6.863      868.979
11/06/2014  01:50:00     -104.876      -32.957      -10.130       10.804       11.083        9.216      116.730      122.832       84.940        0.626        0.016      109.933        3.506        0.001      335.979        6.973      868.962
11/06/2014  01:51:00      -86.619      -30.240       -9.649        8.292        7.928        5.169       68.752       62.860       26.714        0.433        0.008       91.746        3.644        0.002      336.042        7.076      868.944
11/06/2014  01:52:00      -65.024      -26.540       -9.195        8.338        9.071        5.605       69.521       82.281       31.417        0.260        0.009       70.232        4.020        0.003      336.114        7.200      868.934
11/06/2014  01:53:00      -41.186      -37.674       -6.844       13.371       11.352        8.201      178.791      128.876       67.260        0.177        0.019       55.818        2.654        0.002      336.100        7.176      868.935
11/06/2014  01:54:00      -64.220      -39.856       -8.007       13.175        8.110        6.742      173.588       65.774       45.458        0.303        0.014       75.582        4.934        0.004      336.049        7.089      868.960
11/06/2014  01:55:00     -116.911      -55.656      -11.829       22.147       15.408        7.492      490.511      237.399       56.132        0.884        0.039      129.483        5.204        0.002      335.925        6.882      868.996
11/06/2014  01:56:00     -145.457      -55.547       -7.471       23.157       20.445       15.601      536.234      417.979      243.400        1.275        0.060      155.702       14.373        0.009      335.843        6.746      869.025
11/06/2014  01:57:00     -103.395      -40.861       -1.449       34.828       20.348       15.660     1212.999      414.028      245.230        0.712        0.094      111.176       18.484        0.028      335.701        6.511      869.046
11/06/2014  01:58:00      -35.950      -18.290        2.957       26.741       14.398       13.687      715.066      207.311      187.342        0.137        0.055       40.335       15.701        0.152      335.727        6.553      869.032
11/06/2014  01:59:00      -24.143      -17.699        3.877       16.233       12.318        9.067      263.526      151.735       82.219        0.070        0.025       29.936        8.151        0.074      335.880        6.808      868.997
11/06/2014  02:00:00      -27.250      -25.795       -3.524       16.041        7.659        8.534      257.320       58.668       72.833        0.090        0.019       37.522        7.292        0.038      336.037        7.069      868.993
11/06/2014  02:01:00      -52.003      -27.567       -0.419       27.757       12.062       10.841      770.452      145.503      117.524        0.225        0.052       58.858       13.347        0.051      335.944        6.914      869.007
11/06/2014  02:02:00      -93.803      -46.426       -6.300       14.083       12.830        7.613      198.332      164.618       57.953        0.571        0.021      104.663        3.148        0.001      335.870        6.790      869.033
11/06/2014  02:03:00     -124.320      -35.649      -12.804       16.882       19.597        9.490      285.002      384.037       90.057        0.882        0.038      129.330        6.336        0.002      335.791        6.660      869.039
11/06/2014  02:04:00     -109.587      -23.462      -12.053       21.260       16.989       14.657      451.976      288.609      214.839        0.683        0.048      112.070       10.882        0.009      335.744        6.584      869.030
11/06/2014  02:05:00     -146.378      -62.210      -11.937       17.057       22.565       15.895      290.954      509.190      252.653        1.325        0.053      159.049       10.353        0.004      335.688        6.490      869.027
11/06/2014  02:06:00     -122.837      -64.983       -3.902       39.926       25.475       18.711     1594.066      648.960      350.104        1.096        0.130      138.966       17.634        0.016      335.668        6.456      869.045
11/06/2014  02:07:00     -108.274      -63.722       -4.465       32.654       27.560       16.184     1066.254      759.554      261.924        0.895        0.104      125.633        7.649        0.004      335.705        6.518      869.070
11/06/2014  02:08:00      -78.636      -58.012       -5.194       31.568       18.906       20.149      996.559      357.455      405.986        0.567        0.088       97.719       13.511        0.019      335.750        6.592      869.094
11/06/2014  02:09:00      -78.665      -62.969       -7.205       33.119       21.386       18.644     1096.861      457.345      347.616        0.605        0.095      100.763       17.540        0.030      335.755        6.601      869.108
11/06/2014  02:10:00      -76.887      -39.027       -3.264       29.745       16.596       13.697      884.763      275.444      187.617        0.440        0.067       86.225       15.752        0.033      335.735        6.568      869.108
11/06/2014  02:11:00      -85.767      -34.603       -9.770       10.424       13.963        8.290      108.666      194.961       68.726        0.451        0.019       92.484        4.178        0.002      335.704        6.515      869.094
11/06/2014  02:12:00     -103.848      -39.536      -11.621       11.714       14.422       12.143      137.219      208.003      147.452        0.649        0.025      111.120        7.391        0.004      335.707        6.520      869.080
11/06/2014  02:13:00     -133.269      -49.974      -10.954       14.936       12.885        8.284      223.083      166.017       68.629        1.042        0.023      142.331        4.900        0.001      335.646        6.418      869.073
11/06/2014  02:14:00     -127.212      -68.297       -2.989       29.090       25.390       19.129      846.233      644.642      365.904        1.136        0.093      144.387       18.241        0.016      335.601        6.344      869.062
11/06/2014  02:15:00     -110.687      -82.522       -2.881       25.227       27.537       15.513      636.421      758.301      240.667        1.035        0.082      138.063       13.284        0.009      335.604        6.350      869.062
11/06/2014  02:16:00      -49.059      -50.170        7.404       42.113       33.514       23.129     1773.506     1123.179      534.966        0.420        0.172       70.169       26.383        0.141      335.623        6.381      869.057
11/06/2014  02:17:00      -58.826      -62.728        6.851       47.785       27.662       20.327     2283.368      765.167      413.170        0.545        0.173       85.996       23.597        0.075      335.713        6.530      869.053
11/06/2014  02:18:00      -48.777      -31.476        8.926       35.947       21.212       14.581     1292.164      449.935      212.600        0.270        0.098       58.052       15.059        0.067      335.809        6.690      869.053
11/06/2014  02:19:00      -92.728      -49.160       -0.891       26.243       16.739       14.070      688.695      280.203      197.978        0.609        0.058      104.954       12.577        0.014      335.706        6.520      869.067
11/06/2014  02:20:00     -134.907      -63.193      -12.139       19.311       22.550       12.815      372.900      508.511      164.224        1.169        0.052      148.974        3.090        0.000      335.615        6.367      869.091
11/06/2014  02:21:00      -88.617      -48.842        4.877       64.917       31.680       26.690     4214.196     1003.622      712.362        0.810        0.297      101.185       23.293        0.053      335.636        6.401      869.110
11/06/2014  02:22:00      -69.124      -78.970        7.079       57.613       55.314       26.705     3319.227     3059.601      713.143        0.908        0.355      104.949       32.016        0.093      335.658        6.439      869.112
11/06/2014  02:23:00      -82.669      -84.218       -6.440       40.896       35.989       26.029     1672.444     1295.227      677.529        0.881        0.182      118.012       24.352        0.043      335.767        6.620      869.092
11/06/2014  02:24:00     -110.752      -73.586       -5.351       34.106       29.411       20.317     1163.227      865.017      412.786        1.007        0.122      132.969       21.135        0.025      335.756        6.602      869.083
11/06/2014  02:25:00     -114.571      -52.090       -3.179       19.962       17.073       14.780      398.501      291.502      218.452        0.838        0.045      125.856       12.847        0.010      335.795        6.667      869.065
11/06/2014  02:26:00      -98.366      -50.727       -6.525       38.890       19.023       19.086     1512.454      361.870      364.284        0.726        0.112      110.675       18.150        0.027      335.820        6.708      869.062
11/06/2014  02:27:00      -98.798      -49.018       -1.461       35.526       22.581       21.350     1262.128      509.899      455.834        0.720        0.111      110.290       19.259        0.030      335.689        6.491      869.068
11/06/2014  02:28:00      -64.920      -66.328       11.926       55.198       40.528       28.936     3046.834     1642.542      837.314        0.714        0.276       92.811       28.395        0.094      335.685        6.484      869.072
11/06/2014  02:29:00     -115.954      -66.798       -3.335       56.447       31.567       21.713     3186.244      996.502      471.439        1.129        0.233      133.818       23.966        0.032      335.706        6.518      869.067
11/06/2014  02:30:00     -108.614      -53.928        5.829       35.459       27.438       15.944     1257.352      752.870      254.200        0.850        0.113      121.265       11.725        0.009      335.784        6.649      869.057
11/06/2014  02:31:00      -71.017      -62.702        5.512       35.766       27.990       16.365     1279.234      783.450      267.815        0.567        0.117       94.736       14.196        0.022      335.800        6.676      869.067
11/06/2014  02:32:00      -58.618      -51.166        1.270       41.513       22.476       20.628     1723.323      505.163      425.529        0.435        0.133       77.808       20.614        0.070      335.716        6.536      869.085
11/06/2014  02:33:00      -10.306      -33.868       13.560       26.462       23.632       18.959      700.260      558.468      359.455        0.153        0.081       35.401       16.077        0.206      335.721        6.544      869.090
11/06/2014  02:34:00      -46.878      -47.330       -4.689       23.884       21.726       12.036      570.430      472.040      144.866        0.282        0.059       66.616       13.462        0.041      335.730        6.559      869.064
11/06/2014  02:35:00      -66.444      -44.862        0.531       23.343       19.507       16.054      544.883      380.527      257.722        0.381        0.059       80.171       13.238        0.027      335.782        6.645      869.045
11/06/2014  02:36:00      -39.701      -40.251        0.548       42.831       30.106       15.026     1834.473      906.355      225.775        0.308        0.148       56.536       14.722        0.068      335.746        6.585      869.030
11/06/2014  02:37:00     -107.275      -70.971       -2.233       39.718       31.148       19.088     1577.549      970.179      364.359        0.973        0.146      128.627       13.970        0.012      335.746        6.585      869.023
11/06/2014  02:38:00     -108.840      -50.513       -1.104       31.766       27.687       16.915     1009.081      766.561      286.132        0.823        0.103      119.990       10.494        0.008      335.698        6.504      869.025
11/06/2014  02:39:00     -103.748      -44.918       -6.050       29.696       16.323       14.281      881.856      266.426      203.933        0.708        0.068      113.054       12.483        0.012      335.633        6.397      869.021
11/06/2014  02:40:00      -89.593      -41.775       -1.499       29.437       19.432       15.267      866.520      377.621      233.075        0.563        0.074       98.854       14.878        0.023      335.645        6.417      869.012
11/06/2014  02:41:00      -88.840      -44.678        3.072       33.366       24.374       18.542     1113.296      594.100      343.804        0.597        0.103       99.442       17.067        0.029      335.670        6.460      869.008
11/06/2014  02:42:00      -76.583      -52.314        0.087       40.974       23.463       20.916     1678.835      550.508      437.492        0.563        0.133       92.745       18.770        0.041      335.701        6.510      869.012
11/06/2014  02:43:00      -61.293      -55.449        5.715       33.496       30.937       21.361     1121.960      957.119      456.306        0.470        0.127       82.652       16.067        0.038      335.786        6.652      869.022
11/06/2014  02:44:00      -55.027      -35.427       13.434       45.676       25.763       21.511     2086.259      663.712      462.726        0.384        0.161       65.445       26.857        0.168      335.801        6.675      869.024
11/06/2014  02:45:00      -39.145      -64.547       -0.470       23.708       25.568       17.143      562.088      653.731      293.898        0.360        0.075       75.489        8.217        0.012      335.863        6.780      869.013
11/06/2014  02:46:00      -46.355      -66.257       -8.433       27.339       16.933       11.931      747.408      286.743      142.355        0.389        0.059       80.863        7.177        0.008      335.858        6.772      869.005
11/06/2014  02:47:00      -50.566      -44.909        6.305       29.815       18.760       20.082      888.908      351.953      403.283        0.313        0.082       67.630       12.560        0.034      335.758        6.605      869.009
11/06/2014  02:48:00      -79.740      -66.067        0.230       48.779       45.057       31.636     2379.382     2030.118     1000.860        0.807        0.271      103.553       28.602        0.076      335.714        6.533      869.001
11/06/2014  02:49:00      -93.062      -46.214        2.241       25.918       29.045       18.505      671.734      843.595      342.437        0.633        0.093      103.905       11.769        0.013      335.667        6.455      868.964
11/06/2014  02:50:00      -80.496      -37.611       -2.226       14.271       16.168       10.297      203.657      261.392      106.028        0.423        0.029       88.849        6.068        0.005      335.629        6.388      868.926
11/06/2014  02:51:00      -55.279      -36.879       -2.782       17.974       11.297       10.323      323.059      127.631      106.566        0.249        0.028       66.451       10.461        0.025      335.707        6.521      868.928
11/06/2014  02:52:00      -57.243      -48.102        0.097       20.342       18.168       13.864      413.789      330.069      192.199        0.326        0.047       74.770       13.002        0.030      335.747        6.587      868.947
11/06/2014  02:53:00      -45.490      -36.475       -1.624       31.130       15.019       11.562      969.097      225.574      133.668        0.237        0.066       58.307       15.408        0.070      335.657        6.438      868.969
11/06/2014  02:54:00      -31.031      -25.947       -0.960       20.113        7.892        9.035      404.516       62.278       81.624        0.109        0.027       40.449        5.793        0.021      335.651        6.428      868.972
11/06/2014  02:55:00      -50.978      -17.568       -4.529        8.857        7.005        4.536       78.448       49.064       20.579        0.154        0.007       53.920        3.159        0.003      335.631        6.393      868.961
11/06/2014  02:56:00      -34.297      -15.676        4.604       25.139       11.015       14.696      631.953      121.331      215.985        0.121        0.048       37.710       16.620        0.194      335.598        6.338      868.958
11/06/2014  02:57:00      -18.028      -25.296        5.390       15.284       11.456        9.709      233.606      131.242       94.262        0.073        0.023       31.062        6.777        0.048      335.582        6.311      868.963
11/06/2014  02:58:00        4.104      -26.525       11.881        6.351        7.643        9.103       40.341       58.421       82.858        0.052        0.009       26.841        5.731        0.046      335.612        6.362      868.946
11/06/2014  02:59:00        0.658      -19.050        6.579        7.149        9.677        7.549       51.115       93.640       56.982        0.030        0.010       19.062        5.515        0.084      335.671        6.461      868.932
11/06/2014  03:00:00       -7.799      -18.988       -7.559       11.774        5.872        5.535      138.637       34.479       30.636        0.034        0.010       20.527        2.538        0.015      335.818        6.704      868.920
11/06/2014  03:01:00        1.967       -4.400       -5.660        6.355        7.950        5.908       40.386       63.197       34.900        0.010        0.007        4.820        3.872        0.645      335.859        6.774      868.900
11/06/2014  03:02:00       24.348       25.689       15.568        8.163        7.944        9.745       66.641       63.115       94.972        0.086        0.011       35.394        4.578        0.017      335.700        6.509      868.876
11/06/2014  03:03:00       11.930        7.279        6.293       11.975       10.634        6.770      143.410      113.078       45.836        0.027        0.015       13.975        2.743        0.039      335.723        6.546      868.869
11/06/2014  03:04:00      -14.614      -33.812       -2.259       23.601       12.621        8.037      557.026      159.285       64.598        0.107        0.039       36.835        6.223        0.029      335.700        6.509      868.892
11/06/2014  03:05:00      -79.024      -24.121       -7.731       16.838       11.744        7.896      283.533      137.923       62.351        0.368        0.024       82.623        4.426        0.003      335.439        6.073      868.933
11/06/2014  03:06:00      -75.660      -34.686       -4.718       18.880       17.988       11.241      356.450      323.550      126.359        0.388        0.040       83.232        5.256        0.004      335.344        5.916      868.952
11/06/2014  03:07:00      -45.253       -7.632       -4.253       14.624       14.807        6.324      213.875      219.254       39.992        0.130        0.024       45.892        4.930        0.012      335.333        5.895      868.953
11/06/2014  03:08:00      -30.869       -6.462       -4.733        4.787        6.768        4.905       22.916       45.802       24.057        0.055        0.005       31.538        1.329        0.002      335.482        6.146      868.951
11/06/2014  03:09:00      -51.619        1.679       -5.470       10.948        6.920        4.753      119.857       47.890       22.591        0.144        0.010       51.647        2.187        0.002      335.635        6.401      868.973
11/06/2014  03:10:00      -66.038      -33.788       -5.139       10.012       12.975        8.161      100.249      168.357       66.597        0.293        0.017       74.180        5.872        0.006      335.582        6.311      869.009
11/06/2014  03:11:00      -48.888      -14.909       -2.349        9.698       10.474        7.035       94.058      109.706       49.498        0.144        0.013       51.110        3.726        0.005      335.531        6.227      869.010
11/06/2014  03:12:00      -48.683        1.576       -6.573        7.645       10.487        4.982       58.442      109.983       24.817        0.130        0.010       48.708        3.591        0.005      335.563        6.282      868.980
11/06/2014  03:13:00      -51.756       -2.637       -6.416       10.828        9.730        8.461      117.250       94.672       71.597        0.151        0.014       51.823        7.168        0.019      335.588        6.322      868.940
11/06/2014  03:14:00      -62.912      -33.029       -4.870       21.785       16.302       10.935      474.587      265.752      119.583        0.297        0.043       71.055        6.325        0.008      335.565        6.283      868.944
11/06/2014  03:15:00      -96.938      -60.987       -2.720       22.105       20.241       16.718      488.633      409.708      279.505        0.715        0.059      114.527       12.971        0.013      335.409        6.022      868.971
11/06/2014  03:16:00      -85.419      -34.047        1.722       35.263       28.042       18.558     1243.455      786.329      344.409        0.542        0.119       91.955       18.683        0.041      335.345        5.915      868.982
11/06/2014  03:17:00      -58.511       -5.903        2.115       33.934       27.153       13.573     1151.486      737.310      184.220        0.277        0.104       58.808       16.685        0.081      335.313        5.864      868.957
11/06/2014  03:18:00      -45.766      -38.152        4.395       28.545       26.228       16.036      814.819      687.896      257.162        0.266        0.088       59.583       14.348        0.058      335.463        6.113      868.936
11/06/2014  03:19:00      -30.570      -29.342        6.004       32.045       23.618       16.719     1026.911      557.809      279.526        0.185        0.093       42.373       16.611        0.154      335.547        6.254      868.938
11/06/2014  03:20:00      -28.978      -30.696        5.744       32.346       25.674       19.670     1046.234      659.161      386.898        0.195        0.105       42.214       18.955        0.202      335.525        6.217      868.939
11/06/2014  03:21:00      -38.530      -42.120        7.911       40.800       24.443       23.772     1664.608      597.460      565.086        0.307        0.141       57.085       26.118        0.209      335.485        6.150      868.929
11/06/2014  03:22:00      -58.879       -8.932       -7.476       22.140       18.053       12.385      490.165      325.915      153.381        0.229        0.048       59.552        5.864        0.010      335.545        6.250      868.907
11/06/2014  03:23:00      -70.687      -25.719       -7.074       15.955       25.455       13.655      254.547      647.972      186.469        0.340        0.054       75.220        6.409        0.007      335.525        6.218      868.902
11/06/2014  03:24:00     -124.146      -66.018       -6.798       36.320       27.088       17.167     1319.131      733.763      294.712        1.108        0.117      140.608       11.886        0.007      335.448        6.088      868.924
11/06/2014  03:25:00      -65.991      -56.862        7.659       60.351       43.122       25.356     3642.226     1859.545      642.939        0.689        0.307       87.109       25.735        0.087      335.319        5.873      868.957
11/06/2014  03:26:00     -102.356       -6.418        1.890       34.569       49.597       25.523     1195.031     2459.878      651.405        0.741        0.215      102.557       16.836        0.027      335.255        5.765      868.969
11/06/2014  03:27:00      -61.419       -8.183       -2.333       26.144       23.365       13.567      683.508      545.914      184.074        0.263        0.071       61.962        9.919        0.026      335.201        5.676      868.928
11/06/2014  03:28:00      -43.172        7.105        0.103       14.938       13.476       12.842      223.145      181.611      164.925        0.124        0.028       43.753        6.775        0.024      335.239        5.741      868.875
11/06/2014  03:29:00      -42.040      -18.228       -8.366        7.565        8.985        7.103       57.223       80.735       50.459        0.118        0.009       45.821        4.075        0.008      335.625        6.385      868.854
11/06/2014  03:30:00      -32.786      -27.238        6.094       36.369       18.220       19.779     1322.740      331.966      391.211        0.195        0.102       42.624       17.536        0.169      335.449        6.090      868.880
11/06/2014  03:31:00      -32.150      -40.284        9.453       55.797       32.634       25.310     3113.360     1064.991      640.604        0.378        0.241       51.541       27.526        0.285      335.361        5.943      868.902
11/06/2014  03:32:00     -102.018      -41.980       -4.221       38.386       39.481       20.660     1473.487     1558.756      426.850        0.782        0.173      110.318       25.060        0.052      335.287        5.821      868.869
11/06/2014  03:33:00     -125.531       -6.506      -10.486       42.488       19.930       19.207     1805.271      397.186      368.911        0.924        0.129      125.699       20.453        0.026      335.305        5.848      868.845
11/06/2014  03:34:00     -102.217      -14.497       -4.034       32.635       23.596       18.599     1065.075      556.749      345.927        0.632        0.098      103.240       15.357        0.022      335.229        5.723      868.852
11/06/2014  03:35:00      -41.422      -23.814       -6.250       26.052       10.642        8.052      678.692      113.260       64.829        0.159        0.043       47.780       10.981        0.053      335.263        5.778      868.837
11/06/2014  03:36:00      -53.324        7.818       -5.987       20.842        8.345        8.141      434.377       69.633       66.275        0.176        0.029       53.894        7.850        0.021      335.375        5.967      868.820
11/06/2014  03:37:00      -98.291      -24.191      -13.554       14.559       19.620       13.257      211.951      384.959      175.753        0.560        0.039      101.224        6.672        0.004      335.388        5.989      868.834
11/06/2014  03:38:00      -24.094      -31.517        1.959       51.372       17.752       12.451     2639.067      315.117      155.038        0.234        0.155       39.672       17.125        0.186      335.291        5.827      868.830
11/06/2014  03:39:00       -9.130      -16.668        7.518        9.746       13.929        6.902       94.987      194.023       47.636        0.038        0.017       19.005        8.053        0.180      335.361        5.943      868.790
11/06/2014  03:40:00      -32.653       11.665       -2.261        9.519       11.980        8.688       90.613      143.528       75.481        0.076        0.015       34.675        4.951        0.020      335.448        6.087      868.737
11/06/2014  03:41:00      -89.684        9.440      -13.470       22.744       20.184       11.034      517.290      407.399      121.744        0.468        0.052       90.179       11.453        0.016      335.318        5.871      868.698
11/06/2014  03:42:00     -157.858      -60.981      -11.782       44.124       31.224       20.502     1946.939      974.930      420.327        1.606        0.167      169.227        6.405        0.001      335.067        5.455      868.689
11/06/2014  03:43:00      -94.185      -45.524        2.827       50.347       33.614       20.357     2534.793     1129.915      414.393        0.751        0.204      104.610       19.019        0.033      335.024        5.384      868.689
11/06/2014  03:44:00      -59.203      -20.208       -6.306       38.095       19.548       14.312     1451.210      382.142      204.828        0.300        0.102       62.557        9.112        0.021      335.025        5.384      868.673
11/06/2014  03:45:00      -75.555      -20.033       -4.353       21.264       23.633       14.397      452.148      558.540      207.264        0.367        0.061       78.166        9.440        0.015      335.030        5.395      868.641
11/06/2014  03:46:00      -27.507       -8.484       -5.682       38.754       24.276       19.316     1501.909      589.339      373.124        0.166        0.123       28.786       18.796        0.426      335.090        5.494      868.606
11/06/2014  03:47:00      -27.301       -9.546        2.518       32.040       23.546       20.899     1026.534      554.411      436.752        0.143        0.101       28.922       18.333        0.402      335.067        5.455      868.598
11/06/2014  03:48:00      -62.785        2.021       -7.242       32.903       20.134       15.768     1082.592      405.358      248.645        0.287        0.087       62.818       11.629        0.034      335.021        5.379      868.598
11/06/2014  03:49:00      -27.408       -5.355       -0.667       23.158       20.600       12.846      536.276      424.373      165.008        0.095        0.056       27.926       14.572        0.272      335.051        5.430      868.573
11/06/2014  03:50:00      -63.886       22.032       -6.895       17.040       16.059       10.300      290.361      257.877      106.095        0.263        0.033       67.578        8.963        0.018      335.184        5.650      868.524
11/06/2014  03:51:00      -44.218      -21.819       -7.470       14.795       14.807        9.023      218.903      219.235       81.411        0.150        0.026       49.308        6.603        0.018      335.208        5.688      868.536
11/06/2014  03:52:00       -2.431      -21.773        8.232       30.351       15.844       17.256      921.172      251.023      297.759        0.101        0.073       21.909       13.214        0.364      335.153        5.596      868.556
11/06/2014  03:53:00      -69.483      -28.714       -7.230       18.362       19.674       12.980      337.175      387.077      168.491        0.330        0.045       75.182       10.500        0.020      334.978        5.308      868.548
11/06/2014  03:54:00      -45.477      -24.150       -5.276       13.586       12.564        8.718      184.579      157.842       75.997        0.155        0.021       51.492        5.742        0.012      335.056        5.437      868.533
11/06/2014  03:55:00      -49.946      -22.970       -8.458       15.518       12.253        8.996      240.810      150.140       80.922        0.178        0.024       54.975        7.272        0.017      335.129        5.560      868.532
11/06/2014  03:56:00      -65.529      -37.488       -3.783       20.910       14.858       10.344      437.227      220.771      107.003        0.324        0.038       75.494        9.988        0.018      335.063        5.449      868.527
11/06/2014  03:57:00      -68.533      -25.469      -11.232        9.158        8.590        7.045       83.866       73.783       49.625        0.284        0.010       73.112        2.697        0.001      335.068        5.457      868.502
11/06/2014  03:58:00      -88.426      -28.732      -14.095       10.375       11.125        7.328      107.645      123.755       53.693        0.456        0.014       92.976        3.371        0.001      335.086        5.487      868.459
11/06/2014  03:59:00     -101.447      -51.146      -17.203       10.550       20.000       10.707      111.304      400.017      114.642        0.691        0.031      113.611        3.195        0.001      335.049        5.426      868.440
11/06/2014  04:00:00     -134.185      -76.675      -13.801       27.058       27.278       20.147      732.153      744.074      405.915        1.298        0.094      154.547       16.815        0.012      334.934        5.234      868.445
11/06/2014  04:01:00      -60.211      -57.449       -4.287       41.353       29.384       23.825     1710.077      863.446      567.630        0.504        0.157       83.221       24.596        0.087      334.900        5.178      868.446
11/06/2014  04:02:00      -81.017      -15.392       -2.956       23.040       17.417       10.401      530.830      303.365      108.178        0.388        0.047       82.466       10.802        0.017      334.976        5.305      868.430
11/06/2014  04:03:00      -73.767      -38.124       -3.861       18.304       13.661        8.479      335.023      186.618       71.899        0.375        0.030       83.036        8.608        0.011      335.088        5.491      868.442
11/06/2014  04:04:00     -107.946      -47.623       -8.960       17.124       13.283        9.466      293.245      176.429       89.608        0.728        0.028      117.984        7.598        0.004      335.149        5.591      868.457
11/06/2014  04:05:00     -128.003      -42.433      -15.101       10.181       11.636        6.919      103.656      135.389       47.877        0.935        0.014      134.853        2.715        0.000      335.074        5.468      868.460
11/06/2014  04:06:00     -105.132      -68.743       -7.067       26.151       20.167       17.986      683.863      406.712      323.481        0.862        0.071      125.612       13.981        0.012      335.081        5.479      868.452
11/06/2014  04:07:00     -117.984      -60.960      -18.472        9.764       14.749       11.901       95.329      217.526      141.643        0.922        0.023      132.802        6.197        0.002      335.119        5.543      868.429
11/06/2014  04:08:00      -76.989      -34.164      -10.438       15.756       13.777       10.292      248.261      189.801      105.916        0.387        0.027       84.229        6.481        0.006      335.132        5.563      868.392
11/06/2014  04:09:00      -38.745      -31.554       -5.755        9.087        4.743        5.820       82.565       22.500       33.872        0.133        0.007       49.969        4.352        0.008      335.251        5.761      868.371
11/06/2014  04:10:00      -20.715      -27.624       -2.465       12.822        8.073        6.362      164.407       65.172       40.478        0.073        0.014       34.528        4.326        0.016      335.402        6.010      868.375
11/06/2014  04:11:00      -15.337      -30.169        2.196       11.308        7.799       11.469      127.868       60.821      131.529        0.074        0.016       33.844        9.422        0.078      335.421        6.043      868.399
11/06/2014  04:12:00      -82.399      -34.355       -7.779       31.543       10.442        7.014      994.956      109.038       49.193        0.459        0.058       89.274        7.317        0.007      335.230        5.726      868.395
11/06/2014  04:13:00     -134.156      -42.677      -10.567       20.253       22.561       16.780      410.183      509.017      281.572        1.057        0.060      140.781       13.078        0.009      334.922        5.214      868.374
11/06/2014  04:14:00     -120.436      -32.170       -4.165       35.511       31.985       20.302     1261.007     1023.041      412.190        0.913        0.135      124.658       17.113        0.019      334.837        5.072      868.345
11/06/2014  04:15:00      -76.916      -29.775      -10.595       15.919       14.440       11.489      253.428      208.502      131.993        0.375        0.030       82.478        7.755        0.009      334.916        5.205      868.351
11/06/2014  04:16:00      -61.376      -44.145       -0.957       20.236       13.520        9.290      409.492      182.797       86.312        0.320        0.034       75.603        3.371        0.002      335.120        5.543      868.363
11/06/2014  04:17:00     -125.727      -42.910      -14.681       13.986       11.186        7.990      195.602      125.127       63.844        0.912        0.019      132.848        2.767        0.000      335.049        5.426      868.388
11/06/2014  04:18:00     -102.690      -39.139      -12.610       19.228        9.726        8.048      369.718       94.589       64.777        0.638        0.026      109.896        5.538        0.003      335.000        5.343      868.395
11/06/2014  04:19:00      -51.183      -17.948       -4.713       14.696       22.665        8.175      215.969      513.682       66.823        0.188        0.040       54.239        5.709        0.011      335.024        5.383      868.383
11/06/2014  04:20:00      -39.123      -15.852       -6.431       17.894       13.890        7.612      320.210      192.928       57.940        0.120        0.029       42.213        6.543        0.024      335.108        5.524      868.379
11/06/2014  04:21:00     -108.020      -61.341      -13.645       32.161       32.712       12.976     1034.356     1070.047      168.368        0.894        0.114      124.222        9.103        0.005      335.022        5.381      868.409
11/06/2014  04:22:00     -105.495      -58.027       -7.025       38.152       37.330       22.433     1455.607     1393.526      503.248        0.895        0.168      120.401       21.263        0.031      334.889        5.158      868.449
11/06/2014  04:23:00      -75.574      -30.232       -2.637       19.231       14.120        9.838      369.850      199.374       96.793        0.365        0.033       81.396        9.396        0.013      334.914        5.201      868.472
11/06/2014  04:24:00      -82.972      -34.339       -6.162       15.461       16.884       10.856      239.032      285.066      117.848        0.437        0.032       89.797        6.721        0.006      335.015        5.370      868.478
11/06/2014  04:25:00     -101.106      -25.360      -17.593       10.682       16.026        9.635      114.106      256.830       92.842        0.582        0.023      104.238        5.093        0.002      335.001        5.347      868.464
11/06/2014  04:26:00     -125.049      -57.828      -15.270       15.036       16.934        9.753      226.072      286.767       95.112        0.991        0.030      137.773        4.048        0.001      335.050        5.427      868.467
11/06/2014  04:27:00     -114.945      -64.377       -6.285       28.354       24.783       20.650      803.969      614.188      426.440        0.962        0.092      131.745       17.696        0.018      334.950        5.263      868.477
11/06/2014  04:28:00     -106.625      -49.376       -0.341       31.828       21.838       15.388     1013.039      476.918      236.795        0.777        0.086      117.503       14.311        0.015      334.920        5.211      868.499
11/06/2014  04:29:00      -81.254      -55.329       -6.950       36.561       19.985       13.181     1336.715      399.392      173.736        0.581        0.095       98.303       13.614        0.019      335.002        5.348      868.518
11/06/2014  04:30:00      -81.337      -48.605        0.758       38.391       28.206       23.170     1473.848      795.594      536.871        0.589        0.140       94.753       25.393        0.072      334.984        5.318      868.523
11/06/2014  04:31:00      -49.904      -20.365       -5.352       20.467       10.887       11.086      418.900      118.520      122.902        0.180        0.033       53.899        9.669        0.032      335.015        5.369      868.517
11/06/2014  04:32:00       -1.501      -10.796       -2.439       10.077       10.184       12.318      101.539      103.709      151.732        0.024        0.018       10.900        9.209        0.714      335.125        5.551      868.503
11/06/2014  04:33:00      -43.377      -12.429       -8.706       22.154       10.183        7.233      490.779      103.695       52.319        0.138        0.032       45.123        5.978        0.018      335.344        5.914      868.511
11/06/2014  04:34:00     -109.824       -2.396      -13.625       31.131       11.528       11.890      969.133      132.904      141.378        0.675        0.062      109.850       13.486        0.015      335.164        5.613      868.536
11/06/2014  04:35:00     -141.679      -20.194      -14.775       36.447       29.234       18.349     1328.374      854.605      336.691        1.161        0.126      143.111       19.917        0.019      334.835        5.070      868.567
11/06/2014  04:36:00      -76.796       -2.849       -3.318       53.085       34.080       27.364     2817.973     1161.439      748.764        0.532        0.236       76.849       26.842        0.122      334.723        4.883      868.609
11/06/2014  04:37:00     -128.928       21.972      -18.448       47.219       34.043       23.538     2229.625     1158.901      554.022        1.069        0.197      130.787       21.641        0.027      334.828        5.059      868.669
11/06/2014  04:38:00     -136.910        3.590      -21.501       31.713       38.912       22.135     1005.719     1514.156      489.962        1.111        0.150      136.957       12.948        0.009      334.837        5.072      868.736
11/06/2014  04:39:00     -110.062       -9.972      -11.018       47.420       39.618       25.679     2248.704     1569.623      659.394        0.841        0.224      110.513       23.020        0.043      334.763        4.949      868.769
11/06/2014  04:40:00      -87.224      -38.156       -8.262       31.720       36.706       20.503     1006.178     1347.326      420.358        0.595        0.139       95.204       15.036        0.025      334.698        4.841      868.786
11/06/2014  04:41:00      -47.252       -6.809       -7.703       25.642       22.673       14.094      657.506      514.058      198.641        0.185        0.069       47.740        9.765        0.042      334.796        5.004      868.781
11/06/2014  04:42:00      -10.561      -22.314       -7.578       34.469       11.889       15.565     1188.134      141.351      242.274        0.112        0.079       24.687        9.728        0.155      334.830        5.062      868.758
11/06/2014  04:43:00      -27.567      -42.201        1.824       26.187       15.973       13.600      685.778      255.122      184.957        0.183        0.056       50.407       13.436        0.071      334.889        5.160      868.726
11/06/2014  04:44:00      -19.262      -26.518        4.503       13.789       11.142       13.598      190.128      124.142      184.917        0.080        0.025       32.776        9.276        0.080      334.999        5.342      868.729
11/06/2014  04:45:00      -24.744      -20.202        4.549       19.497       12.148        8.788      380.131      147.576       77.234        0.082        0.030       31.943       10.075        0.099      334.972        5.299      868.750
11/06/2014  04:46:00      -31.256      -11.408       -4.596        7.593        7.945        5.699       57.656       63.118       32.483        0.064        0.008       33.273        3.500        0.011      335.051        5.428      868.741
11/06/2014  04:47:00      -13.331        9.856       -0.221       11.689        7.698        5.095      136.626       59.257       25.961        0.025        0.011       16.579        4.835        0.085      335.068        5.457      868.718
11/06/2014  04:48:00       53.428       30.594        3.602       15.916       12.661        8.918      253.320      160.310       79.537        0.215        0.025       61.567        6.438        0.011      335.125        5.551      868.693
11/06/2014  04:49:00        0.903        9.927       13.886       22.858       23.187       15.764      522.469      537.617      248.500        0.080        0.065        9.968        9.526        0.913      335.323        5.881      868.706
11/06/2014  04:50:00       14.737       22.300       24.427       14.934       12.181        9.070      223.010      148.388       82.272        0.088        0.023       26.729        7.925        0.088      335.347        5.919      868.733
11/06/2014  04:51:00       51.621       40.229       27.660       22.152       16.565       16.783      490.706      274.414      281.667        0.305        0.052       65.445       11.328        0.030      335.306        5.850      868.730
11/06/2014  04:52:00       59.004       10.403       15.855       37.161       20.892       19.239     1380.922      436.484      370.123        0.301        0.109       59.914       10.746        0.032      335.205        5.682      868.719
11/06/2014  04:53:00       49.974       17.252        9.479       18.302       15.595       12.436      334.948      243.205      154.649        0.181        0.037       52.868        9.218        0.030      335.212        5.696      868.733
11/06/2014  04:54:00       -5.364       -0.319        1.626       19.211       19.620        9.360      369.060      384.950       87.608        0.044        0.042        5.373       11.546        4.617      335.282        5.812      868.763
11/06/2014  04:55:00      -26.043      -24.542       -4.170       11.647       13.909        9.083      135.657      193.452       82.504        0.085        0.021       35.785        7.648        0.046      335.147        5.587      868.781
11/06/2014  04:56:00       31.748        0.122        3.684       23.886       16.934       14.948      570.534      286.760      223.429        0.105        0.054       31.748        9.791        0.095      335.377        5.969      868.777
11/06/2014  04:57:00       12.734       48.346       64.108       28.745       34.710       19.842      826.249     1204.812      393.699        0.452        0.121       49.995       24.075        0.232      335.111        5.528      868.776
11/06/2014  04:58:00       25.880       84.383       75.442       21.760       20.939       14.092      473.495      438.447      198.594        0.730        0.056       88.262       12.657        0.021      335.015        5.369      868.770
11/06/2014  04:59:00        6.590       32.022       20.377       15.935       13.024       21.062      253.930      169.617      443.628        0.118        0.043       32.693       14.652        0.201      335.185        5.650      868.778
11/06/2014  05:00:00       -8.411       13.762       -4.097       25.259       14.306       12.136      638.012      204.660      147.285        0.063        0.049       16.128       12.988        0.648      335.410        6.025      868.777
11/06/2014  05:01:00      -71.249       26.893      -15.255       14.216       19.559       11.264      202.107      382.549      126.886        0.337        0.036       76.155       10.372        0.019      335.031        5.395      868.770
11/06/2014  05:02:00      -42.871      -29.899      -10.346       18.761       17.809       10.774      351.962      317.154      116.071        0.181        0.039       52.267       10.453        0.040      334.917        5.207      868.765
11/06/2014  05:03:00      -51.720      -34.196      -21.948       24.588       20.288       16.129      604.565      411.597      260.141        0.280        0.064       62.002       14.632        0.056      334.900        5.179      868.793
11/06/2014  05:04:00      -41.492      -24.859      -10.669       36.497       23.117       18.411     1332.044      534.377      338.979        0.233        0.110       48.369       16.673        0.119      334.910        5.195      868.817
11/06/2014  05:05:00      -62.374      -22.067      -14.419       11.015       15.524       10.136      121.327      240.985      102.734        0.253        0.023       66.162        6.608        0.010      335.025        5.386      868.829
11/06/2014  05:06:00      -55.799      -31.316       -1.328       14.553       16.055        8.739      211.782      257.752       76.378        0.232        0.027       63.987        8.175        0.016      335.014        5.368      868.848
11/06/2014  05:07:00      -80.905      -52.873       -5.933       29.734       28.340       18.535      884.137      803.169      343.536        0.570        0.102       96.650       13.198        0.019      335.004        5.351      868.890
11/06/2014  05:08:00     -108.165      -75.081       -4.953       33.771       25.526       16.463     1140.449      651.592      271.023        0.971        0.103      131.669       13.123        0.010      334.995        5.335      868.921
11/06/2014  05:09:00      -47.892      -16.693        3.416       34.383       22.817       13.767     1182.179      520.633      189.522        0.224        0.095       50.718       16.517        0.106      335.020        5.378      868.938
11/06/2014  05:10:00      -10.376       20.075       -1.313       12.323       11.204        9.186      151.856      125.520       84.377        0.044        0.018       22.598        7.237        0.103      335.107        5.520      868.897
11/06/2014  05:11:00      -17.682       18.011       -5.325       10.807       14.021        6.913      116.797      196.582       47.789        0.051        0.018       25.240        5.263        0.043      335.403        6.010      868.845
11/06/2014  05:12:00      -50.693      -16.680       -6.382       27.560       14.855       10.733      759.578      220.667      115.208        0.199        0.055       53.367       12.899        0.058      335.204        5.680      868.878
11/06/2014  05:13:00      -31.250      -51.757       12.245       68.009       46.420       32.380     4625.276     2154.836     1048.461        0.582        0.391       60.459       28.383        0.220      335.107        5.524      868.940
11/06/2014  05:14:00      -94.136      -88.516       -2.016       41.275       37.232       23.668     1703.665     1386.216      560.151        1.017        0.183      129.216       22.824        0.031      335.222        5.713      868.915
11/06/2014  05:15:00      -23.049       -4.028       -1.242       31.086       20.809       10.160      966.351      432.994      103.219        0.103        0.075       23.398       11.028        0.222      335.219        5.708      868.834
11/06/2014  05:16:00      -34.951      -30.953        0.825       28.416       13.666       11.539      807.456      186.765      133.154        0.165        0.056       46.687       12.507        0.072      335.299        5.836      868.839
11/06/2014  05:17:00      -10.202      -25.781        4.336       17.590       22.018       13.862      309.408      484.794      192.159        0.089        0.049       27.727        6.533        0.056      335.270        5.791      868.880
11/06/2014  05:18:00       -3.969       28.645        7.064       13.107       13.735       10.840      171.790      188.640      117.495        0.068        0.024       28.918        4.649        0.026      335.212        5.695      868.838
11/06/2014  05:19:00       33.445       31.727        4.092       15.753        8.615        5.921      248.147       74.222       35.057        0.125        0.018       46.100        6.025        0.017      335.285        5.816      868.791
11/06/2014  05:20:00        9.625        2.388        7.576       23.534       16.068        9.493      553.865      258.181       90.114        0.053        0.045        9.917       11.285        1.295      335.244        5.748      868.806
11/06/2014  05:21:00       -4.729      -18.913        5.954       16.899       14.479       13.513      285.590      209.639      182.595        0.055        0.034       19.495        7.768        0.159      335.319        5.874      868.817
11/06/2014  05:22:00      -38.447      -14.442       -3.198       18.219       12.467       11.692      331.944      155.437      136.703        0.116        0.031       41.070       11.927        0.084      335.264        5.781      868.830
11/06/2014  05:23:00      -21.669       -5.687        4.679       15.882       12.150        9.426      252.237      147.628       88.846        0.051        0.024       22.403        4.825        0.046      335.186        5.650      868.851
11/06/2014  05:24:00        8.447       17.955       12.060       16.138       11.026       16.693      260.449      121.567      278.645        0.060        0.033       19.842        8.751        0.195      335.225        5.718      868.856
11/06/2014  05:25:00       52.182       39.253       24.134       26.490       19.201       19.557      701.713      368.674      382.495        0.315        0.073       65.297       15.526        0.057      335.226        5.718      868.851
11/06/2014  05:26:00       51.643       44.213       11.173       28.774       20.337       17.816      827.951      413.585      317.413        0.315        0.078       67.984       17.933        0.070      335.113        5.532      868.833
11/06/2014  05:27:00       72.860       63.703        4.458       27.158       26.599       18.083      737.561      707.504      326.993        0.558        0.089       96.781       13.301        0.019      335.025        5.387      868.825
11/06/2014  05:28:00       94.286       53.475        1.721       25.475       22.465       13.239      648.963      504.690      175.271        0.654        0.066      108.395       11.311        0.011      335.038        5.409      868.845
11/06/2014  05:29:00       74.002       45.504        5.120       27.154       20.361       16.417      737.326      414.585      269.510        0.450        0.071       86.873       14.141        0.026      335.046        5.422      868.873
11/06/2014  05:30:00       59.073       22.658        8.758       21.950       17.799       12.384      481.799      316.798      153.354        0.252        0.048       63.269       10.930        0.030      335.040        5.411      868.893
11/06/2014  05:31:00       62.437       28.809       -4.769       20.250       12.505       12.175      410.051      156.381      148.221        0.273        0.036       68.762        9.712        0.020      335.123        5.549      868.928
11/06/2014  05:32:00       67.883       26.427        3.318       16.544       13.031       13.794      273.713      169.815      190.270        0.298        0.032       72.845        9.733        0.018      335.239        5.739      868.957
11/06/2014  05:33:00       57.368       14.315        6.347       18.244       20.421       12.253      332.850      417.007      150.134        0.222        0.045       59.127        5.892        0.010      335.119        5.541      868.985
11/06/2014  05:34:00       44.134       23.298       16.762       15.415       12.769       15.399      237.637      163.055      237.125        0.170        0.032       49.906        6.850        0.019      335.155        5.601      869.014
11/06/2014  05:35:00       43.669       11.638        5.876       18.422       11.110        9.610      339.359      123.428       92.352        0.132        0.028       45.193        6.223        0.019      335.223        5.713      869.008
11/06/2014  05:36:00       66.180       26.931       18.206       24.566       18.698       17.025      603.480      349.632      289.849        0.334        0.062       71.450       11.752        0.027      335.239        5.739      868.980
11/06/2014  05:37:00        3.221        4.183       10.555       18.486       17.193       14.280      341.715      295.615      203.933        0.049        0.042        5.279        9.620        3.321      335.214        5.697      869.004
11/06/2014  05:38:00        1.114        8.648       10.281        7.853       22.582        6.824       61.668      509.952       46.569        0.040        0.031        8.720        8.847        1.029      335.234        5.731      869.020
11/06/2014  05:39:00        4.934       60.760        0.269       10.599        9.304       12.739      112.344       86.559      162.281        0.204        0.018       60.961        5.891        0.009      335.388        5.990      869.028
11/06/2014  05:40:00       11.414       21.159       -0.376       14.854       20.189        7.951      220.630      407.596       63.222        0.063        0.035       24.042        8.064        0.113      335.313        5.864      869.066
11/06/2014  05:41:00       -2.865      -27.803       -7.638       15.451       17.632       12.830      238.727      310.870      164.604        0.078        0.036       27.950        7.194        0.066      335.218        5.703      869.124
11/06/2014  05:42:00      -27.917      -26.758        3.620       40.778       31.226       13.403     1662.859      975.036      179.652        0.216        0.141       38.670       13.858        0.128      335.095        5.502      869.143
11/06/2014  05:43:00      -62.998      -25.996       -1.535       36.061       21.202       13.698     1300.373      449.537      187.648        0.329        0.097       68.150        7.091        0.011      335.076        5.471      869.107
11/06/2014  05:44:00        4.605       -2.878        9.631        8.858        5.992        6.296       78.465       35.901       39.636        0.014        0.008        5.430        2.337        0.185      334.976        5.305      869.078
11/06/2014  05:45:00      -24.072       -5.261       -3.531       24.927       12.403        7.234      621.332      153.830       52.325        0.072        0.041       24.641        9.805        0.158      334.913        5.198      869.085
11/06/2014  05:46:00      -74.994        4.493       -8.277       15.270       17.253       11.143      233.175      297.676      124.165        0.318        0.033       75.128        7.501        0.010      334.978        5.308      869.094
11/06/2014  05:47:00      -37.919       -3.619       -7.021       20.810       12.244        8.371      433.048      149.904       70.071        0.108        0.033       38.092        9.211        0.058      334.960        5.278      869.102
11/06/2014  05:48:00      -12.690      -36.274        0.670       18.090       14.127        9.187      327.247      199.559       84.408        0.104        0.031       38.429        6.454        0.028      335.122        5.546      869.133
11/06/2014  05:49:00      -77.920      -32.379       -0.329       48.838       22.627       19.719     2385.129      511.984      388.848        0.520        0.164       84.380       23.219        0.076      335.027        5.390      869.150
11/06/2014  05:50:00     -111.252        2.834       -8.092       35.011       23.358       20.145     1225.741      545.607      405.807        0.731        0.109      111.288       18.969        0.029      335.018        5.375      869.145
11/06/2014  05:51:00     -101.907       26.730      -12.616       30.013       19.913       15.063      900.770      396.540      226.900        0.639        0.076      105.354       15.699        0.022      335.034        5.401      869.144
11/06/2014  05:52:00     -124.477       24.133      -11.225       56.409       30.702       22.387     3182.007      942.587      501.167        1.041        0.231      126.795       13.318        0.011      335.037        5.405      869.151
11/06/2014  05:53:00     -155.555       40.897      -13.870       53.199       37.280       23.063     2830.119     1389.785      531.897        1.541        0.238      160.842       22.553        0.020      334.936        5.237      869.144
11/06/2014  05:54:00     -136.023       48.490      -13.587       43.730       24.127       23.085     1912.346      582.122      532.911        1.203        0.151      144.408       14.800        0.011      335.017        5.373      869.107
11/06/2014  05:55:00      -79.859       35.895       -5.577       25.285       19.521       15.269      639.333      381.056      233.156        0.448        0.063       87.555       12.194        0.019      335.115        5.535      869.061
11/06/2014  05:56:00      -45.071      -21.810       -6.280       22.917       15.703       12.201      525.202      246.574      148.868        0.173        0.046       50.071       10.613        0.045      335.112        5.529      869.026
11/06/2014  05:57:00      -75.182       -7.523      -12.987       17.455       18.984       14.044      304.675      360.406      197.239        0.337        0.043       75.557        8.118        0.012      335.032        5.398      868.988
11/06/2014  05:58:00      -20.984      -30.611      -11.967       27.610       26.356       15.056      762.305      694.642      226.673        0.160        0.084       37.113       16.953        0.209      335.005        5.352      868.955
11/06/2014  05:59:00        7.528        6.095       40.520       21.459       25.581       19.316      460.477      654.407      373.110        0.161        0.074        9.686        8.193        0.715      335.043        5.416      868.929
11/06/2014  06:00:00        1.400      -29.686       23.924       34.790       48.027       31.389     1210.313     2306.565      985.291        0.298        0.225       29.719       21.114        0.505      335.067        5.456      868.909
11/06/2014  06:01:00      -27.458      -20.958       -0.607       48.605       36.082       26.623     2362.421     1301.929      708.794        0.278        0.219       34.542       21.030        0.371      335.156        5.601      868.883
11/06/2014  06:02:00     -106.078      -15.080       -7.581       46.320       29.355       20.006     2145.571      861.704      400.233        0.747        0.170      107.144       20.272        0.036      334.845        5.086      868.857
11/06/2014  06:03:00      -76.067      -59.599        3.886       83.887       29.129       25.917     7036.972      848.503      671.668        0.895        0.428       96.634       37.560        0.151      334.839        5.078      868.872
11/06/2014  06:04:00      -24.555      -61.572        8.544       31.249       50.072       21.990      976.480     2507.243      483.566        0.422        0.198       66.288       18.550        0.078      334.992        5.330      868.915
11/06/2014  06:05:00      -43.526      -64.698        6.086       38.408       61.943       24.129     1475.187     3836.991      582.187        0.600        0.295       77.976       33.015        0.179      335.208        5.689      868.930
11/06/2014  06:06:00      -78.726       28.773        6.275       28.452       21.676       19.728      809.521      469.849      389.190        0.437        0.083       83.820       16.077        0.037      335.280        5.808      868.922
11/06/2014  06:07:00     -156.176       11.978      -16.051       41.752       36.298       23.976     1743.261     1317.539      574.835        1.421        0.182      156.635       20.994        0.018      335.084        5.483      868.924
11/06/2014  06:08:00     -202.493      -41.635       -6.557       69.827       62.058       40.328     4875.827     3851.254     1626.317        2.656        0.518      206.729       37.436        0.033      334.793        4.998      869.003
11/06/2014  06:09:00     -190.302      -91.715       -8.395       85.399       68.707       36.556     7292.940     4720.681     1336.330        2.902        0.667      211.250       37.926        0.032      334.816        5.034      869.080
11/06/2014  06:10:00     -104.024      -61.632        0.272       41.803       46.948       27.839     1747.451     2204.149      774.987        0.967        0.236      120.911       24.633        0.042      334.826        5.055      869.071
11/06/2014  06:11:00      -60.993      -15.162        2.955       44.920       32.808       21.797     2017.794     1076.391      475.099        0.376        0.178       62.849       26.390        0.176      334.865        5.121      869.041
11/06/2014  06:12:00       -6.101      -42.853        7.494       21.696       18.164       21.653      470.724      329.943      468.861        0.160        0.063       43.285       15.027        0.121      334.947        5.257      869.050
11/06/2014  06:13:00        2.142      -50.634       -6.416       11.398       11.975        9.949      129.914      143.411       98.983        0.149        0.019       50.680        6.009        0.014      335.090        5.492      869.051
11/06/2014  06:14:00        8.102      -44.870        0.891       24.006       19.651       11.074      576.301      386.173      122.640        0.158        0.054       45.595       12.079        0.070      335.157        5.604      869.018
11/06/2014  06:15:00      -11.780      -37.165        9.655       11.934       15.510       12.389      142.425      240.563      153.487        0.107        0.027       38.987        8.874        0.052      335.284        5.815      868.981
11/06/2014  06:16:00        5.887       28.283       39.394       16.361       13.915       10.136      267.688      193.641      102.734        0.148        0.028       28.890        8.706        0.091      334.982        5.314      868.941
11/06/2014  06:17:00        6.809       32.656       37.739       13.114       19.957       14.209      171.968      398.286      201.908        0.165        0.039       33.358       14.814        0.197      335.072        5.464      868.917
11/06/2014  06:18:00      -27.018        9.915        1.809       26.626        9.273       12.253      708.959       85.988      150.131        0.089        0.047       28.780       16.643        0.334      335.100        5.510      868.921
11/06/2014  06:19:00     -112.063       -7.435      -16.600       23.446       24.517       11.214      549.721      601.101      125.758        0.708        0.064      112.309        3.272        0.001      334.924        5.218      868.949
11/06/2014  06:20:00     -112.613      -24.483      -10.707       19.343       15.265       11.433      374.158      233.009      130.707        0.707        0.037      115.244        7.964        0.005      334.906        5.188      869.005
11/06/2014  06:21:00      -86.731      -17.069       -5.577       27.959       17.134       15.920      781.722      293.580      253.449        0.459        0.066       88.394       14.669        0.028      334.823        5.049      869.038
11/06/2014  06:22:00     -113.913      -25.384       -6.513       23.904       22.384       17.568      571.391      501.040      308.650        0.752        0.069      116.707       14.695        0.016      334.775        4.970      869.048
11/06/2014  06:23:00     -102.913      -27.660       -3.192       38.624       29.682       22.076     1491.820      881.010      487.329        0.711        0.143      106.566       19.284        0.033      334.740        4.914      869.044
11/06/2014  06:24:00      -38.227       -6.712       -0.705       22.386       31.815       14.455      501.123     1012.212      208.955        0.161        0.086       38.812       12.536        0.104      334.664        4.788      869.024
11/06/2014  06:25:00      -40.463      -19.288       -8.140       20.344       18.000       11.666      413.887      324.006      136.098        0.147        0.044       44.825       12.000        0.072      334.767        4.957      869.015
11/06/2014  06:26:00      -59.886      -48.616       -6.244       36.021       21.564       17.734     1297.512      465.013      314.483        0.403        0.104       77.136       18.992        0.061      334.835        5.069      869.052
11/06/2014  06:27:00      -72.659      -50.664        2.488       55.586       41.780       23.360     3089.839     1745.543      545.682        0.662        0.269       88.579       23.753        0.072      334.741        4.912      869.098
11/06/2014  06:28:00     -138.543      -38.530       -9.402       32.109       27.800       18.457     1031.006      772.813      340.654        1.146        0.107      143.801       15.127        0.011      334.708        4.858      869.111
11/06/2014  06:29:00      -84.386       -2.310       -3.470       35.299       24.031       14.725     1246.050      577.486      216.825        0.459        0.102       84.417       15.882        0.035      334.734        4.901      869.095
11/06/2014  06:30:00      -54.168      -28.224        3.833       27.792       17.659       15.754      772.372      311.835      248.202        0.254        0.067       61.080       13.480        0.049      334.774        4.969      869.058
11/06/2014  06:31:00      -21.212      -28.500        4.147       22.491       18.195       13.596      505.827      331.064      184.849        0.115        0.051       35.528       11.344        0.102      334.994        5.333      869.016
11/06/2014  06:32:00       -9.581      -18.500        7.372       10.141       19.697       13.123      102.841      387.982      172.209        0.058        0.033       20.834        6.618        0.101      335.066        5.454      868.941
11/06/2014  06:33:00       -4.712       -9.547        1.170       13.923       12.189        6.960      193.854      148.570       48.440        0.025        0.020       10.646        7.123        0.448      335.026        5.387      868.865
11/06/2014  06:34:00      -14.139      -23.024        1.359       18.412       10.058        8.083      338.984      101.164       65.330        0.062        0.025       27.019        5.100        0.036      335.108        5.523      868.844
11/06/2014  06:35:00       -8.338      -20.105       -1.314       19.317       10.238       11.185      373.158      104.808      125.102        0.054        0.030       21.766       10.624        0.238      335.073        5.465      868.853
11/06/2014  06:36:00        8.926      -12.429       -5.904        7.751       11.264        7.606       60.080      126.876       57.855        0.026        0.012       15.302        3.735        0.060      335.072        5.463      868.847
11/06/2014  06:37:00      -18.607       20.129        4.790       17.968       19.294       14.903      322.836      372.253      222.090        0.085        0.046       27.412        7.396        0.073      335.170        5.626      868.818
11/06/2014  06:38:00      -25.471       -7.873        2.537       24.945       22.985       12.486      622.247      528.310      155.901        0.101        0.065       26.660       15.993        0.360      335.200        5.676      868.837
11/06/2014  06:39:00     -101.313      -46.464       -5.719       31.058       28.060       17.272      964.622      787.377      298.322        0.725        0.103      111.459        9.743        0.008      334.941        5.244      868.913
11/06/2014  06:40:00     -131.208      -60.360        2.695       42.921       29.719       20.852     1842.248      883.236      434.811        1.201        0.158      144.426       22.362        0.024      334.858        5.107      868.984
11/06/2014  06:41:00     -102.953      -56.302       -1.860       29.845       32.413       18.124      890.721     1050.582      328.485        0.802        0.113      117.342       18.421        0.025      334.911        5.198      869.023
11/06/2014  06:42:00      -84.678      -23.654       -4.933       39.646       37.349       22.369     1571.832     1394.945      500.366        0.561        0.173       87.919       21.537        0.060      334.884        5.151      868.997
11/06/2014  06:43:00     -103.407      -50.722        0.828       61.723       37.724       24.939     3809.738     1423.116      621.958        0.956        0.293      115.177       27.654        0.058      334.783        4.984      869.006
11/06/2014  06:44:00     -122.908      -96.717      -13.059       37.086       38.766       22.627     1375.382     1502.820      511.988        1.401        0.170      156.399       18.181        0.014      334.846        5.089      869.004
11/06/2014  06:45:00     -151.158      -84.367       -4.072       51.009       33.863       23.038     2601.914     1146.697      530.740        1.713        0.214      173.108       23.788        0.019      334.795        5.001      868.963
11/06/2014  06:46:00      -94.379      -13.334      -10.279       29.916       60.259       14.754      894.979     3631.172      217.693        0.697        0.237       95.316       10.818        0.013      334.784        4.985      868.910
11/06/2014  06:47:00      -23.559       21.756       -2.699       21.273       23.780       22.086      452.533      565.468      487.807        0.127        0.075       32.068       17.354        0.293      334.861        5.112      868.856
11/06/2014  06:48:00        5.900       33.334        0.119        8.675       22.795       13.981       75.255      519.590      195.466        0.097        0.040       33.852       15.076        0.198      334.841        5.080      868.804
11/06/2014  06:49:00       11.674       70.175       -9.222       13.748       17.339       11.017      189.010      300.628      121.372        0.288        0.031       71.139       10.012        0.020      334.851        5.096      868.729
11/06/2014  06:50:00      -32.787        8.925       -2.946       21.154       21.979       13.724      447.484      483.092      188.338        0.114        0.056       33.980       14.068        0.171      334.848        5.092      868.693
11/06/2014  06:51:00      -27.219        3.087       -4.893        9.121       10.384       11.963       83.188      107.827      143.107        0.055        0.017       27.393        4.657        0.029      334.820        5.045      868.688
11/06/2014  06:52:00       -0.815       15.801        7.465       20.947       10.055        9.981      438.776      101.106       99.612        0.047        0.032       15.822       12.895        0.664      334.794        5.001      868.706
11/06/2014  06:53:00       46.993       34.556       -1.511       21.227       16.695       16.523      450.566      278.731      272.999        0.220        0.050       58.330        8.816        0.023      334.857        5.106      868.749
11/06/2014  06:54:00        3.281       19.508       -4.668       14.633        9.082        7.986      214.119       82.487       63.770        0.039        0.018       19.782        6.518        0.109      334.826        5.055      868.837
11/06/2014  06:55:00      -55.272       -5.010       -8.470       26.008       10.473        7.271      676.408      109.693       52.865        0.200        0.042       55.499        4.100        0.005      334.813        5.036      868.957
11/06/2014  06:56:00      -93.174      -49.983      -10.281       21.271       16.580       13.242      452.444      274.911      175.348        0.609        0.045      105.734        3.720        0.001      334.829        5.060      869.009
11/06/2014  06:57:00      -68.548      -38.705      -11.252       16.360       13.512        8.974      267.641      182.578       80.524        0.343        0.027       78.721        7.023        0.008      334.815        5.036      868.966
11/06/2014  06:58:00       -8.806       -6.516       -5.724       18.950       16.010        9.458      359.104      256.316       89.447        0.043        0.035       10.954       10.809        0.974      334.895        5.169      868.878
11/06/2014  06:59:00      -45.591        3.144       -5.362       11.382        5.613        7.366      129.544       31.502       54.265        0.117        0.011       45.699        4.758        0.011      334.879        5.144      868.785
11/06/2014  07:00:00      -80.636       -3.470       -9.141       10.719       11.337        9.818      114.890      128.531       96.384        0.347        0.017       80.710        4.270        0.003      334.903        5.185      868.750
11/06/2014  07:01:00     -118.200      -28.973      -15.542       24.674       13.229        8.949      608.819      174.997       80.089        0.796        0.043      121.699       10.014        0.007      334.870        5.128      868.786
11/06/2014  07:02:00     -145.184      -67.540      -13.966       23.561       29.385       16.307      555.135      863.493      265.921        1.376        0.084      160.125       10.305        0.004      334.864        5.117      868.837
11/06/2014  07:03:00     -163.674      -71.690       -9.402       30.610       26.462       17.820      936.966      700.262      317.565        1.699        0.098      178.686       15.476        0.008      334.903        5.183      868.895
11/06/2014  07:04:00     -115.505        6.463       -9.776       40.730       32.215       20.029     1658.946     1037.778      401.141        0.829        0.155      115.685       20.992        0.033      334.893        5.167      868.926
11/06/2014  07:05:00     -144.278       29.966      -10.572       28.696       22.906       13.370      823.449      524.689      178.747        1.168        0.076      147.357        9.924        0.005      334.909        5.193      868.912
11/06/2014  07:06:00     -116.929      -25.489       -8.362       40.924       31.123       20.828     1674.752      968.616      433.812        0.873        0.154      119.675       16.083        0.018      334.947        5.255      868.881
11/06/2014  07:07:00      -47.996       18.020       -9.113       31.451       42.542       21.392      989.191     1809.818      457.617        0.298        0.163       51.268       22.580        0.194      335.058        5.440      868.811
11/06/2014  07:08:00      -25.957       57.704      -13.621       32.024       40.573       17.865     1025.553     1646.195      319.161        0.359        0.150       63.274       20.143        0.101      335.369        5.956      868.742
11/06/2014  07:09:00      -70.784       -4.817       -3.772       43.566       27.041       18.351     1897.963      731.205      336.764        0.401        0.148       70.948       17.060        0.058      335.324        5.881      868.746
11/06/2014  07:10:00     -111.738      -27.168       -9.046       21.635       32.933       13.505      468.069     1084.560      182.392        0.752        0.087      114.993        8.010        0.005      335.298        5.838      868.807
11/06/2014  07:11:00     -134.963      -42.948       -4.706       28.324       32.062       21.247      802.235     1027.988      451.441        1.118        0.114      141.632       10.202        0.005      335.197        5.670      868.861
11/06/2014  07:12:00     -120.239        6.732      -13.607       26.750       33.583       19.760      715.538     1127.844      390.451        0.846        0.112      120.428       11.941        0.010      335.127        5.556      868.871
11/06/2014  07:13:00     -103.778       41.415      -11.752       37.508       23.298       15.797     1406.875      542.817      249.532        0.741        0.110      111.737       15.156        0.018      335.183        5.647      868.826
11/06/2014  07:14:00      -69.808       27.540      -18.393       23.962       41.881       17.093      574.183     1754.029      292.182        0.429        0.131       75.044       21.372        0.081      335.486        6.151      868.813
11/06/2014  07:15:00      -82.576       10.955      -12.564       21.011       38.467       17.483      441.449     1479.672      305.662        0.466        0.111       83.300       17.551        0.044      335.623        6.382      868.835
11/06/2014  07:16:00     -135.831      -56.861       -9.851       31.874       20.914       17.185     1015.953      437.402      295.339        1.176        0.087      147.252       13.305        0.008      335.397        6.004      868.863
11/06/2014  07:17:00     -158.513      -50.777      -15.485       27.447       30.125       20.880      753.316      907.502      435.965        1.502        0.105      166.448       17.224        0.011      335.386        5.984      868.902
11/06/2014  07:18:00     -152.782      -52.791      -16.867       26.735       16.476       17.079      714.769      271.453      291.697        1.385        0.064      161.645        5.122        0.001      335.472        6.128      868.922
11/06/2014  07:19:00     -146.528      -24.456      -20.312       41.036       32.644       24.868     1683.986     1065.640      618.393        1.292        0.168      148.555       20.539        0.019      335.461        6.110      868.967
11/06/2014  07:20:00     -145.857       16.988      -17.843       43.040       38.403       24.424     1852.444     1474.781      596.536        1.290        0.196      146.843       15.328        0.011      335.543        6.248      869.017
11/06/2014  07:21:00     -143.197       12.212      -15.916       41.613       41.873       29.567     1731.678     1753.333      874.234        1.263        0.218      143.717       22.471        0.024      335.618        6.373      869.040
11/06/2014  07:22:00     -119.344       26.204       -6.925       32.723       31.390       22.765     1070.778      985.353      518.239        0.878        0.129      122.187       19.526        0.026      335.715        6.534      869.028
11/06/2014  07:23:00      -54.255        6.521       -3.410       27.597       27.923       13.391      761.614      779.670      179.310        0.236        0.086       54.646        7.836        0.021      335.828        6.723      869.004
11/06/2014  07:24:00      -35.076      -17.060        4.045       17.253       16.608       16.746      297.671      275.834      280.412        0.120        0.043       39.005        9.305        0.057      335.907        6.853      868.993
11/06/2014  07:25:00      -49.619      -14.552      -10.473       16.689       14.742       13.648      278.521      217.315      186.261        0.173        0.034       51.709        8.983        0.030      336.051        7.094      869.010
11/06/2014  07:26:00      -21.407       24.204       -2.406       15.650       13.259       10.992      244.918      175.805      120.817        0.080        0.027       32.312        8.196        0.064      336.193        7.330      868.983
11/06/2014  07:27:00       22.672       21.539       13.323       18.897       17.180       14.276      357.111      295.139      203.802        0.101        0.043       31.272       12.983        0.172      336.392        7.663      868.939
11/06/2014  07:28:00       80.148       53.304        9.386       30.068       27.289       25.746      904.108      744.709      662.844        0.583        0.116       96.255       15.142        0.025      336.315        7.534      868.894
11/06/2014  07:29:00       52.038       69.858       51.730       37.015       44.025       31.886     1370.077     1938.233     1016.714        0.729        0.216       87.109       28.644        0.108      336.351        7.594      868.891
11/06/2014  07:30:00       67.798       37.485       11.634       41.393       43.519       30.883     1713.359     1893.868      953.757        0.535        0.228       77.470       28.077        0.131      336.452        7.763      868.898
11/06/2014  07:31:00       59.292       38.268        6.469       31.534       25.521       16.389      994.418      651.301      268.587        0.347        0.096       70.569        9.016        0.016      336.450        7.759      868.963
11/06/2014  07:32:00       31.696        8.343       -0.718       27.767       21.454       21.051      771.005      460.258      443.139        0.137        0.084       32.776       18.827        0.330      336.555        7.936      869.074
11/06/2014  07:33:00      -43.251      -10.592       -4.277       16.938       14.952       16.991      286.903      223.575      288.685        0.140        0.040       44.529       13.049        0.086      336.458        7.772      869.171
11/06/2014  07:34:00     -100.370      -17.601       -4.627       31.419       29.870       15.159      987.139      892.235      229.801        0.626        0.105      101.901       15.016        0.022      336.354        7.598      869.208
11/06/2014  07:35:00      -55.484       -6.561       -9.006       23.699       26.706        9.349      561.644      713.190       87.406        0.228        0.068       55.870        4.720        0.007      336.411        7.693      869.199
11/06/2014  07:36:00      -40.103       19.517       -4.401       14.889       13.209       12.217      221.696      174.486      149.246        0.128        0.027       44.600        6.688        0.022      336.440        7.745      869.174
11/06/2014  07:37:00      -48.942       -8.226       -8.356       14.030       14.479       12.096      196.837      209.641      146.305        0.154        0.028       49.628       10.035        0.041      336.516        7.870      869.174
11/06/2014  07:38:00      -19.245       -4.407        3.013       18.440       14.265       13.477      340.048      203.501      181.621        0.056        0.036       19.743       12.939        0.430      336.713        8.200      869.149
11/06/2014  07:39:00      -41.463      -20.819       -2.187       20.357       17.827       10.278      414.428      317.789      105.646        0.150        0.042       46.397       10.272        0.049      336.601        8.014      869.127
11/06/2014  07:40:00     -100.525      -45.333       -6.852       23.946       19.500       12.423      573.398      380.253      154.340        0.666        0.055      110.274        7.628        0.005      336.582        7.983      869.146
11/06/2014  07:41:00      -85.111       -7.330       -6.372       51.831       30.525       18.034     2686.480      931.793      325.218        0.564        0.197       85.426       19.297        0.051      336.607        8.022      869.184
11/06/2014  07:42:00      -90.983       21.646      -16.435       26.552       20.225       11.413      704.996      409.066      130.253        0.513        0.062       93.522        7.365        0.006      336.611        8.031      869.187
11/06/2014  07:43:00      -58.529      -29.208       -2.523       25.706       40.690       16.151      660.796     1655.664      260.846        0.343        0.129       65.412       14.236        0.047      336.677        8.139      869.185
11/06/2014  07:44:00       -2.044      -11.360       15.641       35.994       26.867       25.687     1295.586      721.846      659.814        0.153        0.134       11.542       23.420        4.117      336.913        8.533      869.204
11/06/2014  07:45:00      -97.094      -52.252       -7.045       52.955       30.048       19.281     2804.193      902.897      371.769        0.814        0.204      110.261       19.080        0.030      336.834        8.403      869.253
11/06/2014  07:46:00      -88.233      -24.008        3.267       39.624       28.680       20.343     1570.078      822.549      413.844        0.559        0.140       91.440       19.502        0.045      336.840        8.411      869.272
11/06/2014  07:47:00      -63.861       -9.815        5.342       52.355       20.616       15.265     2741.080      425.031      233.019        0.380        0.170       64.611       18.622        0.083      336.963        8.619      869.251
11/06/2014  07:48:00       -1.939      -14.613        8.616       10.869       13.254       10.153      118.142      175.665      103.085        0.034        0.020       14.741        6.750        0.210      337.155        8.938      869.237
11/06/2014  07:49:00        4.244       -5.021       12.717        8.696        8.445        6.083       75.614       71.325       37.001        0.019        0.009        6.574        4.903        0.556      337.504        9.523      869.258
11/06/2014  07:50:00      -13.389      -44.332       -3.922       25.146       20.458       21.174      632.340      418.523      448.359        0.183        0.075       46.310       11.448        0.061      337.128        8.892      869.280
11/06/2014  07:51:00      -12.621      -29.885        5.040       30.565       18.601       20.375      934.227      345.998      415.145        0.139        0.085       32.441       12.668        0.152      337.253        9.102      869.275
11/06/2014  07:52:00       -4.964      -19.958        8.559       14.172       13.459        8.527      200.849      181.140       72.715        0.048        0.023       20.566        5.591        0.074      337.445        9.424      869.245
11/06/2014  07:53:00      -33.876      -31.929       -3.465       17.025       12.905       12.292      289.864      166.540      151.091        0.139        0.030       46.552       10.040        0.047      337.264        9.123      869.220
11/06/2014  07:54:00      -33.371      -10.533       -1.850        8.034        9.182        7.197       64.545       84.313       51.795        0.071        0.010       34.994        2.017        0.003      337.279        9.148      869.219
11/06/2014  07:55:00       -5.460       -5.401        1.620        5.753        6.691        6.112       33.096       44.766       37.351        0.009        0.006        7.680        4.504        0.344      337.672        9.804      869.228
11/06/2014  07:56:00      -14.244       -0.825        6.348       12.039       15.054       12.637      144.939      226.628      159.693        0.039        0.027       14.268        9.971        0.488      337.547        9.595      869.224
11/06/2014  07:57:00       12.913       17.826       39.426       28.370       29.709       23.654      804.844      882.629      559.494        0.214        0.112       22.011       20.746        0.888      337.723        9.891      869.191
11/06/2014  07:58:00       70.115       84.093       63.771       48.620       34.326       33.115     2363.929     1178.266     1096.635        1.035        0.232      109.489       20.155        0.034      337.529        9.564      869.152
11/06/2014  07:59:00       43.460       74.504       72.858       36.357       34.364       22.035     1321.851     1180.891      485.524        0.787        0.149       86.254       16.909        0.038      337.543        9.589      869.163
11/06/2014  08:00:00       18.516       28.016       44.672       27.654       30.141       17.566      764.727      908.506      308.547        0.255        0.099       33.582       17.200        0.262      337.731        9.903      869.211
11/06/2014  08:01:00       21.510        7.267       30.205       30.444       17.018       18.895      926.846      289.615      357.007        0.150        0.079       22.704       16.370        0.520      337.864       10.126      869.259
11/06/2014  08:02:00       30.408      -44.137        0.436       30.946       52.070       32.273      957.667     2711.282     1041.548        0.379        0.236       53.598       32.465        0.367      337.958       10.283      869.277
11/06/2014  08:03:00       22.979        5.135       33.964       28.522       51.380       37.866      813.482     2639.913     1433.835        0.330        0.244       23.546       37.778        2.574      337.841       10.089      869.269
11/06/2014  08:04:00       52.817       57.953       55.448       34.749       27.964       21.265     1207.484      781.993      452.188        0.583        0.122       78.411       14.147        0.033      337.730        9.901      869.232
11/06/2014  08:05:00       23.083      111.291      118.038       48.906       50.985       36.467     2391.797     2599.462     1329.815        1.659        0.316      113.660       29.826        0.069      337.787        9.997      869.159
11/06/2014  08:06:00       85.122      139.465      116.491       87.185       72.385       52.060     7601.246     5239.543     2710.228        2.791        0.778      163.389       49.918        0.093      337.624        9.721      869.112
11/06/2014  08:07:00      107.953       87.968      117.241       80.109       79.507       58.116     6417.513     6321.413     3377.450        2.462        0.806      139.256       62.075        0.199      337.371        9.299      869.095
11/06/2014  08:08:00       66.774       91.490       91.361       45.739       52.407       39.146     2092.046     2746.456     1532.398        1.377        0.319      113.266       26.901        0.056      337.424        9.388      869.146
11/06/2014  08:09:00       43.815       28.515       54.476       44.038       37.323       26.735     1939.352     1392.989      714.767        0.487        0.202       52.277       24.512        0.220      337.539        9.581      869.204
11/06/2014  08:10:00      108.230       34.241       13.873       57.254       47.190       44.381     3277.993     2226.896     1969.700        1.028        0.374      113.517       29.043        0.065      337.239        9.080      869.214
11/06/2014  08:11:00       82.224       43.643       31.010       63.382       46.575       46.274     4017.258     2169.199     2141.274        0.898        0.416       93.089       39.159        0.177      337.426        9.392      869.197
11/06/2014  08:12:00      117.405       88.438       24.835       59.195       46.988       38.081     3504.097     2207.837     1450.150        1.469        0.358      146.987       19.513        0.018      337.249        9.096      869.185
11/06/2014  08:13:00       75.378       41.158       15.528       52.757       32.871       35.452     2783.251     1080.482     1256.823        0.637        0.256       85.883       20.166        0.055      337.294        9.173      869.174
11/06/2014  08:14:00       75.580       44.488       10.352       47.837       27.319       24.844     2288.398      746.302      617.210        0.572        0.183       87.702        8.517        0.009      337.235        9.071      869.183
11/06/2014  08:15:00       91.051       47.541        9.648       47.717       27.923       33.299     2276.914      779.712     1108.807        0.740        0.208      102.715       24.971        0.059      337.256        9.107      869.208
11/06/2014  08:16:00      141.691       86.171       22.656       35.404       36.383       29.870     1253.433     1323.751      892.190        1.574        0.173      165.836       17.832        0.012      337.165        8.954      869.205
11/06/2014  08:17:00      121.903       59.391       30.149       51.577       40.225       43.689     2660.208     1618.024     1908.754        1.274        0.309      135.601       32.774        0.058      337.218        9.044      869.214
11/06/2014  08:18:00       54.766       47.556       31.632       55.683       34.558       30.275     3100.648     1194.237      916.561        0.574        0.261       72.532       32.485        0.201      337.274        9.139      869.243
11/06/2014  08:19:00       30.338       17.301       67.121       45.969       69.047       41.577     2113.103     4767.442     1728.652        0.717        0.430       34.925       49.351        1.997      337.492        9.504      869.252
11/06/2014  08:20:00      124.639      -30.902       26.878       60.585       65.301       45.842     3670.520     4264.280     2101.519        1.362        0.502      128.413       44.381        0.119      337.332        9.235      869.245
11/06/2014  08:21:00       47.156       62.882       71.931       58.201       34.310       26.723     3387.364     1177.143      714.145        0.831        0.264       78.600       28.968        0.136      337.365        9.290      869.230
11/06/2014  08:22:00       77.940      102.607       83.744       54.076       43.055       44.708     2924.250     1853.760     1998.834        1.519        0.339      128.852       42.423        0.108      337.178        8.976      869.220
11/06/2014  08:23:00       81.175       61.812       47.998       64.276       37.216       42.864     4131.355     1385.028     1837.306        1.003        0.368      102.030       40.421        0.157      337.151        8.931      869.233
11/06/2014  08:24:00       26.683       12.941       54.141       42.943       41.502       27.643     1844.144     1722.375      764.133        0.407        0.217       29.656       30.076        1.029      337.379        9.313      869.271
11/06/2014  08:25:00       41.153        5.526       32.838       39.279       44.722       29.454     1542.876     2000.091      867.568        0.361        0.221       41.522       30.843        0.552      337.316        9.208      869.332
11/06/2014  08:26:00       33.422      -11.700       18.778       32.907       36.216       23.975     1082.873     1311.626      574.783        0.229        0.148       35.411       15.439        0.190      337.400        9.350      869.363
11/06/2014  08:27:00       26.471       72.343       73.837       47.615       55.363       52.430     2267.143     3065.115     2748.891        0.973        0.404       77.034       42.307        0.302      337.411        9.367      869.331
11/06/2014  08:28:00      103.009       90.065       69.843       59.741       44.592       54.306     3569.039     1988.483     2949.095        1.605        0.425      136.830       42.709        0.097      337.209        9.028      869.248
11/06/2014  08:29:00      149.254      135.644       79.145       76.069       49.591       54.114     5786.552     2459.305     2928.303        2.905        0.559      201.683       36.157        0.032      337.149        8.926      869.193
11/06/2014  08:30:00       69.010       76.348       93.334       60.470       59.713       44.608     3656.591     3565.674     1989.847        1.426        0.461      102.914       43.618        0.180      337.199        9.012      869.195
11/06/2014  08:31:00       69.477       67.378       67.927       52.636       35.959       32.928     2770.571     1293.078     1084.225        0.956        0.257       96.782       29.588        0.093      337.254        9.104      869.221
11/06/2014  08:32:00      125.821       53.691       68.966       62.371       60.917       44.104     3890.150     3710.851     1945.192        1.651        0.477      136.797       37.255        0.074      337.145        8.922      869.233
11/06/2014  08:33:00       47.068       86.068       81.415       70.565       76.237       57.454     4979.477     5812.154     3300.955        1.517        0.705       98.097       58.442        0.355      337.213        9.034      869.185
11/06/2014  08:34:00      147.635      105.039       44.474       58.445       51.688       54.338     3415.830     2671.634     2952.620        2.192        0.452      181.188       37.989        0.044      337.105        8.853      869.134
11/06/2014  08:35:00       97.189       55.357       33.709       79.522       47.979       49.492     6323.681     2301.996     2449.455        1.236        0.554      111.848       44.196        0.156      337.168        8.958      869.131
11/06/2014  08:36:00       85.482       51.723       47.638       62.187       52.282       41.620     3867.206     2733.422     1732.245        1.029        0.417       99.912       37.783        0.143      337.225        9.056      869.167
11/06/2014  08:37:00       29.185       53.674       68.770       59.076       45.372       36.696     3490.000     2058.659     1346.613        0.768        0.345       61.096       33.038        0.292      337.393        9.336      869.216
11/06/2014  08:38:00       -2.354        8.788       38.426       17.239       22.523       14.031      297.185      507.264      196.855        0.128        0.050        9.098        4.294        0.223      337.478        9.479      869.287
11/06/2014  08:39:00       11.572      -32.132        6.429       18.544       23.167       17.282      343.862      536.709      298.682        0.119        0.059       34.152       12.394        0.132      337.511        9.535      869.345
11/06/2014  08:40:00      -22.775       -3.712       19.057       13.493       32.352       19.783      182.068     1046.663      391.350        0.126        0.081       23.076       21.082        0.835      337.489        9.497      869.345
11/06/2014  08:41:00       16.661       47.131       57.624       51.263       44.288       30.765     2627.852     1961.404      946.488        0.568        0.277       49.990       26.719        0.286      337.427        9.393      869.318
11/06/2014  08:42:00       59.147       54.700       50.813       47.524       38.559       27.702     2258.539     1486.829      767.419        0.679        0.226       80.563       20.029        0.062      337.187        8.993      869.303
11/06/2014  08:43:00      -13.599       20.269       73.034       21.436       45.994       28.345      459.514     2115.489      803.460        0.465        0.169       24.409       27.759        1.293      337.435        9.407      869.325
11/06/2014  08:44:00       43.349      -46.128       17.055       32.723       56.423       41.209     1070.774     3183.590     1698.182        0.512        0.298       63.300       42.568        0.452      337.275        9.139      869.358
11/06/2014  08:45:00       58.367      -53.632       10.753       46.995       47.200       29.170     2208.543     2227.834      850.873        0.584        0.264       79.266       32.297        0.166      337.307        9.193      869.368
11/06/2014  08:46:00       10.591        2.420       45.141       32.635       71.709       35.369     1065.063     5142.211     1250.952        0.481        0.373       10.864       43.227       15.832      337.422        9.384      869.361
11/06/2014  08:47:00       23.568      -44.641       15.652       33.265       41.782       28.370     1106.532     1745.727      804.864        0.322        0.183       50.481       30.792        0.372      337.374        9.305      869.380
11/06/2014  08:48:00       19.098      -18.978       10.301       35.296       21.503       26.838     1245.833      462.389      720.304        0.163        0.121       26.924       13.493        0.251      337.437        9.410      869.403
11/06/2014  08:49:00       75.035       56.502       30.406       28.402       21.323       21.554      806.701      454.653      464.571        0.574        0.086       93.929       10.378        0.012      337.238        9.077      869.398
11/06/2014  08:50:00       40.810       66.323       -7.335       27.602       43.103       17.051      761.857     1857.898      290.733        0.451        0.146       77.873       19.192        0.061      337.123        8.884      869.404
11/06/2014  08:51:00       17.898       53.356       -3.475       21.652       33.211       28.034      468.809     1102.956      785.932        0.277        0.118       56.278       23.874        0.180      337.296        9.174      869.419
11/06/2014  08:52:00       48.274       45.563       -5.288       14.954       13.529       15.875      223.625      183.022      252.024        0.255        0.033       66.380        8.438        0.016      337.237        9.076      869.415
11/06/2014  08:53:00       -2.093       29.378       47.037       12.941       29.682       26.673      167.472      881.042      711.466        0.242        0.088       29.452       22.730        0.596      337.642        9.755      869.378
11/06/2014  08:54:00        7.219       16.143       29.466       23.738       43.711       35.181      563.500     1910.632     1237.705        0.245        0.186       17.684       31.808        3.235      337.458        9.445      869.339
11/06/2014  08:55:00       14.379        5.109       42.685       21.029       66.487       34.712      442.221     4420.565     1204.927        0.406        0.303       15.259       44.736        8.595      337.470        9.465      869.338
11/06/2014  08:56:00       11.869       46.893       42.776       18.303       12.944       18.450      335.015      167.541      340.385        0.251        0.042       48.372       15.799        0.107      337.346        9.258      869.343
11/06/2014  08:57:00       29.227       30.014        2.857       11.683        9.817       13.913      136.494       96.375      193.562        0.109        0.021       41.894        4.324        0.011      337.305        9.190      869.341
11/06/2014  08:58:00       37.555       35.824       10.546       13.461       16.371       10.933      181.209      268.017      119.524        0.169        0.028       51.901        6.975        0.018      337.412        9.366      869.339
11/06/2014  08:59:00       18.088       26.471       17.790       32.086       22.813       19.408     1029.523      520.425      376.656        0.164        0.096       32.061       16.896        0.278      337.651        9.770      869.341
11/06/2014  09:00:00       -0.925       -0.589       33.662       12.181       26.116       11.240      148.375      682.035      126.327        0.105        0.048        1.097       10.631       93.895      337.923       10.225      869.335
11/06/2014  09:01:00        4.901      -59.221        3.863       17.069       23.909       19.163      291.357      571.641      367.219        0.239        0.062       59.423       10.586        0.032      337.597        9.677      869.318
11/06/2014  09:02:00       14.438        1.120       12.344       14.751       24.873       22.154      217.582      618.648      490.811        0.084        0.066       14.482       16.522        1.302      337.742        9.921      869.273
11/06/2014  09:03:00        0.866       28.326        1.923       22.044       22.155       13.871      485.941      490.834      192.413        0.099        0.058       28.339        9.363        0.109      337.640        9.752      869.233
11/06/2014  09:04:00       14.727       10.393       16.509       27.115       14.362       14.643      735.237      206.263      214.425        0.088        0.058       18.025       11.682        0.420      337.801       10.019      869.218
11/06/2014  09:05:00       31.208       26.468       13.282       22.281       15.653       21.998      496.440      245.012      483.891        0.154        0.061       40.921       11.377        0.077      337.616        9.709      869.232
11/06/2014  09:06:00       13.599        9.019        4.994       21.524       11.629       12.429      463.295      135.225      154.470        0.052        0.038       16.318       10.879        0.444      337.714        9.874      869.237
11/06/2014  09:07:00      -44.754        5.771      -12.121       18.109       24.412       11.945      327.924      595.925      142.682        0.162        0.053       45.124        5.640        0.016      337.560        9.617      869.243
11/06/2014  09:08:00      -39.167       10.094        0.602       11.743        8.222        5.843      137.897       67.605       34.135        0.094        0.012       40.447        4.840        0.014      337.577        9.647      869.229
11/06/2014  09:09:00        9.384        6.238       19.327       17.639        9.045       12.821      311.121       81.815      164.374        0.053        0.028       11.268       11.371        1.018      337.970       10.304      869.185
11/06/2014  09:10:00       29.478       13.394       13.045       19.015       12.119       16.480      361.556      146.873      271.579        0.100        0.039       32.378       12.068        0.139      337.778        9.982      869.162
11/06/2014  09:11:00       51.426       28.317        9.021       27.738       21.604       13.809      769.413      466.715      190.689        0.248        0.071       58.707        7.812        0.018      337.616        9.709      869.182
11/06/2014  09:12:00       -6.843       78.586       -3.779       39.837       36.699       21.987     1587.020     1346.817      483.448        0.483        0.171       78.883       17.605        0.050      337.627        9.729      869.197
11/06/2014  09:13:00        3.418      137.848      -25.878       27.826       31.071       13.820      774.298      965.400      190.994        1.081        0.097      137.890        9.775        0.005      337.508        9.530      869.193
11/06/2014  09:14:00        7.765      130.999      -19.332       27.979       38.412       18.759      782.830     1475.449      351.899        1.010        0.131      131.229       19.694        0.023      337.605        9.693      869.188
11/06/2014  09:15:00       38.112       51.971       -0.131       34.827       33.264       24.610     1212.912     1106.503      605.648        0.354        0.146       64.448       22.510        0.122      337.736        9.910      869.176
11/06/2014  09:16:00       73.866       45.685       21.504       23.334       20.308       22.471      544.473      412.420      504.926        0.473        0.073       86.852       11.745        0.018      337.708        9.865      869.177
11/06/2014  09:17:00       10.147        8.934       -0.990       31.211       14.511       14.702      974.122      210.577      216.143        0.079        0.070       13.520        7.217        0.285      337.697        9.845      869.195
11/06/2014  09:18:00       23.842       34.496       39.245       36.857       26.710       32.536     1358.425      713.405     1058.564        0.321        0.157       41.933       22.169        0.279      337.841       10.089      869.183
11/06/2014  09:19:00       57.477       54.633       27.553       24.320       18.809       32.937      591.441      353.794     1084.862        0.454        0.102       79.299       17.861        0.051      337.614        9.707      869.145
11/06/2014  09:20:00        4.773       52.789       -8.508       36.662       36.154       16.314     1344.093     1307.137      266.146        0.290        0.146       53.005       12.514        0.056      337.722        9.888      869.129
11/06/2014  09:21:00      -30.801       35.980        4.469       26.189       21.054       16.911      685.853      443.289      285.991        0.184        0.071       47.363       13.408        0.080      337.780        9.985      869.115
11/06/2014  09:22:00       -2.641       41.817        0.182       25.695       21.074       22.308      660.247      444.125      497.659        0.168        0.080       41.900       20.405        0.237      337.802       10.022      869.070
11/06/2014  09:23:00       40.558       26.793       11.021       15.787       15.561       16.418      249.223      242.148      269.543        0.162        0.038       48.609       10.483        0.047      337.820       10.051      869.042
11/06/2014  09:24:00       54.790       28.486       10.925       20.028       16.586       21.265      401.126      275.091      452.206        0.253        0.056       61.752       13.616        0.049      337.784        9.991      869.025
11/06/2014  09:25:00       35.201       23.705       -9.358       15.982       10.642       11.669      255.414      113.255      136.170        0.120        0.025       42.438        9.567        0.051      337.695        9.842      869.019
11/06/2014  09:26:00       17.059       13.535        3.737       12.188       12.229       18.487      148.552      149.538      341.767        0.056        0.032       21.776       12.763        0.344      337.845       10.093      869.012
11/06/2014  09:27:00       26.268       35.012        5.907       16.260       20.640       11.690      264.388      426.015      136.651        0.139        0.041       43.770        7.926        0.033      337.846       10.095      869.001
11/06/2014  09:28:00       11.697       20.414       38.518       23.947       20.880       13.722      573.450      435.956      188.302        0.162        0.060       23.527       14.726        0.392      338.146       10.601      869.007
11/06/2014  09:29:00        0.901       -8.272       29.679       22.260       31.948       18.158      495.501     1020.665      329.724        0.140        0.092        8.321       16.333        3.853      338.147       10.599      869.011
11/06/2014  09:30:00        0.538       23.226       37.610       15.543       22.590       13.153      241.579      510.289      172.999        0.144        0.046       23.232       12.651        0.297      338.168       10.636      869.009
11/06/2014  09:31:00      -27.422       11.835        7.479       14.826        9.676        8.199      219.817       93.629       67.221        0.066        0.019       29.867        8.193        0.075      337.982       10.323      869.017
11/06/2014  09:32:00      -60.685      -30.816       -0.055       15.135       22.453       12.751      229.063      504.148      162.577        0.276        0.045       68.062        7.683        0.013      337.968       10.300      869.051
11/06/2014  09:33:00      -61.105      -16.023        6.020       23.100       26.106       15.495      533.593      681.535      240.091        0.274        0.073       63.171       11.851        0.035      337.971       10.306      869.090
11/06/2014  09:34:00      -66.903        3.855       -0.595       21.542       24.186       14.750      464.043      584.953      217.565        0.288        0.063       67.014       13.153        0.039      337.878       10.150      869.094
11/06/2014  09:35:00      -36.334       16.519        8.702       34.504       13.686       12.468     1190.560      187.312      155.440        0.160        0.077       39.913       18.860        0.223      338.007       10.365      869.052
11/06/2014  09:36:00       -1.672       10.459       13.619       19.139       12.648       12.180      366.297      159.975      148.344        0.049        0.034       10.591       12.606        1.417      338.146       10.599      869.009
11/06/2014  09:37:00        5.036       36.539       -1.874       17.763       17.931       14.310      315.521      321.517      204.789        0.110        0.042       36.884        9.842        0.071      338.091       10.507      868.984
11/06/2014  09:38:00       43.308       49.837        3.943       23.412       20.327       16.415      548.111      413.182      269.460        0.280        0.062       66.025        6.995        0.011      338.101       10.523      868.987
11/06/2014  09:39:00       52.928       50.328        7.480       21.372       17.271       18.008      456.776      298.289      324.304        0.323        0.054       73.036        7.771        0.011      338.017       10.383      869.004
11/06/2014  09:40:00        0.098       23.694       11.135       14.968       23.392       10.697      224.056      547.176      114.436        0.079        0.044       23.694        7.803        0.108      338.167       10.634      869.024
11/06/2014  09:41:00       -8.729       10.217       13.391        7.445        8.920       10.128       55.424       79.568      102.569        0.030        0.012       13.438        5.556        0.171      338.271       10.809      869.011
11/06/2014  09:42:00       -6.395      -13.156       21.285       11.612       19.066       14.278      134.832      363.523      203.853        0.068        0.035       14.628        9.005        0.379      338.210       10.707      868.966
11/06/2014  09:43:00       15.260       57.408       55.177       17.789       22.599       13.868      316.443      510.735      192.323        0.380        0.051       59.401        6.989        0.014      338.131       10.574      868.944
11/06/2014  09:44:00       25.345       10.090       38.146       23.596       38.545       29.221      556.779     1485.695      853.854        0.255        0.145       27.280       27.603        1.024      338.263       10.795      868.923
11/06/2014  09:45:00        9.115       36.209       50.596       34.243       30.094       18.975     1172.549      905.665      360.047        0.320        0.122       37.339       17.643        0.223      338.251       10.775      868.904
11/06/2014  09:46:00       91.273       53.839        3.802       29.902       24.748       24.962      894.126      612.458      623.077        0.669        0.106      105.969        5.446        0.003      338.127       10.567      868.880
11/06/2014  09:47:00       53.930       33.551        9.886       43.981       27.770       26.797     1934.310      771.189      718.080        0.378        0.171       63.514       17.078        0.072      338.125       10.563      868.883
11/06/2014  09:48:00       29.909       25.104        0.618       27.440       16.907       17.205      752.959      285.837      296.002        0.143        0.067       39.048       12.941        0.110      338.143       10.593      868.903
11/06/2014  09:49:00       43.664       17.940        0.346       24.888       26.225       15.278      619.436      687.726      233.403        0.188        0.077       47.206       12.641        0.072      338.117       10.550      868.908
11/06/2014  09:50:00       45.373        4.455       30.410       20.709       40.030       23.303      428.863     1602.407      543.009        0.279        0.129       45.591       20.417        0.201      338.115       10.547      868.909
11/06/2014  09:51:00       25.627       25.209       43.044       23.535       27.616       17.319      553.882      762.632      299.957        0.238        0.081       35.948       16.055        0.199      338.254       10.780      868.907
11/06/2014  09:52:00       25.276       33.663       13.529       20.687       17.103       21.834      427.963      292.512      476.722        0.158        0.060       42.096       15.526        0.136      338.053       10.443      868.902
11/06/2014  09:53:00        7.767        2.233       19.975       14.362        5.741        8.266      206.255       32.958       68.327        0.039        0.015        8.082        7.830        0.939      338.401       11.028      868.909
11/06/2014  09:54:00        2.554       -1.973       15.152        8.331       11.240        8.816       69.406      126.327       77.721        0.026        0.014        3.227        8.135        6.356      338.369       10.974      868.937
11/06/2014  09:55:00       12.465        4.434       19.829       18.728       23.652       16.345      350.749      559.428      267.156        0.087        0.059       13.230       14.992        1.284      338.313       10.880      868.992
11/06/2014  09:56:00       -5.716      -15.703       -3.290       15.589       24.883       17.420      243.030      619.186      303.463        0.073        0.058       16.711       17.340        1.077      338.383       10.997      869.022
11/06/2014  09:57:00      -66.796       10.275       -3.278       30.949       21.577       11.873      957.838      465.587      140.976        0.307        0.078       67.582        9.607        0.020      338.227       10.734      869.009
11/06/2014  09:58:00      -53.346       35.175        3.990       25.005       14.661       14.508      625.228      214.942      210.474        0.257        0.053       63.899       11.558        0.033      338.204       10.695      868.989
11/06/2014  09:59:00      -45.451       35.350       -3.721       26.075       18.195       15.752      679.890      331.071      248.128        0.229        0.063       57.580       12.353        0.046      338.278       10.822      868.984
11/06/2014  10:00:00      -29.522       38.339       -1.702       15.110       23.994       17.562      228.313      575.722      308.422        0.173        0.056       48.388       13.388        0.077      338.339       10.924      868.985
11/06/2014  10:01:00      -14.382       51.239       -5.831       36.091       23.533       19.741     1302.527      553.790      389.711        0.256        0.112       53.219       19.974        0.141      338.425       11.068      868.963
11/06/2014  10:02:00       18.636       83.865       -7.467       27.663       24.738       19.955      765.238      611.993      398.205        0.461        0.089       85.911       16.378        0.036      338.354       10.949      868.932
11/06/2014  10:03:00       -0.612       64.798        3.661       28.856       39.723       24.867      832.662     1577.949      618.374        0.362        0.151       64.801       23.438        0.131      338.432       11.079      868.911
11/06/2014  10:04:00       -4.860       32.882       -7.574       11.268       25.145       11.347      126.974      632.288      128.744        0.102        0.044       33.240        3.926        0.014      338.411       11.045      868.916
11/06/2014  10:05:00      -28.574       15.384       -9.136       21.445       14.823       13.538      459.898      219.709      183.283        0.100        0.043       32.452       12.649        0.152      338.445       11.102      868.951
11/06/2014  10:06:00      -50.319       40.277      -10.229       20.683       21.619       11.715      427.781      467.369      137.245        0.265        0.052       64.454        8.049        0.016      338.422       11.062      868.973
11/06/2014  10:07:00      -62.171      -19.044       -7.200       42.718       37.016       17.906     1824.792     1370.181      320.634        0.390        0.176       65.022       14.546        0.050      338.432       11.079      868.977
11/06/2014  10:08:00       15.107       19.257       16.811       17.786       22.457       22.852      316.358      504.300      522.200        0.111        0.067       24.475       21.685        0.785      338.733       11.585      868.957
11/06/2014  10:09:00       -5.919       55.577        2.146       29.309       39.054       19.866      859.044     1525.187      394.674        0.295        0.139       55.892       18.089        0.105      338.623       11.401      868.920
11/06/2014  10:10:00        3.531       61.529       -8.686       17.925       23.976       14.095      321.308      574.839      198.676        0.248        0.055       61.630       11.116        0.033      338.500       11.194      868.925
11/06/2014  10:11:00      -49.864       50.644      -13.636       37.197       20.178       12.826     1383.650      407.142      164.502        0.360        0.098       71.072        4.954        0.005      338.503       11.200      868.967
11/06/2014  10:12:00      -83.613       15.827      -14.233       10.905       13.327       10.698      118.909      177.597      114.437        0.393        0.021       85.097        7.903        0.009      338.318       10.890      868.998
11/06/2014  10:13:00      -79.571      -22.994       -7.155       46.389       38.761       24.432     2151.937     1502.442      596.933        0.558        0.213       82.827       11.865        0.021      338.471       11.145      868.997
11/06/2014  10:14:00       -2.721      -41.330        9.507       45.325       22.244       25.052     2054.344      494.805      627.601        0.249        0.159       41.420       17.572        0.180      338.698       11.525      869.006
11/06/2014  10:15:00      -32.244      -31.766        1.813       23.893       13.258       13.712      570.899      175.766      188.022        0.149        0.047       45.263       13.428        0.088      338.468       11.140      869.023
11/06/2014  10:16:00      -16.898       -9.758       -5.216        9.149        9.718        5.962       83.711       94.444       35.549        0.031        0.011       19.513        4.673        0.057      338.470       11.145      869.044
11/06/2014  10:17:00      -42.238       14.731       -4.951       11.400       12.347        7.674      129.958      152.460       58.889        0.118        0.017       44.733        4.387        0.010      338.515       11.219      869.040
11/06/2014  10:18:00       -8.262       13.695        9.480       14.385       18.512       12.092      206.933      342.685      146.209        0.052        0.035       15.994        9.790        0.375      338.889       11.848      869.022
11/06/2014  10:19:00        5.096        7.820        9.659       14.362       11.690       13.104      206.275      136.650      171.720        0.035        0.026        9.334        6.854        0.539      338.911       11.883      868.989
11/06/2014  10:20:00      -17.440      -13.257       13.960       11.473       15.798        9.612      131.632      249.570       92.393        0.057        0.024       21.907        5.753        0.069      338.893       11.854      868.968
11/06/2014  10:21:00       -8.071      -26.529       -2.255       16.040       15.176       10.920      257.279      230.320      119.238        0.069        0.030       27.729        5.702        0.042      338.671       11.481      868.961
11/06/2014  10:22:00        3.278       -2.000       -0.015       13.123       12.681       17.002      172.215      160.798      289.055        0.032        0.031        3.840       12.421       10.461      338.860       11.798      868.932
11/06/2014  10:23:00      -13.045        0.553        6.308       12.896       11.512       12.866      166.303      132.528      165.523        0.034        0.023       13.057        9.003        0.475      339.004       12.040      868.883
11/06/2014  10:24:00       -5.968       11.250       -1.657       15.323        8.713        9.352      234.785       75.923       87.452        0.028        0.020       12.735        8.382        0.433      338.727       11.576      868.822
11/06/2014  10:25:00       40.249       26.871        5.144       21.641       16.549       17.144      468.330      273.853      293.902        0.170        0.052       48.395       10.336        0.046      338.788       11.677      868.766
11/06/2014  10:26:00       15.612       16.103       12.117       28.787       19.104       16.726      828.685      364.970      279.762        0.106        0.074       22.429       13.873        0.383      339.129       12.252      868.738
11/06/2014  10:27:00      -27.397      -11.500        3.786       15.061        9.353       10.414      226.821       87.481      108.457        0.066        0.021       29.713        9.677        0.106      338.977       11.997      868.746
11/06/2014  10:28:00      -10.385      -44.209       12.873       41.088       26.541       24.491     1688.198      704.402      599.796        0.261        0.150       45.412       20.060        0.195      339.029       12.081      868.791
11/06/2014  10:29:00      -67.611      -71.792       -5.916       48.039       48.231       29.605     2307.764     2326.231      876.474        0.763        0.276       98.617       21.272        0.047      339.001       12.034      868.828
11/06/2014  10:30:00       21.070       -0.120       35.085       53.550       54.397       39.127     2867.642     2959.006     1530.928        0.451        0.368       21.070       39.454        3.506      339.215       12.397      868.801
11/06/2014  10:31:00       55.941       75.172       47.941       34.821       37.830       32.125     1212.514     1431.142     1032.042        0.738        0.184       93.703       18.664        0.040      338.974       11.989      868.731
11/06/2014  10:32:00      -17.077       93.239      -18.354       31.350       40.206       22.343      982.842     1616.533      499.231        0.621        0.155       94.790       21.358        0.051      338.956       11.960      868.727
11/06/2014  10:33:00      -82.774       34.832      -14.194       43.357       40.598       16.923     1879.866     1648.214      286.380        0.604        0.191       89.804       11.318        0.016      339.005       12.043      868.834
11/06/2014  10:34:00      -95.876      -51.518       -2.876       55.206       27.173       26.788     3047.669      738.367      717.582        0.818        0.225      108.840       33.299        0.094      338.986       12.009      868.933
11/06/2014  10:35:00      -45.058      -63.643       -1.171       40.592       22.268       20.030     1647.738      495.877      401.218        0.431        0.127       77.979       19.194        0.061      339.042       12.105      868.965
11/06/2014  10:36:00      -29.584       -4.962        5.173       13.251       37.015       22.492      175.577     1370.076      505.874        0.149        0.103       29.997       23.527        0.615      338.945       11.941      868.926
11/06/2014  10:37:00       67.805       90.736        4.439       36.966       29.476       34.883     1366.475      868.853     1216.830        0.815        0.173      113.272       24.766        0.048      339.041       12.103      868.837
11/06/2014  10:38:00       42.937       89.186      -11.672       33.423       32.437       21.221     1117.065     1052.179      450.343        0.628        0.131       98.983        9.573        0.009      339.013       12.055      868.746
11/06/2014  10:39:00       92.667       45.654       -0.284       53.991       45.238       36.846     2915.040     2046.443     1357.655        0.849        0.316      103.303       24.546        0.056      339.163       12.308      868.722
11/06/2014  10:40:00       17.581      110.998      -13.637       42.062       29.959       26.508     1769.244      897.564      702.658        0.809        0.168      112.381       21.253        0.036      339.061       12.137      868.763
11/06/2014  10:41:00       14.707       28.870       20.958       46.572       48.936       27.050     2168.944     2394.763      731.724        0.339        0.265       32.401       27.904        0.742      339.300       12.537      868.797
11/06/2014  10:42:00       33.849       23.352       13.067       39.974       60.718       34.467     1597.924     3686.653     1187.993        0.417        0.324       41.123       10.414        0.064      339.196       12.364      868.814
11/06/2014  10:43:00       63.016       49.311       49.598       57.209       37.412       40.117     3272.849     1399.671     1609.376        0.757        0.314       80.017       37.455        0.219      339.151       12.288      868.826
11/06/2014  10:44:00        9.769       14.068       52.475       28.227       38.612       29.470      796.749     1490.909      868.486        0.310        0.158       17.127       26.824        2.453      339.427       12.752      868.838
11/06/2014  10:45:00        2.432      -13.451       31.522       25.895       48.941       30.131      670.550     2395.211      907.887        0.258        0.199       13.669       36.683        7.202      339.536       12.937      868.834
11/06/2014  10:46:00       36.008      -65.956       -5.392       33.002       25.074       20.315     1089.156      628.698      412.713        0.390        0.107       75.145       12.222        0.026      339.382       12.676      868.815
11/06/2014  10:47:00        6.791      -26.520       18.215       17.768       34.653       22.285      315.715     1200.833      496.623        0.155        0.101       27.376       18.524        0.458      339.412       12.728      868.805
11/06/2014  10:48:00       44.273       44.179       31.121       37.138       20.716       28.002     1379.226      429.141      784.103        0.374        0.130       62.545       24.614        0.155      339.290       12.522      868.787
11/06/2014  10:49:00       88.127       51.455       14.814       34.493       28.447       28.692     1189.765      809.210      823.232        0.673        0.141      102.049       23.598        0.053      339.163       12.308      868.776
11/06/2014  10:50:00       32.528       47.461       -4.512       31.829       23.468       25.259     1013.064      550.733      638.012        0.277        0.110       57.538       15.998        0.077      339.237       12.432      868.797
11/06/2014  10:51:00       60.851       45.542        5.939       29.870       31.452       27.358      892.234      989.235      748.454        0.422        0.131       76.006       20.605        0.073      339.179       12.335      868.829
11/06/2014  10:52:00        9.519       27.731       39.814       28.667       24.108       19.034      821.790      581.180      362.306        0.210        0.088       29.319       19.217        0.430      339.524       12.915      868.855
11/06/2014  10:53:00       26.991       49.633       54.638       32.977       26.441       16.278     1087.507      699.147      264.968        0.411        0.103       56.497       16.313        0.083      339.421       12.743      868.878
11/06/2014  10:54:00       71.435       71.281       23.372       29.846       21.043       29.004      890.807      442.801      841.210        0.645        0.109      100.916       19.319        0.037      339.183       12.340      868.901
11/06/2014  10:55:00       31.139       46.999       40.382       17.713       21.764       19.384      313.740      473.673      375.725        0.299        0.058       56.378        9.029        0.026      339.366       12.650      868.919
11/06/2014  10:56:00       32.554       35.828        9.556       16.510       12.672       21.816      272.571      160.587      475.943        0.167        0.045       48.409        7.184        0.022      339.346       12.615      868.894
11/06/2014  10:57:00       34.507       99.357       -6.677       33.430       43.078       27.809     1117.597     1855.712      773.351        0.743        0.187      105.178       23.361        0.049      339.256       12.465      868.859
11/06/2014  10:58:00       56.052       87.924        4.432       58.573       38.147       31.458     3430.808     1455.177      989.630        0.838        0.294      104.270       18.681        0.032      339.243       12.443      868.817
11/06/2014  10:59:00       63.623       24.706       19.127       31.047       30.751       31.726      963.944      945.634     1006.532        0.397        0.146       68.252       23.797        0.122      339.270       12.489      868.797
11/06/2014  11:00:00        4.563      -21.335        9.521       18.532       25.569       15.184      343.430      653.795      230.565        0.090        0.061       21.817       13.986        0.411      339.374       12.664      868.779
11/06/2014  11:01:00        5.439      -14.873       13.443       16.727       23.812       21.941      279.781      567.010      481.424        0.088        0.066       15.837       19.247        1.477      339.567       12.988      868.787
11/06/2014  11:02:00      -23.489      -26.742        2.612       16.262       12.940       11.453      264.462      167.441      131.172        0.092        0.028       35.594        5.933        0.028      339.408       12.722      868.776
11/06/2014  11:03:00        1.689       -4.901       17.090       15.886       11.069        9.984      252.356      122.517       99.679        0.040        0.024        5.184       10.376        4.006      339.712       13.234      868.742
11/06/2014  11:04:00       57.723       53.626        9.656       35.914       25.458       29.663     1289.788      648.130      879.897        0.456        0.141       78.789       15.458        0.038      339.406       12.717      868.697
11/06/2014  11:05:00       63.077       50.861       11.083       24.736       27.539       30.261      611.866      758.419      915.701        0.449        0.114       81.028       19.607        0.059      339.355       12.631      868.674
11/06/2014  11:06:00       27.263       22.121       -5.074       21.638       16.503       11.431      468.199      272.347      130.679        0.106        0.044       35.109        8.690        0.061      339.300       12.539      868.673
11/06/2014  11:07:00      -26.848      -28.776       -5.305       21.000       13.702       12.040      440.993      187.747      144.966        0.118        0.039       39.355        9.920        0.064      339.398       12.704      868.683
11/06/2014  11:08:00      -37.535      -32.386      -14.279       14.501       14.985        8.038      210.266      224.547       64.606        0.158        0.025       49.575        8.415        0.029      339.373       12.662      868.689
11/06/2014  11:09:00      -55.079      -31.813       -8.576       19.506       27.038       11.847      380.476      731.071      140.357        0.269        0.063       63.606        8.800        0.019      339.400       12.709      868.690
11/06/2014  11:10:00      -72.994      -62.713       -6.381       26.255       30.314       16.620      689.349      918.914      276.232        0.559        0.094       96.234       13.638        0.020      339.444       12.781      868.685
11/06/2014  11:11:00      -28.345      -18.128        9.057       31.522       24.707       18.982      993.644      610.412      360.330        0.159        0.098       33.646       18.856        0.314      339.642       13.115      868.677
11/06/2014  11:12:00      -12.343       15.755       21.543        9.369       13.487       25.057       87.776      181.910      627.871        0.088        0.045       20.014        7.489        0.140      339.833       13.436      868.655
11/06/2014  11:13:00      -68.561      -30.823       -8.195       23.055       22.126       14.759      531.546      489.559      217.829        0.348        0.062       75.171       18.317        0.059      339.582       13.012      868.677
11/06/2014  11:14:00      -94.291      -71.236      -11.467       22.327       24.561       15.353      498.481      603.229      235.715        0.772        0.067      118.176       10.890        0.008      339.591       13.031      868.704
11/06/2014  11:15:00      -54.009      -63.421        5.325       40.332       40.250       19.587     1626.662     1620.087      383.644        0.530        0.182       83.301       21.487        0.067      339.710       13.231      868.718
11/06/2014  11:16:00      -81.901      -96.732       -0.765       37.064       28.092       21.182     1373.737      789.179      448.657        0.934        0.131      126.747       23.962        0.036      339.638       13.110      868.715
11/06/2014  11:17:00      -38.719      -98.400       -0.121       26.128       24.369       16.220      682.696      593.866      263.102        0.636        0.077      105.744       10.024        0.009      339.628       13.091      868.716
11/06/2014  11:18:00      -27.000      -41.843       -7.323       11.273       29.207       10.947      127.069      853.073      119.837        0.182        0.055       49.799       12.335        0.061      339.675       13.169      868.700
11/06/2014  11:19:00      -15.857       -7.545        8.735       26.996       34.627       30.008      728.758     1199.034      900.462        0.161        0.141       17.561       20.371        1.346      339.868       13.498      868.678
11/06/2014  11:20:00      -17.268      -17.810        7.213       39.378       26.476       20.163     1550.610      700.991      406.547        0.166        0.133       24.807       18.601        0.562      339.888       13.529      868.652
11/06/2014  11:21:00       -9.233        2.487        7.881       16.303       17.621       13.892      265.802      310.501      192.975        0.046        0.038        9.562       11.342        1.407      340.051       13.806      868.631
11/06/2014  11:22:00      -11.143        8.448        0.677       10.139       12.912        9.756      102.799      166.728       95.174        0.028        0.018       13.983        8.231        0.346      340.026       13.762      868.622
11/06/2014  11:23:00      -26.774       10.150        2.819        9.322       20.809       14.973       86.903      433.018      224.178        0.079        0.037       28.633       13.814        0.233      339.891       13.535      868.612
11/06/2014  11:24:00       -9.658       11.449       39.729       17.043       19.295       25.890      290.450      372.306      670.299        0.157        0.067       14.978       17.344        1.341      340.121       13.924      868.597
11/06/2014  11:25:00       13.595       19.841       40.675       23.695       34.699       24.603      561.460     1204.007      605.289        0.230        0.119       24.052       21.124        0.771      340.055       13.811      868.586
11/06/2014  11:26:00        4.177      -14.767       21.205       12.073       23.169       14.849      145.745      536.790      220.489        0.079        0.045       15.346       10.784        0.494      340.194       14.046      868.579
11/06/2014  11:27:00        1.445        2.032       12.124       15.183       13.416        9.646      230.509      179.992       93.048        0.033        0.025        2.493        3.553        2.031      340.266       14.167      868.580
11/06/2014  11:28:00        5.217       -4.803       14.451       17.060       16.430       16.581      291.042      269.940      274.932        0.055        0.042        7.091        7.095        1.001      340.236       14.117      868.572
11/06/2014  11:29:00       74.222       60.084       16.097       30.197       24.184       18.791      911.884      584.862      353.113        0.561        0.092       95.494       13.113        0.019      339.880       13.517      868.549
11/06/2014  11:30:00      110.586       71.004       11.650       29.547       24.511       27.014      873.025      600.791      729.771        0.980        0.110      131.419       13.688        0.011      339.772       13.335      868.561
11/06/2014  11:31:00       91.992       67.298        4.821       39.216       33.818       26.973     1537.914     1143.629      727.523        0.821        0.170      113.980       16.169        0.020      339.865       13.492      868.576
11/06/2014  11:32:00       79.626       62.402       22.017       43.907       38.060       31.181     1927.790     1448.587      972.239        0.753        0.217      101.165       16.517        0.027      339.927       13.596      868.577
11/06/2014  11:33:00       78.655       72.836       22.470       49.162       35.794       26.453     2416.884     1281.232      699.743        0.820        0.220      107.199       23.154        0.047      339.820       13.415      868.548
11/06/2014  11:34:00       13.666      -61.043       15.871       23.707       59.528       31.404      562.030     3543.558      986.228        0.463        0.255       62.554       33.568        0.288      339.852       13.469      868.502
11/06/2014  11:35:00      -17.006      -61.944       -1.480       25.086       18.165       18.752      629.301      329.974      351.645        0.272        0.066       64.236       15.531        0.058      339.762       13.317      868.467
11/06/2014  11:36:00      -12.789       -2.267        1.625       25.014       24.725       14.757      625.718      611.315      217.765        0.081        0.073       12.988       15.865        1.492      339.971       13.669      868.443
11/06/2014  11:37:00       -2.413        9.494       12.760       16.977       15.161       18.049      288.232      229.855      325.760        0.055        0.042        9.796       11.982        1.496      340.235       14.114      868.413
11/06/2014  11:38:00       -5.685       -1.433       -5.875       11.354       14.204        8.140      128.923      201.743       66.258        0.023        0.020        5.863        6.376        1.183      340.109       13.902      868.387
11/06/2014  11:39:00      -15.365      -14.988       -2.407       13.383       11.495       10.817      179.097      132.142      117.004        0.045        0.021       21.464        4.689        0.048      340.173       14.009      868.362
11/06/2014  11:40:00       -7.786      -38.720        4.684       24.469       39.995       13.828      598.752     1599.618      191.212        0.199        0.119       39.495       15.046        0.145      340.293       14.213      868.367
11/06/2014  11:41:00      -41.826      -68.319       -9.578       22.665       18.848       15.049      513.720      355.253      226.474        0.380        0.055       80.105        4.105        0.003      340.169       14.004      868.378
11/06/2014  11:42:00      -16.099       -4.081       -2.945       24.308       22.517       17.251      590.857      507.036      297.583        0.084        0.070       16.608        5.842        0.124      340.388       14.374      868.372
11/06/2014  11:43:00      -46.106       -7.184        3.326       16.299       25.040       19.768      265.648      626.987      390.761        0.174        0.064       46.663        6.725        0.021      340.415       14.419      868.334
11/06/2014  11:44:00      -58.380      -19.861      -12.854       17.694       23.902        9.484      313.091      571.309       89.945        0.247        0.049       61.666        5.078        0.007      340.328       14.272      868.322
11/06/2014  11:45:00      -25.425       11.566       -1.139       29.434       20.546       17.535      866.377      422.123      307.470        0.119        0.080       27.932       11.490        0.169      340.672       14.855      868.325
11/06/2014  11:46:00      -69.534      -20.776       -9.863       20.891       16.808       13.027      436.439      282.496      169.701        0.313        0.044       72.572        6.853        0.009      340.343       14.298      868.306
11/06/2014  11:47:00      -67.949      -22.373       -4.667       30.206       34.814       15.347      912.423     1211.994      235.524        0.375        0.118       71.537       11.481        0.026      340.455       14.488      868.279
11/06/2014  11:48:00      -25.926      -36.832        3.753       23.059       23.836       15.478      531.710      568.169      239.564        0.169        0.067       45.042       15.815        0.123      340.441       14.464      868.269
11/06/2014  11:49:00      -72.741     -108.625       -5.080       34.062       35.531       20.151     1160.207     1262.444      406.062        0.997        0.141      130.731       17.997        0.019      340.293       14.214      868.279
11/06/2014  11:50:00      -29.579      -41.250        9.364       49.745       53.870       23.023     2474.516     2901.928      530.037        0.428        0.295       50.759       28.746        0.321      340.577       14.693      868.284
11/06/2014  11:51:00       -8.967      -63.139      -18.256       30.592       52.960       21.745      935.876     2804.760      472.859        0.431        0.211       63.773       22.175        0.121      340.656       14.826      868.294
11/06/2014  11:52:00      -57.945      -68.012       -7.580       29.968       32.045       18.350      898.087     1026.896      336.731        0.515        0.113       89.349       13.555        0.023      340.545       14.639      868.280
11/06/2014  11:53:00      -18.687      -16.609        7.609       31.318       38.156       27.812      980.818     1455.917      773.513        0.195        0.161       25.001       21.270        0.724      340.746       14.980      868.233
11/06/2014  11:54:00      -48.311        3.221        8.816       38.925       34.501       23.787     1515.123     1190.299      565.799        0.285        0.164       48.418       22.226        0.211      340.822       15.108      868.197
11/06/2014  11:55:00      -13.383       11.445       10.473       23.869       18.611       21.364      569.725      346.380      456.419        0.090        0.069       17.609       11.288        0.411      340.896       15.234      868.163
11/06/2014  11:56:00       10.906       -5.041        6.805       36.684       31.778       17.861     1345.692     1009.871      319.028        0.143        0.134       12.015        9.510        0.626      340.617       14.760      868.155
11/06/2014  11:57:00       24.060      -51.939       14.681       49.199       61.993       43.553     2420.568     3843.109     1896.835        0.582        0.408       57.241       34.901        0.372      340.753       14.992      868.147
11/06/2014  11:58:00       42.749      -38.005       19.447       50.823       59.803       42.835     2582.977     3576.391     1834.818        0.582        0.400       57.200       36.940        0.417      340.835       15.130      868.156
11/06/2014  11:59:00       27.826      -11.742       23.957       43.700       47.315       39.064     1909.679     2238.679     1525.975        0.358        0.284       30.202       29.988        0.986      340.669       14.849      868.125
11/06/2014  12:00:00       17.022        9.013       43.186       29.688       31.381       21.448      881.365      984.736      459.996        0.228        0.116       19.260        5.362        0.078      340.914       15.263      868.089
11/06/2014  12:01:00       40.929      -61.557       11.634       34.783       39.493       26.660     1209.835     1559.730      710.730        0.454        0.174       73.922       22.564        0.093      340.690       14.884      868.060
11/06/2014  12:02:00       13.695        7.115        5.954       15.123       14.870       22.230      228.695      221.121      494.183        0.061        0.047       15.433       15.388        0.994      340.878       15.204      868.040
11/06/2014  12:03:00       13.816      -12.182        7.649       23.717       18.993       17.106      562.513      360.740      292.605        0.081        0.061       18.420        9.552        0.269      340.804       15.077      868.037
11/06/2014  12:04:00       34.117      -18.851       16.951       28.577       27.488       19.410      816.659      755.585      376.748        0.188        0.097       38.979        8.399        0.046      340.627       14.779      868.029
11/06/2014  12:05:00      -30.338      -31.680       -2.707       22.647       29.795       19.681      512.872      887.714      387.339        0.186        0.089       43.864       17.119        0.152      340.724       14.943      867.990
11/06/2014  12:06:00       -7.093       34.587       34.247       23.664       26.750       34.859      559.967      715.581     1215.118        0.245        0.125       35.307       24.594        0.485      340.885       15.216      867.964
11/06/2014  12:07:00       44.418       42.727       55.358       40.239       40.063       26.106     1619.165     1605.072      681.548        0.538        0.195       61.632       10.066        0.027      340.821       15.106      867.945
11/06/2014  12:08:00       12.241        2.222       28.876       27.112       42.934       26.348      735.082     1843.362      694.222        0.213        0.164       12.441       21.777        3.064      340.792       15.059      867.951
11/06/2014  12:09:00       18.509        7.047       14.922       20.930       10.330       16.078      438.082      106.710      258.507        0.071        0.040       19.805        8.329        0.177      340.886       15.216      867.956
11/06/2014  12:10:00       13.195       17.959       13.494       35.195       39.259       27.957     1238.678     1541.277      781.596        0.212        0.178       22.286       19.404        0.758      340.864       15.180      867.950
11/06/2014  12:11:00       11.863      -48.632        5.538       27.895       49.868       25.217      778.122     2486.833      635.892        0.322        0.195       50.058       18.659        0.139      340.970       15.359      867.970
11/06/2014  12:12:00       35.161      -42.553       23.106       43.101       70.945       42.177     1857.659     5033.189     1778.864        0.612        0.433       55.200       44.986        0.664      340.975       15.367      867.981
11/06/2014  12:13:00       50.714      -38.871       28.492       47.764       57.512       35.325     2281.362     3307.623     1247.843        0.586        0.342       63.897       27.896        0.191      340.835       15.130      867.985
11/06/2014  12:14:00       84.022     -131.827       -4.905       62.896       80.864       44.341     3955.845     6538.993     1966.083        1.846        0.623      156.327       41.765        0.071      340.907       15.250      868.003
11/06/2014  12:15:00       69.598      -15.863       24.968       54.080       64.354       46.045     2924.596     4141.498     2120.163        0.745        0.459       71.383       47.630        0.445      340.954       15.331      868.010
11/06/2014  12:16:00       50.546      -95.454        2.450       30.003       38.551       27.589      900.196     1486.154      761.149        0.741        0.157      108.011       23.523        0.047      340.943       15.312      867.994
11/06/2014  12:17:00       40.682      -31.669       23.713       25.818       26.800       22.481      666.578      718.257      505.403        0.255        0.095       51.555       17.769        0.119      341.234       15.805      867.959
11/06/2014  12:18:00       38.725       16.305       34.939       51.605       55.515       28.953     2663.076     3081.862      838.284        0.478        0.329       42.017       28.919        0.474      341.184       15.720      867.908
11/06/2014  12:19:00       97.406      100.348       11.862       44.604       36.368       48.801     1989.527     1322.651     2381.548        1.269        0.285      139.848       26.455        0.036      340.887       15.218      867.840
11/06/2014  12:20:00       82.757       61.504        9.276       26.195       20.576       24.755      686.167      423.357      612.798        0.622        0.086      103.109       15.061        0.021      340.950       15.325      867.797
11/06/2014  12:21:00       83.207       59.502       10.145       52.540       46.702       32.418     2760.484     2181.082     1050.933        0.828        0.300      102.293       18.359        0.032      341.209       15.764      867.779
11/06/2014  12:22:00      142.962       96.712       12.049       56.887       42.436       37.249     3236.134     1800.776     1387.452        1.818        0.321      172.601       22.367        0.017      340.915       15.264      867.796
11/06/2014  12:23:00      153.143       95.988        8.099       29.830       28.411       26.443      889.815      807.203      699.208        1.756        0.120      180.739        8.551        0.002      340.764       15.010      867.838
11/06/2014  12:24:00       31.302      -21.105       -6.342       31.571       49.810       20.091      996.735     2481.027      403.652        0.267        0.194       37.752       14.074        0.139      340.928       15.288      867.853
11/06/2014  12:25:00       18.366      -43.098       15.450       37.051       61.018       26.301     1372.799     3723.206      691.760        0.411        0.289       46.848       33.466        0.510      341.062       15.514      867.867
11/06/2014  12:26:00       31.955      -35.169       21.800       51.662       47.123       41.849     2668.924     2220.545     1751.368        0.469        0.332       47.518       32.767        0.476      341.382       16.056      867.862
11/06/2014  12:27:00       58.088      -30.175       24.218       65.073       73.527       43.874     4234.511     5406.258     1924.940        0.822        0.578       65.458       50.025        0.584      341.287       15.896      867.853
11/06/2014  12:28:00       84.161      -55.853       21.898       63.440       59.843       49.588     4024.598     3581.219     2459.004        1.037        0.503      101.008       50.754        0.252      341.218       15.779      867.830
11/06/2014  12:29:00       32.726       -6.759       -0.606       43.443       32.827       30.459     1887.322     1077.604      927.780        0.250        0.195       33.417       13.095        0.154      341.092       15.563      867.806
11/06/2014  12:30:00       11.301      -26.131       -8.756       22.547       15.183       14.144      508.356      230.515      200.052        0.091        0.047       28.470       12.522        0.193      341.144       15.653      867.787
11/06/2014  12:31:00       22.647       -3.423        0.617       49.635       34.433       19.605     2463.592     1185.607      384.357        0.228        0.202       22.904        8.889        0.151      341.219       15.779      867.763
11/06/2014  12:32:00       46.704       32.021       16.090       48.085       39.232       19.151     2312.215     1539.179      366.742        0.384        0.211       56.627        6.562        0.013      341.143       15.650      867.744
11/06/2014  12:33:00      122.702       81.591        1.005       50.263       45.650       41.530     2526.404     2083.942     1724.719        1.402        0.317      147.353       10.742        0.005      341.350       16.002      867.713
11/06/2014  12:34:00      126.439       63.360       14.931       75.214       61.752       47.149     5657.110     3813.350     2223.069        1.596        0.585      141.426       28.522        0.041      341.550       16.338      867.671
11/06/2014  12:35:00      140.850       93.348       36.229       62.046       53.401       38.398     3849.703     2851.618     1474.402        1.902        0.409      168.975       12.182        0.005      341.343       15.988      867.649
11/06/2014  12:36:00       62.963       56.152       20.438       52.215       41.129       33.467     2726.367     1691.590     1120.008        0.654        0.277       84.365       22.597        0.072      341.601       16.428      867.645
11/06/2014  12:37:00       26.609       31.446       13.429       39.263       25.869       28.671     1541.574      669.216      822.037        0.245        0.152       41.194       13.469        0.107      341.633       16.481      867.672
11/06/2014  12:38:00       35.599      -60.691        0.294       18.813       32.777       27.044      353.928     1074.311      731.395        0.355        0.108       70.361       22.362        0.101      341.550       16.342      867.692
11/06/2014  12:39:00       16.862      -69.246       -5.467       31.723       45.371       20.687     1006.318     2058.499      427.960        0.430        0.175       71.269       16.855        0.056      341.553       16.345      867.709
11/06/2014  12:40:00       14.435        3.071       25.559       19.743       14.671       16.898      389.770      215.234      285.534        0.088        0.045       14.758        6.953        0.222      341.821       16.798      867.725
11/06/2014  12:41:00       16.255        6.337        2.355       15.159       18.576       18.975      229.807      345.051      360.068        0.062        0.047       17.447       10.434        0.358      341.564       16.365      867.720
11/06/2014  12:42:00       29.524       10.848       21.053       37.448       39.166       27.505     1402.320     1533.979      756.549        0.256        0.185       31.454       25.314        0.648      341.556       16.350      867.708
11/06/2014  12:43:00       34.435       45.198       45.223       39.283       40.991       33.601     1543.187     1680.285     1129.038        0.481        0.218       56.821       23.000        0.164      341.994       17.094      867.697
11/06/2014  12:44:00        7.002       28.472       48.873       48.169       52.809       38.256     2320.281     2788.783     1463.546        0.491        0.329       29.321       29.999        1.047      341.954       17.026      867.694
11/06/2014  12:45:00       63.877       11.824       50.257       52.957       70.496       50.148     2804.460     4969.637     2514.808        0.852        0.514       64.962       52.727        0.659      341.453       16.176      867.680
11/06/2014  12:46:00       25.890       56.361       65.049       43.373       39.329       38.501     1881.197     1546.737     1482.301        0.649        0.246       62.023       34.343        0.307      341.521       16.292      867.672
11/06/2014  12:47:00       42.226      -52.980       15.741       46.488       61.098       31.474     2161.120     3732.935      990.613        0.586        0.344       67.749       32.748        0.234      341.662       16.531      867.662
11/06/2014  12:48:00       26.515      -52.774       10.940       28.413       49.589       27.973      807.321     2459.118      782.506        0.383        0.202       59.061       32.094        0.295      341.986       17.081      867.663
11/06/2014  12:49:00       10.212       47.701       64.335       31.553       26.824       22.672      995.566      719.551      513.999        0.437        0.111       48.781       15.457        0.100      341.876       16.894      867.653
11/06/2014  12:50:00       10.177       36.920       -0.870       20.902       33.730       20.105      436.878     1137.700      404.199        0.172        0.099       38.297       14.939        0.152      341.785       16.738      867.646
11/06/2014  12:51:00       38.795       20.241       -1.430       34.926       40.642       28.495     1219.798     1651.734      811.941        0.280        0.184       43.758       20.061        0.210      341.746       16.673      867.609
11/06/2014  12:52:00       40.517       65.589       39.169       31.684       38.438       38.083     1003.854     1477.481     1450.327        0.570        0.197       77.094       26.213        0.116      341.797       16.760      867.585
11/06/2014  12:53:00       48.130       50.144       32.202       58.140       62.629       34.736     3380.222     3922.429     1206.604        0.719        0.425       69.505       13.133        0.036      342.024       17.145      867.552
11/06/2014  12:54:00       48.063       81.956       83.118       59.090       47.222       33.144     3491.613     2229.897     1098.497        1.138        0.341       95.010       19.738        0.043      341.789       16.745      867.520
11/06/2014  12:55:00       67.167       42.778       70.845       55.730       44.696       38.266     3105.784     1997.748     1464.269        0.896        0.328       79.633       30.454        0.146      341.621       16.460      867.471
11/06/2014  12:56:00       43.828       59.072       74.176       60.276       45.272       37.143     3633.202     2049.597     1379.588        0.899        0.353       73.556       30.901        0.176      341.627       16.470      867.414
11/06/2014  12:57:00       61.383       79.059       84.306       58.400       43.415       37.828     3410.566     1884.905     1430.951        1.192        0.336      100.091       28.175        0.079      341.637       16.488      867.368
11/06/2014  12:58:00      102.136       87.406       65.927      112.625       69.152       52.867    12684.317     4781.995     2794.891        2.134        1.013      134.431       44.931        0.112      341.815       16.789      867.334
11/06/2014  12:59:00       54.728       30.748       42.493       52.631       45.879       35.690     2770.006     2104.879     1273.757        0.595        0.307       62.774       22.575        0.129      341.872       16.888      867.324
11/06/2014  13:00:00       30.984       15.086       26.628       43.127       46.959       35.497     1859.975     2205.178     1260.038        0.361        0.266       34.462       26.425        0.588      341.921       16.970      867.325
11/06/2014  13:01:00       65.484       40.201       30.657       36.037       31.747       38.094     1298.659     1007.884     1451.126        0.530        0.188       76.839       27.944        0.132      341.721       16.632      867.311
11/06/2014  13:02:00        8.028       -3.918       -8.126       25.391       53.346       30.063      644.724     2845.843      903.766        0.227        0.220        8.933       22.683        6.448      341.906       16.944      867.301
11/06/2014  13:03:00       26.109      -18.887       -2.280       20.180       47.702       27.405      407.248     2275.524      751.011        0.224        0.172       32.224       22.230        0.476      342.090       17.256      867.290
11/06/2014  13:04:00       21.891       44.595        0.321       27.954       37.224       25.992      781.452     1385.590      675.598        0.265        0.142       49.679       16.320        0.108      342.107       17.285      867.289
11/06/2014  13:05:00       76.678       45.007       46.960       83.670       39.210       45.515     7000.668     1537.455     2071.611        1.036        0.530       88.911       30.714        0.119      341.984       17.077      867.268
11/06/2014  13:06:00       18.191       50.307       69.855       57.651       61.924       53.430     3323.595     3834.582     2854.743        0.888        0.501       53.495       47.958        0.804      342.047       17.183      867.268
11/06/2014  13:07:00      127.471      114.986       72.246       81.190       64.943       65.116     6591.868     4217.652     4240.041        2.487        0.752      171.670       54.275        0.100      341.752       16.680      867.261
11/06/2014  13:08:00       88.783       60.168       44.635       73.437       53.366       56.288     5392.974     2847.930     3168.320        1.245        0.570      107.250       40.894        0.145      341.857       16.861      867.272
11/06/2014  13:09:00       20.815       20.650       17.226       24.236       30.790       24.360      587.361      947.994      593.405        0.164        0.106       29.321       19.711        0.452      342.169       17.391      867.269
11/06/2014  13:10:00       83.960       43.213       -2.531       66.961       36.535       29.440     4483.787     1334.808      866.709        0.780        0.334       94.428       20.978        0.049      342.134       17.332      867.257
11/06/2014  13:11:00      100.589       66.723        5.189       72.574       42.866       36.125     5267.021     1837.510     1304.996        1.150        0.420      120.707       18.302        0.023      342.141       17.342      867.255
11/06/2014  13:12:00      117.000       90.521        6.505       53.166       42.429       35.879     2826.579     1800.228     1287.310        1.392        0.296      147.929       23.972        0.026      342.040       17.170      867.241
11/06/2014  13:13:00      104.467       67.548       12.698       61.741       29.183       30.980     3811.984      851.620      959.733        1.063        0.281      124.403       18.594        0.022      342.144       17.348      867.238
11/06/2014  13:14:00      107.424       82.666        7.976       30.754       28.927       32.757      945.818      836.796     1073.004        1.065        0.143      135.549       22.106        0.027      342.113       17.295      867.239
11/06/2014  13:15:00       24.827       60.506       -2.353       37.836       54.817       31.861     1431.556     3004.887     1015.136        0.487        0.273       65.402       30.121        0.212      342.339       17.680      867.248
11/06/2014  13:16:00       25.261      103.958      -11.274       43.795       51.283       38.641     1917.989     2629.973     1493.162        0.881        0.302      106.983       33.583        0.099      342.315       17.639      867.255
11/06/2014  13:17:00       30.697      129.773      -13.785       41.156       56.640       31.858     1693.825     3208.045     1014.961        1.194        0.296      133.354       32.643        0.060      342.231       17.495      867.256
11/06/2014  13:18:00       17.348       63.677       -2.746       35.496       42.118       35.457     1259.957     1773.961     1257.169        0.433        0.215       65.998       27.112        0.169      342.476       17.912      867.254
11/06/2014  13:19:00       86.066       65.836       -1.829       39.779       35.909       35.235     1582.383     1289.472     1241.531        0.793        0.206      108.359       28.683        0.070      342.298       17.610      867.243
11/06/2014  13:20:00       88.086       65.519       10.620       41.287       27.408       24.061     1704.616      751.209      578.936        0.760        0.152      109.781       23.102        0.044      342.226       17.486      867.237
11/06/2014  13:21:00       25.438       53.824       13.362       32.329       41.139       34.774     1045.191     1692.405     1209.241        0.383        0.197       59.532       26.366        0.196      342.500       17.954      867.224
11/06/2014  13:22:00       34.341        2.625       12.740       50.725       45.418       24.644     2572.975     2062.783      607.305        0.329        0.262       34.441       22.062        0.410      342.304       17.621      867.205
11/06/2014  13:23:00      122.438       31.667       34.216      105.625       94.625       34.036    11156.670     8953.972     1158.456        1.921        1.063      126.467       38.102        0.091      342.276       17.569      867.159
11/06/2014  13:24:00       93.411       77.404       33.315       51.448       30.048       36.109     2646.879      902.859     1303.857        1.034        0.243      121.314       25.274        0.043      342.436       17.843      867.117
11/06/2014  13:25:00       38.637       41.035       46.016       31.719       58.578       40.075     1006.124     3431.354     1605.973        0.567        0.302       56.363       41.292        0.537      342.344       17.689      867.096
11/06/2014  13:26:00       22.434        3.643        7.243       37.189       48.943       17.748     1383.047     2395.434      314.982        0.233        0.205       22.728       21.247        0.874      342.403       17.791      867.074
11/06/2014  13:27:00       24.138        6.710        8.203       23.869       23.770       16.663      569.749      565.011      277.646        0.105        0.071       25.054       12.300        0.241      342.360       17.716      867.072
11/06/2014  13:28:00       42.039      -29.141        1.301       29.871       31.867       28.017      892.275     1015.515      784.939        0.265        0.135       51.151       22.202        0.188      342.107       17.284      867.063
11/06/2014  13:29:00       46.113       43.849       42.538       32.776       22.246       27.370     1074.277      494.906      749.092        0.409        0.116       63.633       11.496        0.033      342.272       17.567      867.059
11/06/2014  13:30:00       61.815       35.033       20.514       49.579       35.409       25.914     2458.113     1253.772      671.556        0.493        0.219       71.052       14.317        0.041      342.449       17.868      867.059
11/06/2014  13:31:00       10.476       30.373       54.413       26.538       39.237       30.998      704.284     1539.566      960.865        0.360        0.160       32.129       26.552        0.683      342.776       18.423      867.045
11/06/2014  13:32:00       30.767       59.903       52.647       31.400       34.485       25.546      985.986     1189.242      652.578        0.507        0.141       67.342       13.053        0.038      342.505       17.962      867.050
11/06/2014  13:33:00      101.787       96.435       63.093       72.016       37.301       43.388     5186.351     1391.334     1882.541        1.605        0.423      140.215       34.310        0.060      342.592       18.109      867.067
11/06/2014  13:34:00       54.163       56.027       39.056       38.002       35.091       23.346     1444.128     1231.398      545.056        0.541        0.161       77.928        7.036        0.008      342.874       18.590      867.071
11/06/2014  13:35:00       47.730       14.893       20.295       54.286       39.784       32.082     2946.932     1582.790     1029.275        0.423        0.278       49.999       20.837        0.174      342.984       18.777      867.074
11/06/2014  13:36:00      111.290       80.271        6.815       68.085       44.445       35.326     4635.597     1975.351     1247.928        1.337        0.393      137.218       24.555        0.032      342.774       18.418      867.066
11/06/2014  13:37:00       67.430       72.033       -7.634       46.592       41.754       35.518     2170.786     1743.388     1261.544        0.748        0.259       98.669       25.832        0.069      342.702       18.297      867.054
11/06/2014  13:38:00       21.212       73.544        8.163       38.432       28.234       25.366     1477.051      797.155      643.442        0.442        0.146       76.542       22.725        0.088      342.842       18.533      867.057
11/06/2014  13:39:00       30.084       69.583        0.525       49.573       52.026       25.891     2457.488     2706.712      670.340        0.579        0.292       75.808       20.443        0.073      342.884       18.606      867.054
11/06/2014  13:40:00       85.064       55.145        5.720       36.436       28.275       25.953     1327.587      799.486      673.558        0.655        0.140      101.375       17.777        0.031      342.642       18.193      867.074
11/06/2014  13:41:00       84.960       46.749       18.368       31.999       20.212       24.885     1023.925      408.537      619.242        0.590        0.103       96.973        9.546        0.010      342.728       18.342      867.095
11/06/2014  13:42:00       66.170       21.219       14.125       28.491       29.127       22.716      811.725      848.386      516.003        0.360        0.109       69.489       15.721        0.051      342.711       18.310      867.104
11/06/2014  13:43:00       19.036       20.026       10.284       22.447       16.924       13.250      503.876      286.433      175.557        0.092        0.048       27.630       10.948        0.157      342.853       18.553      867.095
11/06/2014  13:44:00       -5.930       57.801      -18.036       17.943       22.603       13.240      321.955      510.911      175.293        0.235        0.050       58.104        9.579        0.027      342.885       18.607      867.054
11/06/2014  13:45:00        5.984       82.923      -18.802       35.440       18.433       17.527     1255.968      339.779      307.191        0.458        0.095       83.139        9.459        0.013      342.908       18.647      867.014
11/06/2014  13:46:00       53.265       57.372        0.988       28.826       23.801       28.379      830.914      566.483      805.364        0.417        0.110       78.287       17.465        0.050      343.003       18.810      866.966
11/06/2014  13:47:00       94.518       49.559        9.972       54.944       46.043       38.314     3018.803     2119.937     1467.977        0.905        0.330      106.723       25.730        0.058      342.910       18.650      866.919
11/06/2014  13:48:00      119.390       75.756       12.925       40.517       38.535       39.979     1641.641     1484.934     1598.357        1.244        0.236      141.396       31.778        0.051      342.991       18.788      866.892
11/06/2014  13:49:00       61.708       55.818       20.200       35.348       33.826       26.532     1249.468     1144.192      703.954        0.521        0.155       83.208       21.597        0.067      343.042       18.875      866.895
11/06/2014  13:50:00       72.312       61.552        1.060       43.365       22.736       28.457     1880.513      516.936      809.811        0.611        0.160       94.961       15.931        0.028      343.104       18.982      866.907
11/06/2014  13:51:00        8.298       49.438       -7.362       24.251       10.813       14.386      588.113      116.920      206.952        0.174        0.046       50.130        6.304        0.016      343.083       18.945      866.948
11/06/2014  13:52:00       17.916       59.771       -7.365       11.242       21.195       16.235      126.385      449.223      263.577        0.239        0.042       62.399        7.289        0.014      343.027       18.850      866.945
11/06/2014  13:53:00       35.948       31.936       -3.653       18.118       22.608       11.906      328.261      511.125      141.751        0.165        0.049       48.085        7.673        0.025      343.117       19.003      866.938
11/06/2014  13:54:00        0.283      113.186      -21.984       22.296       25.693       19.519      497.129      660.143      381.010        0.742        0.077      113.186       11.853        0.011      343.106       18.986      866.910
11/06/2014  13:55:00        2.553       65.492       -5.277       27.441       40.221       20.594      752.984     1617.720      424.102        0.356        0.140       65.542       23.398        0.127      343.225       19.188      866.904
11/06/2014  13:56:00       35.111       35.088       -1.520       15.670       20.371       14.447      245.550      414.988      208.729        0.167        0.043       49.638       10.390        0.044      343.286       19.290      866.893
11/06/2014  13:57:00       29.805      -11.781       22.370       17.383       13.966       14.113      302.155      195.044      199.186        0.111        0.035       32.049        6.376        0.040      343.204       19.150      866.903
11/06/2014  13:58:00       13.524       25.783       15.827       35.367       16.574       18.181     1250.833      274.710      330.538        0.148        0.093       29.114       18.648        0.410      343.273       19.270      866.903
11/06/2014  13:59:00       51.152        2.097        7.720       24.715       24.630       23.373      610.842      606.630      546.309        0.222        0.088       51.195       15.447        0.091      342.831       18.516      866.871
11/06/2014  14:00:00       30.075       -7.832        9.487       34.300       43.428       36.308     1176.502     1886.019     1318.276        0.272        0.219       31.078       24.040        0.598      342.923       18.672      866.838
11/06/2014  14:01:00       22.457      -21.594        8.223       36.046       35.314       20.740     1299.321     1247.092      430.164        0.201        0.149       31.155       18.995        0.372      343.207       19.155      866.814
11/06/2014  14:02:00        6.367       19.753       27.927       16.058       26.066       16.875      257.867      679.419      284.779        0.122        0.061       20.754       11.049        0.283      343.763       20.104      866.787
11/06/2014  14:03:00       30.717      -34.801        1.264       28.480       21.843       24.195      811.118      477.127      585.417        0.201        0.094       46.418       15.607        0.113      342.847       18.544      866.770
11/06/2014  14:04:00       45.394      -50.183        3.036       27.826       22.161       24.321      774.309      491.089      591.501        0.322        0.093       67.668       14.764        0.048      342.914       18.657      866.735
11/06/2014  14:05:00       41.071        8.840       42.217       43.522       52.452       38.229     1894.197     2751.177     1461.426        0.483        0.305       42.012       42.508        1.024      343.091       18.959      866.713
11/06/2014  14:06:00       54.228      -15.340       25.086       27.093       26.292       34.508      734.013      691.243     1190.781        0.321        0.131       56.356       19.293        0.117      343.158       19.072      866.701
11/06/2014  14:07:00       17.446       50.271       53.401       35.325       51.892       47.357     1247.851     2692.732     2242.690        0.593        0.309       53.212       40.294        0.573      343.257       19.241      866.675
11/06/2014  14:08:00       92.765       72.656       62.168       83.581       48.100       52.157     6985.726     2313.641     2720.310        1.488        0.601      117.831       56.776        0.232      343.315       19.340      866.676
11/06/2014  14:09:00       81.451       41.049       19.706       65.484       50.536       34.185     4288.095     2553.894     1168.612        0.836        0.401       91.210       25.415        0.078      343.371       19.437      866.709
11/06/2014  14:10:00       18.707      -37.576        4.613       39.197       33.551       24.415     1536.395     1125.697      596.088        0.252        0.163       41.975       25.474        0.368      343.262       19.249      866.721
11/06/2014  14:11:00       34.538      -69.940       -2.156       35.829       66.031       24.253     1283.692     4360.090      588.226        0.616        0.312       78.003       24.765        0.101      343.610       19.844      866.739
11/06/2014  14:12:00       91.833     -126.254      -14.287       34.423       42.176       24.425     1184.935     1778.849      596.604        1.407        0.178      156.120       20.749        0.018      343.672       19.948      866.721
11/06/2014  14:13:00       67.284      -21.388        4.148       24.637       32.287       17.894      606.975     1042.420      320.197        0.349        0.098       70.602       16.458        0.054      343.537       19.719      866.708
11/06/2014  14:14:00       36.456       23.206       25.892       23.895       27.115       18.494      570.981      735.222      342.027        0.209        0.082       43.215       17.138        0.157      343.545       19.732      866.702
11/06/2014  14:15:00       27.891      -17.557        1.241       18.288       18.190       11.808      334.454      330.887      139.438        0.095        0.040       32.957        8.810        0.071      343.715       20.022      866.682
11/06/2014  14:16:00        8.524      -56.920       -8.969       16.015       19.735       21.565      256.482      389.464      465.030        0.225        0.056       57.554       14.855        0.067      343.794       20.156      866.680
11/06/2014  14:17:00       -5.890        4.669       20.012       14.957       26.508       23.110      223.712      702.673      534.080        0.096        0.073        7.516       21.893        8.484      343.907       20.351      866.689
11/06/2014  14:18:00       26.239      -17.376       16.141       26.828       21.664       14.770      719.764      469.333      218.141        0.133        0.070       31.471       15.066        0.229      343.734       20.054      866.697
11/06/2014  14:19:00       47.741      -22.156       12.272       36.631       22.834       26.056     1341.815      521.411      678.915        0.273        0.127       52.631       22.352        0.180      343.506       19.665      866.695
11/06/2014  14:20:00       58.438      -13.723       18.910       12.429       10.011       16.068      154.469      100.222      258.175        0.224        0.026       60.027        8.102        0.018      343.744       20.070      866.701
11/06/2014  14:21:00       43.412       -6.194       14.017       25.520       27.384       23.032      651.275      749.907      530.470        0.203        0.097       43.852       10.674        0.059      343.624       19.866      866.696
11/06/2014  14:22:00       32.969       -3.680       20.613       18.440       16.688       23.810      340.020      278.483      566.938        0.136        0.059       33.174       13.001        0.154      343.428       19.534      866.689
11/06/2014  14:23:00       39.004        3.705       12.055       17.726       14.817       15.537      314.206      219.544      241.413        0.123        0.039       39.180        8.173        0.044      343.447       19.564      866.695
11/06/2014  14:24:00        3.123      -13.963        2.315       38.633       20.701       12.956     1492.535      428.526      167.862        0.115        0.104       14.308       11.062        0.598      343.979       20.474      866.734
11/06/2014  14:25:00      -10.904       -1.038        7.128       41.495       21.686       19.646     1721.848      470.268      385.954        0.137        0.129       10.953       12.912        1.390      343.821       20.203      866.765
11/06/2014  14:26:00       -5.519       10.465       19.992       36.562       21.304       15.848     1336.767      453.880      251.168        0.129        0.102       11.832        7.509        0.403      343.652       19.914      866.768
11/06/2014  14:27:00       21.089        8.942       18.918       27.704       15.771       16.731      767.526      248.728      279.924        0.109        0.065       22.906       15.518        0.459      343.511       19.675      866.757
11/06/2014  14:28:00       -3.770       -2.900        0.363       20.371       16.533       12.025      414.968      273.346      144.591        0.043        0.042        4.756       14.329        9.076      343.937       20.400      866.746
11/06/2014  14:29:00       15.424       53.177        3.844       20.243       19.745       17.221      409.770      389.874      296.570        0.209        0.055       55.369       13.396        0.059      344.002       20.511      866.748
11/06/2014  14:30:00       -7.119       35.758       14.541       26.150       28.190       19.545      683.806      794.657      382.012        0.170        0.093       36.460       19.996        0.301      344.455       21.285      866.739
11/06/2014  14:31:00       34.443       54.617        7.935       52.145       35.416       24.162     2719.118     1254.310      583.811        0.439        0.228       64.571       19.659        0.093      344.136       20.743      866.722
11/06/2014  14:32:00       79.050       41.280        1.923       33.897       32.571       22.910     1149.016     1060.892      524.866        0.535        0.137       89.180        8.280        0.009      343.991       20.492      866.725
11/06/2014  14:33:00       98.504       65.813       21.232       32.105       31.112       28.427     1030.707      967.966      808.111        0.865        0.140      118.467       10.637        0.008      343.939       20.405      866.736
11/06/2014  14:34:00       83.749       60.041       12.672       42.848       31.852       23.179     1835.986     1014.575      537.263        0.708        0.169      103.048       13.258        0.017      344.018       20.537      866.735
11/06/2014  14:35:00       53.594       48.514        3.766       41.576       26.718       20.916     1728.535      713.854      437.476        0.406        0.144       72.290       15.356        0.045      344.162       20.784      866.753
11/06/2014  14:36:00       32.795       37.177        3.329       49.426       39.285       25.356     2442.903     1543.288      642.915        0.355        0.231       49.575       27.075        0.298      344.180       20.816      866.769
11/06/2014  14:37:00       79.179       39.836       15.049       37.365       26.728       24.082     1396.109      714.403      579.922        0.539        0.135       88.635       16.999        0.037      344.128       20.729      866.773
11/06/2014  14:38:00       78.147       43.538        8.990       27.771       22.796       24.261      771.221      519.636      588.592        0.498        0.094       89.457       15.039        0.028      343.714       20.020      866.781
11/06/2014  14:39:00      101.739       25.165        9.392       27.623       22.612       25.491      763.044      511.289      649.774        0.650        0.096      104.805       10.681        0.010      343.474       19.612      866.780
11/06/2014  14:40:00       99.906       66.964       19.702       25.779       13.574       17.619      664.572      184.245      310.421        0.801        0.058      120.272       11.722        0.009      344.006       20.520      866.757
11/06/2014  14:41:00       82.361       49.875       30.890       21.265       34.361       18.984      452.216     1180.674      360.390        0.611        0.100       96.286       13.111        0.019      344.041       20.579      866.738
11/06/2014  14:42:00       43.332      -20.339      -13.992       24.651       36.904       18.711      607.664     1361.899      350.106        0.240        0.116       47.867       14.469        0.091      343.339       19.382      866.739
11/06/2014  14:43:00        0.645       -4.738        6.055       33.767       40.916       18.554     1140.239     1674.155      344.268        0.161        0.158        4.782       14.557        9.267      344.229       20.900      866.705
11/06/2014  14:44:00       33.113       30.056        5.483       44.417       39.720       20.445     1972.830     1577.660      417.986        0.300        0.198       44.720       24.161        0.292      344.394       21.182      866.690
11/06/2014  14:45:00      -16.769       45.840       -6.133       22.835       33.102       18.450      521.460     1095.768      340.413        0.219        0.098       48.811       14.603        0.090      344.419       21.225      866.701
11/06/2014  14:46:00        7.792       50.749        0.563       25.924       35.001       17.689      672.071     1225.050      312.905        0.242        0.111       51.344       17.653        0.118      344.444       21.268      866.690
11/06/2014  14:47:00       21.501       -9.276        3.524       19.806       25.432       23.407      392.289      646.771      547.872        0.107        0.079       23.417       16.621        0.504      343.841       20.238      866.691
11/06/2014  14:48:00        1.294      -10.264       -0.039        6.811       14.684       10.254       46.396      215.609      105.142        0.024        0.018       10.346        8.606        0.692      344.517       21.393      866.701
11/06/2014  14:49:00       11.991       17.429       -2.133       14.607       12.114       10.563      213.376      146.742      111.574        0.046        0.024       21.156       11.087        0.275      344.290       21.003      866.697
11/06/2014  14:50:00      -68.975       12.833       -5.811       61.474       24.063       19.114     3779.015      579.032      365.354        0.484        0.236       70.159       19.521        0.077      344.518       21.393      866.708
11/06/2014  14:51:00       -5.952        7.321        7.415       57.538       24.004       22.754     3310.632      576.205      517.728        0.227        0.220        9.435       35.272       13.975      344.480       21.328      866.695
11/06/2014  14:52:00       65.755      114.752       -6.395       63.115       58.714       41.082     3983.480     3447.344     1687.728        1.332        0.456      132.257       40.952        0.096      344.136       20.741      866.638
11/06/2014  14:53:00       44.773      225.643      -43.010       48.005       46.617       24.005     2304.517     2173.133      576.253        2.991        0.253      230.042       18.189        0.006      344.320       21.052      866.608
11/06/2014  14:54:00      -21.762      193.237      -27.506       87.954      103.386       46.988     7735.907    10688.747     2207.915        2.960        1.032      194.459       54.859        0.080      344.460       21.292      866.575
11/06/2014  14:55:00      -60.844       48.885       24.462       87.220       32.964       42.962     7607.381     1086.618     1845.772        0.861        0.527       78.049       39.709        0.259      344.709       21.721      866.623
11/06/2014  14:56:00       25.090      -28.492       22.160       36.603       46.081       35.910     1339.761     2123.447     1289.551        0.334        0.238       37.964       31.146        0.673      344.558       21.462      866.638
11/06/2014  14:57:00       18.615      -23.129       22.091       36.504       34.163       19.448     1332.533     1167.143      378.242        0.212        0.144       29.690       14.527        0.239      344.374       21.148      866.631
11/06/2014  14:58:00        1.843        2.380       16.639       36.370       44.024       26.123     1322.777     1938.106      682.398        0.211        0.197        3.010       23.582       61.370      343.818       20.198      866.601
11/06/2014  14:59:00       13.116       62.417       57.876       37.719       58.376       41.180     1422.753     3407.701     1695.764        0.697        0.326       63.780       33.784        0.281      344.251       20.937      866.598
11/06/2014  15:00:00       35.944      -20.083       53.626       64.572       69.509       49.334     4169.505     4831.485     2433.888        0.800        0.572       41.174       43.499        1.116      344.324       21.064      866.610
11/06/2014  15:01:00       78.816      -42.572       13.533       58.318       66.668       42.834     3401.027     4444.688     1834.741        0.894        0.484       89.579       41.112        0.211      344.318       21.052      866.636
11/06/2014  15:02:00       41.396       -1.344       13.599       27.231       24.512       29.142      741.504      600.823      849.230        0.205        0.110       41.418       17.059        0.170      344.134       20.737      866.652
11/06/2014  15:03:00        8.235        6.799       15.984       27.806       26.156       22.989      773.194      684.136      528.476        0.118        0.099       10.679       19.154        3.217      344.146       20.758      866.652
11/06/2014  15:04:00        5.841       -0.979       21.896       28.244       34.134       22.132      797.752     1165.156      489.826        0.148        0.123        5.922       16.705        7.956      344.012       20.529      866.632
11/06/2014  15:05:00       -0.520        1.849        9.316       13.321       23.307       19.558      177.447      543.238      382.525        0.060        0.055        1.920       14.649       58.197      344.060       20.611      866.634
11/06/2014  15:06:00       22.197       18.452       45.246       45.682       51.173       43.938     2086.856     2618.724     1930.530        0.476        0.332       28.865       40.211        1.941      344.141       20.750      866.647
11/06/2014  15:07:00       33.053       23.016       13.731       32.633       31.796       28.034     1064.908     1010.988      785.926        0.234        0.143       40.277       13.574        0.114      344.254       20.942      866.622
11/06/2014  15:08:00       31.575        8.025       23.797       31.633       45.598       34.669     1000.670     2079.145     1201.917        0.295        0.214       32.579       24.642        0.572      344.232       20.905      866.599
11/06/2014  15:09:00       58.810       86.427       85.860       54.595       48.694       34.188     2980.577     2371.119     1168.819        1.241        0.326      104.538       35.272        0.114      344.034       20.566      866.598
11/06/2014  15:10:00       61.712       61.052       64.451       64.084       81.171       54.615     4106.800     6588.751     2982.817        1.268        0.684       86.809       50.306        0.336      344.177       20.810      866.600
11/06/2014  15:11:00       -0.007       -2.682       32.270       24.633       45.629       31.494      606.808     2081.996      991.846        0.236        0.184        2.682       31.426      137.327      344.162       20.785      866.620
11/06/2014  15:12:00       25.489       21.969       42.688       27.239       38.183       18.508      741.966     1457.976      342.537        0.275        0.127       33.651       19.111        0.323      344.111       20.698      866.632
11/06/2014  15:13:00       26.553      -17.829       26.511       40.539       68.985       41.717     1643.414     4758.948     1740.274        0.493        0.407       31.983       46.071        2.075      344.157       20.778      866.629
11/06/2014  15:14:00      115.226     -180.683      -18.820       67.656       74.613       30.533     4577.361     5567.105      932.294        2.867        0.554      214.297       42.125        0.039      344.680       21.667      866.648
11/06/2014  15:15:00       62.841      -94.508       -8.742       57.621       85.903       48.425     3320.201     7379.294     2344.966        1.300        0.652      113.493       37.123        0.107      344.689       21.685      866.640
11/06/2014  15:16:00       64.084      -32.524       15.134       70.704       77.015       51.305     4999.103     5931.327     2632.189        0.948        0.678       71.865       54.267        0.570      344.366       21.133      866.620
11/06/2014  15:17:00       37.654      -12.644       36.364       50.998       52.002       41.279     2600.763     2704.258     1703.961        0.495        0.350       39.720       30.857        0.604      344.232       20.904      866.612
11/06/2014  15:18:00       25.416       63.166       71.635       49.594       39.867       33.987     2459.559     1589.353     1155.094        0.748        0.260       68.087       24.122        0.126      344.233       20.906      866.607
11/06/2014  15:19:00       33.266       28.590       38.319       49.512       40.528       39.846     2451.394     1642.491     1587.705        0.454        0.284       43.863       32.026        0.533      344.506       21.373      866.617
11/06/2014  15:20:00      -59.268      -61.682      -12.907       32.659       35.058       18.956     1066.609     1229.090      359.322        0.507        0.133       85.542       13.221        0.024      344.773       21.830      866.640
11/06/2014  15:21:00      -79.275      -60.504       -5.326       63.079       48.591       28.023     3978.960     2361.074      785.295        0.855        0.356       99.726       19.792        0.039      344.895       22.039      866.666
11/06/2014  15:22:00      -96.644      -59.935        5.161       62.347       48.147       35.087     3887.094     2318.173     1231.070        1.020        0.372      113.720       35.256        0.096      344.818       21.907      866.697
11/06/2014  15:23:00       -3.139      -52.967       11.318       53.707       50.660       28.597     2884.399     2566.429      817.792        0.460        0.313       53.060       29.454        0.308      344.592       21.520      866.710
11/06/2014  15:24:00       44.316      -95.372       -2.962       42.131       30.481       22.182     1775.020      929.103      492.049        0.713        0.160      105.166       14.819        0.020      344.823       21.915      866.712
11/06/2014  15:25:00        4.815       12.231       19.027       28.942       27.879       17.010      837.649      777.215      289.345        0.122        0.095       13.145       19.227        2.139      344.438       21.257      866.704
11/06/2014  15:26:00     -152.745      -26.645       -7.615       77.706       65.449       27.694     6038.170     4283.586      766.958        1.759        0.554      155.051       18.669        0.014      344.855       21.969      866.725
11/06/2014  15:27:00      -84.474       -9.970       -3.529       38.015       50.381       23.546     1445.132     2538.283      554.392        0.589        0.227       85.060       21.008        0.061      344.861       21.981      866.710
11/06/2014  15:28:00     -110.675      -71.911       -8.360       74.022       70.299       49.252     5479.185     4942.003     2425.713        1.517        0.642      131.986       44.099        0.112      345.030       22.270      866.684
11/06/2014  15:29:00      -97.285      -32.720       11.952       99.413       75.248       46.757     9882.972     5662.331     2186.205        1.420        0.887      102.640       47.385        0.213      345.091       22.373      866.685
11/06/2014  15:30:00     -240.262     -136.534       -9.408      114.459      136.623       56.184    13100.934    18665.978     3156.689        5.568        1.746      276.347       60.986        0.049      345.081       22.354      866.706
11/06/2014  15:31:00     -356.524     -152.719      -17.738      185.690      129.414       80.649    34480.895    16748.062     6504.198       10.423        2.887      387.856       85.833        0.049      345.088       22.367      866.703
11/06/2014  15:32:00     -399.733     -185.876      -14.101      201.042      157.000       85.790    40417.799    24649.044     7359.954       13.347        3.621      440.836       95.431        0.047      345.049       22.300      866.687
11/06/2014  15:33:00     -299.408     -153.065       -6.750      194.452      111.275       67.310    37811.508    12382.140     4530.641        8.391        2.736      336.265       87.086        0.067      345.045       22.293      866.679
11/06/2014  15:34:00     -232.956     -208.492       12.093      179.689      186.888      104.294    32288.067    34927.161    10877.190        8.797        3.905      312.630       96.777        0.096      345.014       22.239      866.676
11/06/2014  15:35:00      -53.567      -21.284       32.408      134.348       89.670       73.232    18049.351     8040.743     5362.869        1.791        1.573       57.641       61.173        1.126      344.971       22.168      866.672
11/06/2014  15:36:00     -209.267      -52.876       -4.181      112.465       77.428       45.993    12648.405     5995.040     2115.329        3.368        1.038      215.844       53.350        0.061      345.067       22.332      866.685
11/06/2014  15:37:00     -345.966     -111.048       -1.957      184.800      142.951       88.685    34150.859    20435.131     7865.045        9.723        3.123      363.352      100.886        0.077      345.025       22.259      866.675
11/06/2014  15:38:00     -423.915     -220.723      -12.810      173.830      177.605       86.633    30217.026    31543.437     7505.343       14.891        3.463      477.936       81.367        0.029      345.013       22.239      866.625
11/06/2014  15:39:00     -408.998      -46.487      -20.078      156.754      143.903       83.507    24571.715    20708.109     6973.380       11.104        2.613      411.631       88.670        0.046      345.045       22.292      866.636
11/06/2014  15:40:00     -235.364     -161.068        1.607      184.676      140.345       90.740    34105.242    19696.661     8233.692        7.168        3.102      285.200      105.416        0.137      345.002       22.219      866.647
11/06/2014  15:41:00     -211.186     -100.425        2.612      155.531      116.500       74.907    24189.784    13572.143     5611.082        4.902        2.169      233.847       91.047        0.152      345.044       22.292      866.653
11/06/2014  15:42:00     -276.375     -113.859        4.288      142.426      163.036       74.660    20285.128    26580.603     5574.162        7.089        2.622      298.909       80.505        0.073      345.006       22.225      866.666
11/06/2014  15:43:00     -323.834     -118.479       -1.792      203.749      162.633       97.984    41513.839    26449.612     9600.826        9.822        3.878      344.827      113.105        0.108      344.973       22.170      866.652
11/06/2014  15:44:00     -298.251     -114.566      -11.901      179.067      120.803       76.392    32064.939    14593.247     5835.719        7.735        2.625      319.498       86.515        0.073      344.973       22.170      866.685
11/06/2014  15:45:00     -243.054     -174.105       -4.596      159.275      118.265       77.948    25368.516    13986.701     6075.815        6.741        2.272      298.978       85.271        0.081      344.951       22.131      866.705
11/06/2014  15:46:00     -426.401      -61.280      -28.891      168.350      118.405       76.080    28341.809    14019.653     5788.234       11.727        2.407      430.782       80.456        0.035      344.945       22.121      866.694
11/06/2014  15:47:00     -435.288     -191.704       -1.524      228.748      174.364      105.801    52325.845    30402.936    11193.782       16.006        4.696      475.632      112.752        0.056      344.922       22.082      866.676
11/06/2014  15:48:00     -431.771      -55.367      -29.691      214.824      173.517       86.525    46149.302    30108.189     7486.516       13.704        4.187      435.306       88.514        0.041      344.897       22.040      866.691
11/06/2014  15:49:00     -327.979      -47.144      -17.027      183.606      144.251       68.028    33711.009    20808.329     4627.831        8.460        2.957      331.350       76.679        0.054      344.885       22.020      866.704
11/06/2014  15:50:00     -214.148     -119.228        0.341      168.506      139.202       70.420    28394.379    19377.165     4958.916        5.639        2.637      245.102       79.564        0.105      344.879       22.008      866.717
11/06/2014  15:51:00     -425.802      -74.523      -27.642      194.523      165.033       74.861    37839.365    27236.003     5604.117       12.914        3.534      432.274       87.733        0.041      344.834       21.931      866.730
11/06/2014  15:52:00     -222.933     -194.742       -0.415      166.413      142.418       76.373    27693.170    20282.789     5832.765        7.071        2.690      296.013       83.809        0.080      344.815       21.898      866.730
11/06/2014  15:53:00     -297.986      -90.567        5.850      139.309      156.922       62.100    19406.895    24624.531     3856.425        7.245        2.394      311.445       58.667        0.035      344.834       21.931      866.762
11/06/2014  15:54:00     -417.308     -110.980      -40.147      176.939      137.830       75.574    31307.478    18997.108     5711.398       12.203        2.801      431.813       69.405        0.026      344.849       21.956      866.774
11/06/2014  15:55:00     -206.509     -144.090        1.310      203.123      158.433       78.626    41259.086    25100.948     6182.049        6.796        3.627      251.810       97.942        0.151      344.841       21.944      866.772
11/06/2014  15:56:00     -271.923     -193.227      -10.496      156.166      136.409       74.957    24387.682    18607.438     5618.586        7.999        2.431      333.585       79.658        0.057      344.774       21.828      866.787
11/06/2014  15:57:00     -176.749      -12.145        5.800      139.272       90.562       54.885    19396.755     8201.457     3012.347        3.101        1.531      177.166       65.401        0.136      344.802       21.877      866.778
11/06/2014  15:58:00     -155.199      -14.146       -3.062      106.953       98.521       55.194    11439.047     9706.293     3046.415        2.424        1.210      155.843       46.854        0.090      344.817       21.903      866.799
11/06/2014  15:59:00     -346.409      -77.313      -16.323      150.374      133.749       72.293    22612.229    17888.813     5226.333        8.598        2.286      354.932       67.602        0.036      344.777       21.833      866.782
11/06/2014  16:00:00     -320.922     -111.860      -15.486      194.832      142.334       79.786    37959.680    20258.908     6365.743        9.015        3.229      339.858       78.153        0.053      344.746       21.779      866.774
11/06/2014  16:01:00     -368.073      -69.417      -17.446      196.407      149.819       72.327    38575.636    22445.709     5231.168       10.341        3.313      374.562       70.947        0.036      344.753       21.791      866.783
11/06/2014  16:02:00     -429.451       -7.220      -24.000      177.374      132.202       80.004    31461.402    17477.453     6400.683       12.019        2.767      429.512       84.383        0.039      344.753       21.792      866.779
11/06/2014  16:03:00     -453.298     -127.117      -34.700      197.158      135.421       75.668    38871.296    18338.784     5725.650       14.288        3.147      470.785       89.252        0.036      344.704       21.708      866.788
11/06/2014  16:04:00     -388.084     -108.095       -8.975      180.993      131.631       80.601    32758.353    17326.724     6496.574       10.947        2.829      402.857       97.714        0.059      344.697       21.696      866.799
11/06/2014  16:05:00     -357.349     -142.205      -22.976      148.615       87.894       54.939    22086.343     7725.283     3018.274        9.063        1.641      384.605       48.719        0.016      344.665       21.640      866.777
11/06/2014  16:06:00     -163.849      -53.372       -0.159       76.433       64.526       47.612     5841.955     4163.666     2266.915        2.098        0.614      172.323       45.234        0.069      344.695       21.693      866.780
11/06/2014  16:07:00     -308.070     -123.913       -6.716      183.806      134.598       69.871    33784.695    18116.750     4881.998        8.353        2.839      332.056       73.043        0.048      344.657       21.627      866.752
11/06/2014  16:08:00     -372.190     -142.893      -18.924      169.374      139.752       78.540    28687.465    19530.628     6168.510       10.683        2.719      398.678       95.398        0.057      344.597       21.526      866.756
11/06/2014  16:09:00     -253.793     -126.196        5.775      158.384      155.115       75.647    25085.571    24060.647     5722.397        6.761        2.743      283.436       73.180        0.067      344.525       21.404      866.719
11/06/2014  16:10:00     -286.879      -62.730      -13.361      163.790      156.660       71.821    26827.014    24542.298     5158.197        7.146        2.826      293.657       62.905        0.046      344.543       21.432      866.720
11/06/2014  16:11:00     -308.120      -83.609      -12.828      151.640      119.122       66.166    22994.563    14190.122     4377.909        7.182        2.078      319.262       73.061        0.052      344.530       21.410      866.728
11/06/2014  16:12:00     -265.211      -84.367       -4.920      111.379       98.254       54.614    12405.184     9653.809     2982.706        5.126        1.252      278.307       55.845        0.040      344.493       21.347      866.708
11/06/2014  16:13:00     -278.032        9.201       -3.717      178.564      131.765       76.982    31885.228    17362.018     5926.192        6.628        2.759      278.184       78.243        0.079      344.469       21.307      866.713
11/06/2014  16:14:00     -298.925      -77.830       -0.513      197.005      106.990       58.393    38811.045    11446.902     3409.747        7.453        2.683      308.891       64.651        0.044      344.470       21.309      866.712
11/06/2014  16:15:00     -380.417     -169.209      -28.697      131.977      132.407       73.241    17417.961    17531.602     5364.180       10.723        2.016      416.352       70.813        0.029      344.429       21.237      866.710
11/06/2014  16:16:00     -367.864      -25.929       -6.451      202.796      163.016       85.736    41126.148    26574.128     7350.624       10.553        3.753      368.777       96.502        0.068      344.364       21.127      866.718
11/06/2014  16:17:00     -348.482     -110.733      -15.991      183.142      158.360       78.731    33540.995    25077.772     6198.523        9.937        3.241      365.653       93.267        0.065      344.402       21.193      866.737
11/06/2014  16:18:00     -289.875     -242.565       -9.605      163.814      122.725       83.163    26835.160    15061.443     6916.160        9.588        2.441      377.975       90.851        0.058      344.366       21.129      866.752
11/06/2014  16:19:00     -329.289      -21.422       -8.876      172.820      173.156       85.937    29866.829    29982.959     7385.094        8.809        3.362      329.985       90.127        0.075      344.367       21.133      866.751
11/06/2014  16:20:00     -379.231      -69.999        3.035      176.674      189.855       90.000    31213.645    36044.858     8100.045       11.203        3.768      385.637       86.190        0.050      344.362       21.125      866.762
11/06/2014  16:21:00     -302.008     -133.019        2.812      178.075      150.851       79.466    31710.728    22756.044     6314.819        8.483        3.039      330.004       93.479        0.080      344.321       21.055      866.772
11/06/2014  16:22:00     -161.538     -107.158        1.802      203.768      127.820       61.739    41521.305    16337.948     3811.755        4.961        3.084      193.848       64.018        0.109      344.298       21.016      866.783
11/06/2014  16:23:00     -200.920      -46.151       18.223      142.601      107.381       83.822    20334.982    11530.771     7026.115        4.085        1.945      206.153       90.597        0.193      344.265       20.958      866.790
11/06/2014  16:24:00     -197.706      -20.290        1.983      119.422       88.135       60.014    14261.728     7767.796     3601.710        3.256        1.282      198.745       66.485        0.112      344.219       20.881      866.818
11/06/2014  16:25:00     -278.564      -39.508      -11.299      147.983      124.626       64.851    21898.932    15531.754     4205.616        6.045        2.082      281.351       65.531        0.054      344.207       20.857      866.838
11/06/2014  16:26:00     -295.924      -63.990       -8.821      133.917      115.760       57.440    17933.835    13400.363     3299.362        6.318        1.732      302.764       58.538        0.037      344.176       20.806      866.858
11/06/2014  16:27:00     -300.585      -68.218      -16.018      123.557      112.724       60.392    15266.275    12706.591     3647.154        6.343        1.581      308.229       60.130        0.038      344.176       20.805      866.875
11/06/2014  16:28:00     -223.033      -20.154       -5.331      122.786      108.363       59.753    15076.358    11742.500     3570.469        4.028        1.519      223.941       63.348        0.080      344.128       20.724      866.870
11/06/2014  16:29:00     -240.256     -102.876       -0.569      105.427       76.010       53.093    11114.804     5777.480     2818.905        4.400        0.986      261.355       45.191        0.030      344.126       20.720      866.859
11/06/2014  16:30:00     -430.777      -95.759      -31.512      194.103       99.891       71.962    37675.891     9978.251     5178.518       12.427        2.642      441.292       83.139        0.035      344.161       20.780      866.859
11/06/2014  16:31:00     -249.790     -120.463       -7.480      174.416      124.212       56.684    30420.824    15428.665     3213.058        6.300        2.453      277.320       54.776        0.039      344.111       20.695      866.861
11/06/2014  16:32:00     -330.605     -104.494      -22.017      135.857       93.314       63.091    18457.076     8707.435     3980.445        7.592        1.557      346.726       72.530        0.044      344.098       20.671      866.861
11/06/2014  16:33:00     -311.514     -119.773      -20.305       98.858       93.366       54.772     9772.925     8717.141     3000.012        6.664        1.075      333.746       40.977        0.015      344.071       20.626      866.855
11/06/2014  16:34:00     -208.827      -88.200       -2.917      144.320      104.776       71.743    20828.400    10978.056     5147.110        4.417        1.848      226.689       74.921        0.109      344.026       20.549      866.867
11/06/2014  16:35:00     -187.741     -101.771        0.546      132.629       93.510       71.485    17590.503     8744.136     5110.094        3.852        1.572      213.551       71.692        0.113      343.996       20.498      866.858
11/06/2014  16:36:00     -201.237     -105.399       -5.524      113.558       95.341       55.967    12895.444     9089.838     3132.332        3.837        1.256      227.168       62.579        0.076      343.952       20.422      866.861
11/06/2014  16:37:00     -275.466     -101.630       -5.217      154.195      119.616       61.947    23776.100    14307.878     3837.377        6.407        2.096      293.616       72.608        0.061      343.951       20.422      866.856
11/06/2014  16:38:00     -348.263     -161.753      -13.344      145.805      117.753       66.020    21259.012    13865.815     4358.688        9.355        1.974      383.994       50.458        0.017      343.936       20.395      866.841
11/06/2014  16:39:00     -223.038      -37.325        6.740      122.697       89.376       63.141    15054.671     7988.013     3986.792        3.910        1.351      226.140       69.867        0.095      343.840       20.232      866.847
11/06/2014  16:40:00     -336.253      -80.944      -16.030      110.851      108.841       66.918    12288.028    11846.364     4478.071        7.424        1.431      345.858       58.866        0.029      343.838       20.229      866.862
11/06/2014  16:41:00     -368.089      -57.629      -24.072      124.102       79.616       61.593    15401.408     6338.738     3793.730        8.246        1.277      372.573       61.321        0.027      343.829       20.215      866.868
11/06/2014  16:42:00     -199.069      -64.261       -8.162      122.759       99.912       62.684    15069.688     9982.337     3929.260        3.640        1.449      209.184       59.813        0.082      343.783       20.134      866.874
11/06/2014  16:43:00     -198.093      -84.625       -4.247      103.078       94.245       52.082    10625.098     8882.203     2712.529        3.432        1.111      215.411       46.467        0.047      343.767       20.109      866.880
11/06/2014  16:44:00     -277.835      -62.481      -20.499      126.004       89.161       52.686    15877.125     7949.596     2775.860        5.405        1.330      284.774       46.158        0.026      343.772       20.116      866.894
11/06/2014  16:45:00     -336.048      -62.159       -9.874      182.757      130.606       70.202    33400.298    17057.942     4928.325        8.613        2.769      341.749       81.899        0.057      343.763       20.100      866.897
11/06/2014  16:46:00     -337.555     -106.194      -11.095      215.730      126.947       74.427    46539.587    16115.608     5539.423        9.676        3.410      353.865       97.810        0.076      343.708       20.008      866.891
11/06/2014  16:47:00     -327.559      -92.935      -17.867      113.393      104.137       56.339    12857.972    10844.456     3174.038        7.156        1.344      340.487       58.262        0.029      343.710       20.008      866.909
11/06/2014  16:48:00     -366.500      -76.752      -22.368      227.384      128.980       71.682    51703.379    16635.923     5138.267       10.708        3.674      374.450       88.160        0.055      343.717       20.022      866.904
11/06/2014  16:49:00     -360.968     -117.446      -11.223      137.706      131.074       73.516    18962.999    17180.304     5404.596        9.287        2.077      379.594       70.443        0.034      343.681       19.960      866.888
11/06/2014  16:50:00     -406.950      -51.315      -17.686      125.518      112.556       77.209    15754.656    12668.912     5961.237       10.146        1.719      410.172       65.707        0.026      343.717       20.021      866.886
11/06/2014  16:51:00     -379.420      -87.382      -16.002      123.332      122.317       73.305    15210.708    14961.353     5373.645        9.369        1.777      389.352       70.883        0.033      343.714       20.019      866.875
11/06/2014  16:52:00     -291.382      -81.707       -1.732      175.944      101.806       60.428    30956.302    10364.531     3651.484        6.827        2.249      302.621       74.079        0.060      343.635       19.882      866.878
11/06/2014  16:53:00     -355.121      -47.166      -10.531      178.268      110.178       75.452    31779.582    12139.163     5693.036        8.902        2.481      358.239       91.987        0.066      343.594       19.813      866.912
11/06/2014  16:54:00     -373.334      -78.748      -18.943      133.090      119.902       65.330    17712.827    14376.372     4268.064        9.114        1.818      381.549       72.254        0.036      343.605       19.831      866.938
11/06/2014  16:55:00     -416.820      -68.357      -14.254      168.773      104.111       77.716    28484.394    10839.084     6039.841       11.198        2.268      422.388       84.418        0.040      343.607       19.834      866.958
11/06/2014  16:56:00     -402.747      -88.485      -15.905      143.338      133.812       74.655    20545.649    17905.675     5573.317       10.715        2.201      412.353       66.363        0.026      343.653       19.913      866.974
11/06/2014  16:57:00     -442.111      -70.655      -12.276      164.490      125.236       80.173    27056.851    15683.988     6427.787       12.488        2.458      447.721       88.761        0.039      343.651       19.908      866.988
11/06/2014  16:58:00     -339.369     -130.497      -16.847      190.243       98.346       73.480    36192.456     9671.926     5399.374        9.186        2.563      363.595       85.340        0.055      343.570       19.771      867.012
11/06/2014  16:59:00     -212.639      -16.222      -15.575      136.186       94.902       51.891    18546.516     9006.367     2692.708        3.798        1.512      213.257       48.602        0.052      343.501       19.655      867.013
11/06/2014  17:00:00     -386.377      -78.815      -14.558      101.237       93.492       58.974    10249.007     8740.813     3477.986        8.908        1.123      394.334       49.765        0.016      343.575       19.780      867.019
11/06/2014  17:01:00     -285.495      -77.442       -9.100      143.771       99.179       59.559    20670.174     9836.411     3547.318        6.081        1.703      295.812       59.745        0.041      343.550       19.737      867.029
11/06/2014  17:02:00     -205.950      -56.798        2.356      132.624      112.514       58.984    17589.257    12659.496     3479.067        3.968        1.686      213.639       64.889        0.092      343.494       19.643      867.045
11/06/2014  17:03:00     -271.605     -103.054      -18.385      176.863       95.717       63.448    31280.521     9161.792     4025.608        6.459        2.223      290.498       79.493        0.075      343.521       19.688      867.038
11/06/2014  17:04:00     -227.195      -36.831       -2.967      145.930      114.454       59.220    21295.594    13099.722     3507.037        4.543        1.895      230.161       65.379        0.081      343.505       19.661      867.026
11/06/2014  17:05:00     -371.041      -98.475      -10.219      151.443      132.113       70.410    22934.880    17453.955     4957.559        9.640        2.267      383.886       76.411        0.040      343.525       19.695      867.031
11/06/2014  17:06:00     -235.827     -121.026       -5.785      129.066       87.206       56.688    16658.147     7604.939     3213.552        4.888        1.374      265.069       60.586        0.052      343.411       19.500      867.052
11/06/2014  17:07:00     -231.167     -181.741       -2.348      122.364      107.816       65.626    14973.035    11624.314     4306.821        5.868        1.545      294.054       64.571        0.048      343.458       19.581      867.038
11/06/2014  17:08:00     -183.026      -36.538       -4.805       86.558       86.700       46.150     7492.274     7516.947     2129.790        2.599        0.857      186.637       27.269        0.021      343.393       19.470      867.024
11/06/2014  17:09:00     -309.795      -93.437      -24.226       96.330      113.208       56.367     9279.529    12815.954     3177.253        6.528        1.264      323.579       50.420        0.024      343.438       19.545      867.029
11/06/2014  17:10:00     -238.193      -89.233        8.910      137.802      117.403       58.157    18989.278    13783.467     3382.277        5.046        1.808      254.359       64.368        0.064      343.383       19.452      867.038
11/06/2014  17:11:00     -204.695      -65.720      -13.350      121.045      100.181       60.968    14651.915    10036.201     3717.078        3.740        1.420      214.986       62.225        0.084      343.365       19.422      867.030
11/06/2014  17:12:00     -358.666      -79.776       -8.191      220.371      131.734       79.435    48563.464    17353.757     6309.896       10.364        3.611      367.431      105.369        0.082      343.422       19.521      867.027
11/06/2014  17:13:00     -308.109      -82.325       -9.595      134.670      111.840       65.232    18135.901    12508.226     4255.244        6.834        1.745      318.918       66.100        0.043      343.343       19.383      867.047
11/06/2014  17:14:00     -209.743      -90.443        3.581      161.366      102.498       48.682    26038.945    10505.740     2369.914        4.554        1.946      228.412       53.800        0.055      343.363       19.421      867.086
11/06/2014  17:15:00     -261.681      -23.435      -12.922      113.639      130.510       59.180    12913.887    17032.889     3502.302        5.131        1.672      262.728       64.496        0.060      343.419       19.514      867.095
11/06/2014  17:16:00     -321.503      -17.850      -22.301       97.097       84.408       59.168     9427.785     7124.724     3500.830        6.211        1.003      321.998       54.063        0.028      343.365       19.422      867.076
11/06/2014  17:17:00     -329.854     -172.900      -10.815      141.323       97.567       63.154    19972.238     9519.374     3988.413        8.614        1.674      372.422       67.880        0.033      343.417       19.511      867.052
11/06/2014  17:18:00     -219.794      -96.470       -7.188      119.599       99.811       60.212    14304.026     9962.246     3625.443        4.277        1.395      240.032       59.477        0.061      343.359       19.412      867.048
11/06/2014  17:19:00     -187.129      -78.625       -3.348       93.567       99.879       47.539     8754.718     9975.819     2260.001        3.110        1.050      202.976       47.246        0.054      343.324       19.353      867.059
11/06/2014  17:20:00     -226.096      -94.914      -10.495      108.430       86.237       47.896    11757.050     7436.766     2294.013        4.086        1.074      245.211       54.132        0.049      343.258       19.239      867.030
11/06/2014  17:21:00     -203.705      -37.835       -5.038      141.252      106.679       56.092    19952.129    11380.366     3146.361        3.871        1.724      207.189       61.892        0.089      343.240       19.209      867.013
11/06/2014  17:22:00     -259.697      -99.382      -16.889       94.152       92.165       53.634     8864.619     8494.354     2876.651        4.892        1.012      278.064       46.031        0.027      343.247       19.221      867.036
11/06/2014  17:23:00     -230.197      -52.836       -0.616      103.492       99.082       52.533    10710.626     9817.204     2759.715        3.953        1.164      236.182       50.995        0.047      343.192       19.128      867.059
11/06/2014  17:24:00     -299.047      -41.859      -19.665      113.818      100.822       59.592    12954.524    10165.100     3551.215        5.911        1.334      301.963       66.425        0.048      343.260       19.242      867.052
11/06/2014  17:25:00     -205.315      -57.104       -4.385      107.004       90.792       49.684    11449.842     8243.112     2468.470        3.379        1.108      213.108       49.746        0.054      343.201       19.141      867.078
11/06/2014  17:26:00      -98.284      -17.273       22.081      108.381      105.720       53.515    11746.477    11176.755     2863.815        1.811        1.289       99.790       63.230        0.401      343.074       18.928      867.125
11/06/2014  17:27:00     -200.029      -79.290        6.119      135.318       85.458       60.826    18311.039     7303.028     3699.767        3.782        1.466      215.170       72.464        0.113      343.223       19.180      867.158
11/06/2014  17:28:00     -203.275      -67.395        3.239      125.263       83.857       52.368    15690.855     7032.059     2742.436        3.566        1.273      214.156       60.360        0.079      343.199       19.141      867.186
11/06/2014  17:29:00     -229.411      -64.974       -7.454      102.867       72.944       48.794    10581.644     5320.755     2380.844        3.759        0.914      238.435       49.983        0.044      343.227       19.188      867.191
11/06/2014  17:30:00     -171.899      -20.066      -17.521       68.550       57.433       40.721     4699.156     3298.576     1658.160        1.996        0.483      173.066       26.784        0.024      343.186       19.118      867.199
11/06/2014  17:31:00     -266.469      -33.932      -13.538      139.464       78.057       52.012    19450.092     6092.862     2705.253        5.029        1.412      268.620       58.402        0.047      343.187       19.119      867.214
11/06/2014  17:32:00     -217.911      -50.067        0.687      100.950       54.906       41.362    10190.993     3014.711     1710.787        3.245        0.746      223.589       39.051        0.031      343.130       19.022      867.239
11/06/2014  17:33:00     -191.187      -53.933        2.249       89.024       73.476       40.770     7925.247     5398.708     1662.178        2.722        0.749      198.649       40.867        0.042      343.020       18.836      867.245
11/06/2014  17:34:00     -217.725      -91.248       -6.935      120.265       60.102       48.989    14463.774     3612.291     2399.892        3.812        1.024      236.073       58.624        0.062      343.184       19.113      867.246
11/06/2014  17:35:00     -250.580      -28.774      -15.114      129.457       78.505       55.658    16759.179     6163.069     3097.852        4.493        1.301      252.226       58.914        0.055      343.087       18.949      867.276
11/06/2014  17:36:00     -272.315      -69.853       -3.747       80.202       74.351       38.412     6432.372     5528.123     1475.502        4.624        0.672      281.131       43.564        0.024      343.049       18.882      867.302
11/06/2014  17:37:00     -196.414      -19.457       -4.384       86.052       93.018       41.133     7404.879     8652.264     1691.961        2.836        0.887      197.375       45.288        0.053      343.040       18.868      867.298
11/06/2014  17:38:00     -228.951       34.231      -14.046       91.952       81.624       43.836     8455.168     6662.463     1921.614        3.541        0.852      231.496       37.368        0.026      343.003       18.805      867.295
11/06/2014  17:39:00     -334.248      -10.904      -35.530       68.019       80.829       37.679     4626.532     6533.259     1419.684        6.284        0.629      334.425       22.380        0.004      343.011       18.819      867.281
11/06/2014  17:40:00     -246.212      -54.085      -20.384      111.645       76.180       52.615    12464.523     5803.377     2768.340        4.249        1.052      252.082       60.780        0.058      342.982       18.770      867.283
11/06/2014  17:41:00     -216.335      -97.121      -16.954       69.834       73.777       40.291     4876.796     5443.047     1623.329        3.423        0.597      237.135       36.579        0.024      342.944       18.704      867.284
11/06/2014  17:42:00     -209.423      -56.273       -7.791      106.690       88.300       48.649    11382.732     7796.963     2366.709        3.431        1.077      216.852       39.680        0.033      342.920       18.664      867.330
11/06/2014  17:43:00     -191.499      -55.217        3.109      137.287       75.467       51.577    18847.630     5695.276     2660.169        3.346        1.360      199.301       67.456        0.115      342.894       18.621      867.371
11/06/2014  17:44:00     -209.614      -47.674       -2.868      122.533       90.967       44.785    15014.369     8274.919     2005.706        3.575        1.265      214.967       46.387        0.047      342.912       18.651      867.387
11/06/2014  17:45:00     -147.918       12.230       -1.641      109.739       69.082       45.947    12042.680     4772.276     2111.135        2.048        0.946      148.422       51.735        0.121      342.802       18.465      867.402
11/06/2014  17:46:00     -255.872       -9.961      -22.301       78.848       61.688       54.174     6217.073     3805.391     2934.806        3.951        0.648      256.066       41.868        0.027      342.894       18.620      867.410
11/06/2014  17:47:00     -282.688      -40.544      -15.316       95.332       96.565       47.564     9088.233     9324.720     2262.318        5.123        1.034      285.581       45.347        0.025      342.875       18.588      867.387
11/06/2014  17:48:00     -382.678      -88.318      -22.941      106.156       93.431       55.982    11269.154     8729.293     3133.945        8.895        1.157      392.737       51.396        0.017      342.885       18.604      867.371
11/06/2014  17:49:00     -357.933      -80.186       -8.222      134.829       85.342       56.346    18178.758     7283.244     3174.900        8.162        1.432      366.805       60.797        0.027      342.823       18.499      867.422
11/06/2014  17:50:00     -271.349      -39.979      -17.130       87.825       82.870       44.977     7713.206     6867.479     2022.928        4.606        0.830      274.278       28.875        0.011      342.808       18.473      867.439
11/06/2014  17:51:00     -312.569      -85.723      -31.265      111.238      109.423       57.020    12373.884    11973.342     3251.277        6.681        1.380      324.110       55.859        0.030      342.931       18.683      867.411
11/06/2014  17:52:00     -243.436       -3.636      -14.417      119.458       91.078       50.684    14270.295     8295.162     2568.857        4.230        1.257      243.463       54.603        0.050      342.849       18.545      867.438
11/06/2014  17:53:00     -266.631      -82.678       -7.549      111.353       80.079       49.735    12399.470     6412.603     2473.615        4.963        1.064      279.156       54.594        0.038      342.860       18.562      867.485
11/06/2014  17:54:00     -297.298      -69.470      -14.698       94.552       97.234       43.057     8940.167     9454.431     1853.901        5.683        1.012      305.307       39.369        0.017      342.852       18.548      867.507
11/06/2014  17:55:00     -252.828     -109.712      -12.027      106.223      103.213       63.241    11283.372    10652.896     3999.449        5.101        1.297      275.606       56.421        0.042      342.871       18.579      867.512
11/06/2014  17:56:00     -292.339     -111.730      -21.311      116.916       90.734       47.898    13669.394     8232.634     2294.237        6.129        1.210      312.962       40.945        0.017      342.802       18.464      867.560
11/06/2014  17:57:00     -270.476      -35.133       -7.557      133.792       85.617       55.046    17900.258     7330.329     3030.100        5.135        1.413      272.748       42.968        0.025      342.800       18.461      867.556
11/06/2014  17:58:00     -413.913        1.984      -40.584      156.241      106.086       57.944    24411.202    11254.342     3357.461       10.599        1.951      413.917       72.130        0.030      342.932       18.683      867.574
11/06/2014  17:59:00     -368.271      -13.884      -26.003      136.046      100.568       61.032    18508.571    10113.914     3724.868        8.441        1.617      368.532       78.443        0.045      342.864       18.568      867.587
11/06/2014  18:00:00     -354.871      -70.040      -29.497       93.041      106.313       47.160     8656.626    11302.354     2224.083        7.694        1.109      361.717       39.623        0.012      342.863       18.568      867.604
11/06/2014  18:01:00     -284.692      -72.292       -7.990      138.154      102.808       55.332    19086.398    10569.513     3061.672        5.952        1.636      293.727       58.071        0.039      342.829       18.510      867.625
11/06/2014  18:02:00     -220.808      -72.241      -11.319       94.547       70.885       45.911     8939.200     5024.718     2107.849        3.508        0.804      232.325       47.341        0.042      342.738       18.354      867.678
11/06/2014  18:03:00     -284.337      -17.391       -7.717      102.960       93.963       48.304    10600.839     8829.068     2333.229        5.148        1.088      284.868       46.356        0.026      342.773       18.412      867.735
11/06/2014  18:04:00     -226.503      -50.489        1.196      109.995       88.262       47.455    12098.794     7790.189     2251.950        3.799        1.107      232.062       46.991        0.041      342.801       18.462      867.752
11/06/2014  18:05:00     -234.715      -12.712      -20.828       90.524       69.592       47.606     8194.595     4843.092     2266.346        3.549        0.765      235.059       47.936        0.042      342.771       18.411      867.755
11/06/2014  18:06:00     -275.149      -48.313      -13.710      107.147       81.411       49.955    11480.455     6627.761     2495.484        4.941        1.030      279.359       54.945        0.039      342.698       18.287      867.741
11/06/2014  18:07:00     -253.814        1.387      -17.267       75.452       71.214       43.828     5693.019     5071.483     1920.934        3.870        0.634      253.818       44.263        0.030      342.727       18.335      867.759
11/06/2014  18:08:00     -268.422      -27.143      -16.133       87.700       53.254       44.662     7691.236     2836.001     1994.716        4.278        0.626      269.791       48.471        0.032      342.708       18.303      867.754
11/06/2014  18:09:00     -193.600        9.229      -10.232       72.542       61.280       45.388     5262.342     3755.191     2060.032        2.437        0.554      193.820       34.845        0.032      342.697       18.285      867.742
11/06/2014  18:10:00     -213.621      -44.660      -15.365       64.961       52.460       38.613     4219.984     2752.079     1490.960        2.816        0.423      218.240       32.141        0.022      342.721       18.324      867.725
11/06/2014  18:11:00     -166.450      -84.401      -14.558       97.898       64.396       37.773     9584.061     4146.898     1426.772        2.510        0.758      186.626       36.358        0.038      342.612       18.140      867.697
11/06/2014  18:12:00     -240.463      -41.360      -10.873      104.342       74.428       52.957    10887.269     5539.477     2804.477        3.944        0.962      243.994       53.953        0.049      342.645       18.195      867.660
11/06/2014  18:13:00     -272.994      -45.750      -21.823       89.059      111.810       48.595     7931.522    12501.452     2361.439        4.994        1.140      276.801       46.837        0.029      342.615       18.146      867.655
11/06/2014  18:14:00     -348.633      -46.351      -18.523      120.226       97.252       66.570    14454.287     9457.981     4431.528        7.618        1.417      351.701       62.555        0.032      342.657       18.218      867.651
11/06/2014  18:15:00     -283.008      -87.468       -7.636       86.397       81.040       52.046     7464.376     6567.438     2708.759        5.227        0.837      296.216       41.316        0.019      342.627       18.165      867.637
11/06/2014  18:16:00     -229.658      -61.995        2.280       97.008       66.623       42.718     9410.527     4438.638     1824.853        3.613        0.784      237.879       41.246        0.030      342.586       18.095      867.619
11/06/2014  18:17:00     -197.559      -48.905       -1.768       62.428       76.228       42.171     3897.261     5810.716     1778.405        2.645        0.574      203.522       32.202        0.025      342.576       18.079      867.602
11/06/2014  18:18:00     -238.164      -78.716      -15.766       74.711       74.865       40.290     5581.722     5604.733     1623.295        3.799        0.640      250.835       39.490        0.025      342.547       18.029      867.608
11/06/2014  18:19:00     -245.928      -29.547       -1.574      128.443       76.298       55.292    16497.668     5821.347     3057.226        4.336        1.269      247.697       61.273        0.061      342.579       18.085      867.603
11/06/2014  18:20:00     -237.630      -65.523       -2.549       99.176       74.052       48.417     9835.906     5483.636     2344.163        3.921        0.883      246.498       52.588        0.046      342.581       18.088      867.589
11/06/2014  18:21:00     -347.495      -25.600      -24.908       93.180       89.112       54.003     8682.481     7940.883     2916.336        7.078        0.977      348.436       56.995        0.027      342.731       18.342      867.567
11/06/2014  18:22:00     -191.157      -10.489       -0.460       80.234       84.900       41.510     6437.419     7208.088     1723.077        2.601        0.768      191.444       40.302        0.044      342.543       18.026      867.550
11/06/2014  18:23:00     -151.902      -41.640       -6.353       80.241       68.204       34.284     6438.588     4651.721     1175.383        1.855        0.613      157.506       32.008        0.041      342.519       17.985      867.545
11/06/2014  18:24:00     -106.932      -43.373        4.824      108.327       60.351       46.212    11734.673     3642.199     2135.579        1.542        0.876      115.394       44.700        0.150      342.468       17.897      867.525
11/06/2014  18:25:00     -166.452      -66.333        4.506       67.746       71.298       35.645     4589.523     5083.449     1270.572        2.153        0.547      179.183       32.769        0.033      342.475       17.909      867.510
11/06/2014  18:26:00     -174.392      -27.097       -1.752       85.968       82.465       44.929     7390.515     6800.546     2018.612        2.368        0.810      176.485       49.425        0.078      342.416       17.809      867.498
11/06/2014  18:27:00     -158.210      -40.902       -3.850       92.413       67.402       39.873     8540.119     4543.018     1589.876        2.069        0.734      163.412       27.540        0.028      342.372       17.734      867.525
11/06/2014  18:28:00     -134.184        7.831       -2.303       86.431       84.208       54.508     7470.398     7090.930     2971.173        1.780        0.877      134.412       48.384        0.130      342.387       17.758      867.480
11/06/2014  18:29:00     -272.858      -27.863      -24.967      124.445       75.023       47.901    15486.584     5628.447     2294.494        4.963        1.170      274.277       62.379        0.052      342.489       17.932      867.468
11/06/2014  18:30:00     -139.992      -39.902       18.869       91.101       69.717       45.580     8299.460     4860.421     2077.540        1.839        0.762      145.568       40.225        0.076      342.443       17.855      867.466
11/06/2014  18:31:00     -119.501      -70.195        8.152       99.624       89.011       46.135     9924.959     7922.976     2128.464        1.962        0.999      138.592       57.722        0.173      342.434       17.837      867.467
11/06/2014  18:32:00     -178.555      -83.557       -6.371       98.197       55.198       37.062     9642.693     3046.874     1373.580        2.648        0.703      197.139       35.020        0.032      342.450       17.868      867.461
11/06/2014  18:33:00     -131.507      -18.922       -2.407       93.463       66.531       39.490     8735.284     4426.405     1559.455        1.619        0.736      132.861       48.050        0.131      342.410       17.798      867.409
11/06/2014  18:34:00     -235.252      -91.914        8.035      159.111       89.576       60.556    25316.333     8023.783     3667.031        5.042        1.850      252.570       63.715        0.064      342.407       17.793      867.406
11/06/2014  18:35:00     -302.547      -12.334      -19.832      130.856       83.281       48.665    17123.240     6935.684     2368.322        5.925        1.321      302.798       47.612        0.025      342.534       18.009      867.427
11/06/2014  18:36:00     -166.161      -14.985      -12.843       67.383       76.930       48.339     4540.519     5918.158     2336.617        2.039        0.640      166.835       40.356        0.059      342.526       17.996      867.422
11/06/2014  18:37:00     -236.687      -34.758       -3.534      110.405       82.893       55.978    12189.245     6871.226     3133.577        3.971        1.110      239.226       59.582        0.062      342.461       17.884      867.416
11/06/2014  18:38:00     -262.458      -47.239      -14.462      117.439       81.473       59.604    13791.973     6637.773     3552.609        4.765        1.199      266.675       55.034        0.043      342.402       17.783      867.426
11/06/2014  18:39:00     -195.454       -0.661       -8.758       90.856       67.135       52.729     8254.896     4507.083     2780.367        2.691        0.777      195.455       51.304        0.069      342.552       18.039      867.428
11/06/2014  18:40:00     -222.194      -40.126       -2.151       87.339       75.379       48.049     7628.179     5681.965     2308.737        3.330        0.781      225.788       43.116        0.036      342.516       17.977      867.449
11/06/2014  18:41:00      -43.385      -80.071        3.207      159.577       95.796       62.919    25464.887     9176.835     3958.813        2.344        1.930       91.070       65.191        0.512      342.299       17.611      867.461
11/06/2014  18:42:00      -74.125      -12.719       -1.739       62.059       48.110       29.944     3851.269     2314.528      896.624        0.636        0.353       75.208       15.527        0.043      342.445       17.860      867.483
11/06/2014  18:43:00     -109.083      -47.255       -3.528       78.851       56.299       39.759     6217.504     3169.530     1580.783        1.255        0.548      118.879       43.534        0.134      342.456       17.878      867.532
11/06/2014  18:44:00     -109.579      -96.773       -4.722       88.854       83.258       45.454     7894.987     6931.841     2066.025        1.914        0.845      146.194       49.424        0.114      342.471       17.902      867.584
11/06/2014  18:45:00      -83.744      -15.237        2.888       89.494       52.006       37.558     8009.217     2704.605     1410.583        0.969        0.606       85.119       42.597        0.250      342.418       17.812      867.600
11/06/2014  18:46:00     -128.129      -12.437        1.503       85.514       65.765       38.422     7312.691     4325.056     1476.259        1.484        0.656      128.732       43.132        0.112      342.296       17.606      867.604
11/06/2014  18:47:00     -194.256      -36.710       -2.498       67.504       55.482       34.407     4556.738     3078.306     1183.829        2.395        0.441      197.694       28.691        0.021      342.366       17.723      867.590
11/06/2014  18:48:00     -229.961     -106.871       -5.522       83.455       59.051       39.123     6964.695     3487.019     1530.600        3.816        0.599      253.582       41.122        0.026      342.342       17.681      867.598
11/06/2014  18:49:00     -163.801     -147.428       -3.957       98.295       76.529       46.296     9661.958     5856.710     2143.338        3.312        0.883      220.376       37.685        0.029      342.331       17.663      867.626
11/06/2014  18:50:00     -183.127      -75.964       -3.729      112.281       91.692       49.595    12606.955     8407.476     2459.663        3.139        1.174      198.257       55.464        0.078      342.280       17.576      867.625
11/06/2014  18:51:00     -211.318      -12.769      -29.704       65.680       67.544       33.502     4313.917     4562.196     1122.390        2.785        0.500      211.704       24.412        0.013      342.431       17.832      867.619
11/06/2014  18:52:00     -164.308     -108.980       -8.216       80.798       72.532       50.608     6528.314     5260.857     2561.201        2.664        0.718      197.164       47.687        0.058      342.343       17.684      867.613
11/06/2014  18:53:00     -195.539      -47.190       -5.510       69.959       61.174       40.124     4894.314     3742.269     1609.960        2.537        0.512      201.153       37.564        0.035      342.251       17.528      867.619
11/06/2014  18:54:00     -165.989      -80.565       -9.486       85.506       83.530       40.188     7311.294     6977.313     1615.059        2.502        0.795      184.507       42.200        0.052      342.211       17.460      867.629
11/06/2014  18:55:00     -217.658      -58.935        3.016       96.050       75.755       44.479     9225.657     5738.890     1978.423        3.390        0.847      225.496       47.006        0.043      342.244       17.516      867.620
11/06/2014  18:56:00     -194.834      -71.723       12.442       94.655      126.679       52.710     8959.517    16047.642     2778.359        3.552        1.389      207.616       45.226        0.047      342.262       17.546      867.616
11/06/2014  18:57:00     -136.313      -85.251       -2.250       93.075       79.915       45.137     8662.929     6386.402     2037.311        2.147        0.854      160.776       45.971        0.082      342.264       17.549      867.622
11/06/2014  18:58:00     -132.204     -101.946       -3.913       80.657       66.694       41.310     6505.547     4448.121     1706.535        2.027        0.633      166.946       37.157        0.050      342.315       17.637      867.596
11/06/2014  18:59:00     -131.636      -79.739       -0.616      112.614       67.760       38.765    12681.859     4591.460     1502.702        2.123        0.939      153.904       38.195        0.062      342.285       17.585      867.579
11/06/2014  19:00:00     -209.433     -158.556      -14.216       89.673       87.677       50.845     8041.256     7687.296     2585.209        4.376        0.916      262.682       48.817        0.035      342.400       17.778      867.550
11/06/2014  19:01:00     -174.595      -72.349       -2.456       69.378       53.313       34.349     4813.370     2842.283     1179.865        2.228        0.442      188.992       35.068        0.034      342.357       17.707      867.506
11/06/2014  19:02:00      -75.482     -126.544        5.267       59.254       58.800       28.627     3511.087     3457.450      819.501        1.476        0.389      147.346       27.527        0.035      342.368       17.728      867.499
11/06/2014  19:03:00      -78.388     -207.180       -9.904       55.784       31.626       25.194     3111.809     1000.179      634.738        2.696        0.237      221.513       23.013        0.011      342.425       17.822      867.500
11/06/2014  19:04:00     -113.488     -108.949        3.919       63.062       59.983       32.345     3976.771     3598.017     1046.222        1.669        0.431      157.319       33.446        0.045      342.270       17.562      867.531
11/06/2014  19:05:00      -88.929     -204.657       -3.378       74.251       71.383       44.092     5513.206     5095.480     1944.102        3.118        0.628      223.143       47.386        0.045      342.254       17.530      867.560
11/06/2014  19:06:00      -68.545      -93.216       12.001       50.575       49.382       30.332     2557.792     2438.626      920.025        0.972        0.296      115.705       17.351        0.022      342.150       17.356      867.573
11/06/2014  19:07:00       -3.414      -95.277      -16.068       44.092       50.996       35.221     1944.080     2600.639     1240.501        0.757        0.289       95.338       22.003        0.053      342.054       17.195      867.609
11/06/2014  19:08:00       26.759     -107.132      -24.843       54.520       67.186       45.010     2972.400     4513.906     2025.900        1.116        0.476      110.423       31.026        0.079      342.076       17.234      867.618
11/06/2014  19:09:00      -37.998      -73.258       13.065       73.191       54.890       35.443     5356.962     3012.868     1256.206        0.830        0.481       82.526       21.400        0.067      342.194       17.432      867.647
11/06/2014  19:10:00      -45.361      -49.700        5.078       65.992       72.169       48.505     4354.944     5208.432     2352.694        0.823        0.596       67.288       31.322        0.217      342.093       17.260      867.618
11/06/2014  19:11:00     -102.783      -78.064        0.256       78.134       55.843       34.313     6104.854     3118.410     1177.367        1.353        0.520      129.068       39.621        0.094      341.982       17.072      867.607
11/06/2014  19:12:00      -61.107      -50.443        7.483       56.917       32.604       24.217     3239.581     1062.989      586.471        0.561        0.244       79.237       29.217        0.136      341.998       17.100      867.606
11/06/2014  19:13:00     -128.347      -83.198        3.349       77.894       45.979       32.708     6067.542     2114.065     1069.817        1.633        0.463      152.954       28.940        0.036      341.947       17.013      867.640
11/06/2014  19:14:00     -100.143     -115.417       -8.589       50.755       83.952       36.821     2576.109     7047.874     1355.814        1.720        0.549      152.806       29.503        0.037      342.180       17.408      867.646
11/06/2014  19:15:00     -133.628     -129.619        0.645       64.051       70.199       36.715     4102.552     4927.851     1348.023        2.252        0.519      186.165       33.459        0.032      342.249       17.524      867.622
11/06/2014  19:16:00     -111.404     -164.025       -1.396       67.349       60.745       42.487     4535.825     3689.938     1805.172        2.467        0.502      198.280       28.467        0.021      342.026       17.145      867.637
11/06/2014  19:17:00     -131.544     -128.273      -13.921       96.045       84.131       51.312     9224.626     7078.017     2632.928        2.644        0.947      183.733       47.915        0.068      341.866       16.873      867.637
11/06/2014  19:18:00     -141.659     -163.437      -11.373       96.640       83.978       41.058     9339.256     7052.293     1685.737        3.249        0.904      216.284       35.834        0.027      341.777       16.722      867.622
11/06/2014  19:19:00      -41.175      -53.741        3.136       50.063       54.384       33.172     2506.328     2957.610     1100.356        0.558        0.328       67.701       30.209        0.199      341.732       16.649      867.616
11/06/2014  19:20:00     -130.324     -120.508      -12.427       95.078       64.351       36.565     9039.878     4140.996     1337.028        2.309        0.726      177.501       36.474        0.042      341.822       16.799      867.627
11/06/2014  19:21:00      -90.745     -130.334       -3.817       65.690       79.162       29.135     4315.125     6266.631      848.868        1.833        0.572      158.813       32.633        0.042      341.812       16.782      867.623
11/06/2014  19:22:00      -45.649      -74.769        9.312       54.480       34.689       30.548     2968.105     1203.324      933.204        0.643        0.255       87.603       30.431        0.121      341.889       16.915      867.590
11/06/2014  19:23:00      -60.375      -35.001       16.821       56.021       50.112       31.367     3138.367     2511.166      983.901        0.589        0.332       69.787       35.019        0.252      341.907       16.946      867.564
11/06/2014  19:24:00      -76.324      -65.828        1.679       45.981       46.521       21.440     2114.225     2164.203      459.688        0.745        0.237      100.790       21.544        0.046      341.942       17.005      867.571
11/06/2014  19:25:00      -76.294      -59.025        1.630       37.955       30.633       21.135     1440.585      938.358      446.703        0.607        0.141       96.462       16.380        0.029      341.840       16.833      867.602
11/06/2014  19:26:00      -34.300      -37.466        2.637       22.820       22.887       15.280      520.770      523.836      233.469        0.193        0.064       50.795       11.093        0.048      341.836       16.825      867.620
11/06/2014  19:27:00       -7.319      -30.379        1.442       18.409       25.005       14.521      338.896      625.272      210.865        0.108        0.059       31.249       13.169        0.178      341.780       16.729      867.627
11/06/2014  19:28:00       12.273      -40.568        4.002       24.549       15.144       18.638      602.646      229.327      347.358        0.150        0.059       42.384       14.410        0.116      341.753       16.685      867.644
11/06/2014  19:29:00      -13.612      -28.971        6.668       26.671       20.859       11.707      711.345      435.112      137.044        0.118        0.064       32.010       15.471        0.234      341.562       16.361      867.670
11/06/2014  19:30:00      -28.947      -59.454       -2.291       19.468       17.502        9.738      379.010      306.318       94.834        0.258        0.039       66.126        5.115        0.006      341.696       16.588      867.686
11/06/2014  19:31:00      -35.670      -55.773       -3.229       19.970       19.100       10.920      398.805      364.801      119.250        0.264        0.044       66.205        8.097        0.015      341.775       16.723      867.688
11/06/2014  19:32:00       35.240       19.373       15.611       26.355       19.947       16.864      694.587      397.886      284.393        0.162        0.069       40.214       12.956        0.104      341.459       16.186      867.670
11/06/2014  19:33:00       64.577       39.276        8.140       14.683        9.554       12.737      215.579       91.278      162.244        0.312        0.023       75.583        7.208        0.009      341.592       16.410      867.649
11/06/2014  19:34:00       63.675       16.435        3.839       21.012       22.884       12.062      441.491      523.696      145.502        0.272        0.056       65.762       12.921        0.039      341.569       16.374      867.636
11/06/2014  19:35:00       54.355       18.148       -6.327       17.551       19.245       14.823      308.023      370.381      219.715        0.211        0.045       57.304        8.594        0.022      341.404       16.092      867.624
11/06/2014  19:36:00       66.561       17.042        7.652       25.879       19.846       17.319      669.737      393.844      299.943        0.307        0.068       68.708        8.566        0.016      341.275       15.874      867.611
11/06/2014  19:37:00       51.746       -6.525       19.359       22.782       14.738       19.908      519.010      217.207      396.315        0.211        0.057       52.156        9.121        0.031      341.172       15.702      867.586
11/06/2014  19:38:00       25.240      -29.115       -3.825       22.043       38.963       21.856      485.875     1518.120      477.697        0.199        0.124       38.532       25.038        0.422      341.076       15.538      867.573
11/06/2014  19:39:00       33.948      -35.745       -0.531       31.054       23.021       20.136      964.351      529.978      405.464        0.216        0.095       49.297       20.220        0.168      341.208       15.761      867.563
11/06/2014  19:40:00       12.032      -52.946       -6.307       43.687       14.130       11.149     1908.572      199.660      124.295        0.261        0.112       54.296       10.831        0.040      341.468       16.201      867.569
11/06/2014  19:41:00      -25.575      -20.024        1.582       11.770       11.562        8.372      138.543      133.687       70.097        0.070        0.017       32.481        7.138        0.048      341.018       15.441      867.579
11/06/2014  19:42:00      -32.720       -8.940      -10.902       17.756       12.156        8.881      315.273      147.760       78.870        0.091        0.027       33.919        6.967        0.042      341.101       15.580      867.568
11/06/2014  19:43:00      -25.042        9.261       -8.646       17.443        7.712        6.149      304.259       59.482       37.805        0.059        0.020       26.700        5.027        0.035      341.090       15.561      867.572
11/06/2014  19:44:00        9.000       12.104        7.560       18.783       12.049        8.756      352.804      145.167       76.661        0.043        0.029       15.084        8.802        0.341      341.166       15.690      867.567
11/06/2014  19:45:00       -5.851      -10.971       -2.994       13.961       12.604        6.127      194.915      158.851       37.538        0.028        0.020       12.434        3.319        0.071      341.168       15.695      867.551
11/06/2014  19:46:00        9.275       -0.460       13.660       16.131       15.560       16.676      260.205      242.105      278.090        0.053        0.039        9.286       13.160        2.008      341.190       15.731      867.526
11/06/2014  19:47:00      -10.930      -17.435       -0.606       17.518       27.898       13.841      306.877      778.307      191.568        0.085        0.064       20.578       10.734        0.272      341.319       15.949      867.497
11/06/2014  19:48:00        4.140      -67.744        0.993       22.748       15.884       14.279      517.479      252.308      203.895        0.279        0.049       67.870       11.471        0.029      341.782       16.734      867.486
11/06/2014  19:49:00       24.241      -59.273       11.482       37.365       61.771       27.217     1396.150     3815.644      740.748        0.509        0.298       64.038       11.349        0.031      341.339       15.985      867.479
11/06/2014  19:50:00      -10.810      -74.045        8.565       33.848       35.627       24.605     1145.701     1269.296      605.411        0.435        0.151       74.830       17.412        0.054      342.387       17.762      867.440
11/06/2014  19:51:00      -33.067      -56.059       -1.514       36.491       27.681       17.535     1331.627      766.238      307.473        0.332        0.120       65.085       15.172        0.054      342.136       17.335      867.413
11/06/2014  19:52:00      -71.444      -40.834      -16.675       52.473       49.670       26.965     2753.463     2467.093      727.092        0.650        0.297       82.290       15.694        0.036      342.107       17.285      867.387
11/06/2014  19:53:00      -55.861      -20.981       -3.745       34.707       20.293       10.098     1204.589      411.813      101.974        0.265        0.086       59.671        9.271        0.024      341.675       16.552      867.394
11/06/2014  19:54:00     -128.255      -40.082       -8.006       48.770       25.447       14.275     2378.476      647.537      203.784        1.067        0.161      134.373        7.624        0.003      341.071       15.529      867.410
11/06/2014  19:55:00     -130.971      -41.081       -2.718       30.848       33.519       18.490      951.571     1123.536      341.862        1.063        0.121      137.262       15.393        0.013      340.952       15.327      867.410
11/06/2014  19:56:00      -97.457      -36.408       -0.212       26.766       27.802       15.662      716.422      772.942      245.286        0.628        0.087      104.036       12.935        0.015      340.716       14.928      867.404
11/06/2014  19:57:00      -78.491      -54.429       -0.448       27.778       30.742       15.823      771.618      945.095      250.369        0.554        0.098       95.516       13.205        0.019      340.992       15.397      867.388
11/06/2014  19:58:00      -85.932      -92.584       -4.541       41.390       25.941       19.478     1713.118      672.939      379.386        0.937        0.138      126.318       16.501        0.017      341.288       15.898      867.389
11/06/2014  19:59:00      -64.062     -124.393       -5.994       31.398       37.548       20.954      985.857     1409.844      439.064        1.122        0.142      139.920       18.702        0.018      341.448       16.168      867.389
11/06/2014  20:00:00     -137.162     -102.441       -5.751       55.615       49.244       26.012     3093.043     2424.927      676.640        1.777        0.310      171.195       18.880        0.012      341.609       16.441      867.391
11/06/2014  20:01:00     -148.306      -75.211       -4.484       66.118       38.366       21.449     4371.581     1471.912      460.042        1.699        0.315      166.287       23.632        0.020      341.144       15.651      867.395
11/06/2014  20:02:00     -156.303      -55.338       -1.615       64.705       53.459       28.375     4186.762     2857.892      805.162        1.767        0.392      165.810       24.875        0.023      340.931       15.291      867.423
11/06/2014  20:03:00     -164.390      -61.548        3.268       81.788       58.411       28.751     6689.331     3411.883      826.593        2.087        0.546      175.534       33.204        0.036      340.926       15.282      867.449
11/06/2014  20:04:00     -164.335      -50.516        4.833       81.172       55.060       35.686     6588.909     3031.654     1273.490        2.024        0.545      171.925       40.572        0.056      341.172       15.699      867.451
11/06/2014  20:05:00     -205.006      -60.667        1.962       60.761       47.766       30.350     3691.867     2281.631      921.139        2.630        0.345      213.794       25.648        0.014      341.341       15.984      867.444
11/06/2014  20:06:00     -127.638      -28.990        5.963       52.893       46.578       28.996     2797.667     2169.484      840.769        1.149        0.290      130.888       30.117        0.053      341.283       15.889      867.441
11/06/2014  20:07:00      -73.559      -71.261        5.650       55.796       52.972       30.261     3113.174     2805.993      915.706        0.868        0.342      102.416       24.957        0.059      341.686       16.570      867.454
11/06/2014  20:08:00     -118.320      -52.644        2.489       38.266       46.378       26.371     1464.272     2150.892      695.420        1.054        0.216      129.503       20.742        0.026      341.331       15.969      867.477
11/06/2014  20:09:00     -104.403      -52.413        4.489       52.405       33.468       18.450     2746.277     1120.078      340.392        0.894        0.210      116.821       16.749        0.021      341.259       15.847      867.485
11/06/2014  20:10:00     -115.766      -44.854       12.079       75.610       53.731       35.544     5716.907     2887.068     1263.363        1.271        0.493      124.151       37.359        0.091      341.200       15.748      867.499
11/06/2014  20:11:00     -133.137      -69.017        1.635       60.024       54.853       33.193     3602.894     3008.835     1101.756        1.510        0.386      149.962       31.513        0.044      341.290       15.901      867.513
11/06/2014  20:12:00     -124.346      -85.421       -7.850       45.809       52.175       30.329     2098.469     2722.263      919.823        1.428        0.287      150.859       21.983        0.021      341.390       16.069      867.518
11/06/2014  20:13:00     -145.707      -75.061       10.029       64.639       62.107       33.277     4178.219     3857.326     1107.372        1.805        0.457      163.905       37.273        0.052      341.378       16.048      867.518
11/06/2014  20:14:00     -188.217      -66.709      -10.099       87.552       58.854       40.346     7665.333     3463.741     1627.820        2.636        0.638      199.689       44.677        0.050      341.533       16.310      867.526
11/06/2014  20:15:00     -207.238      -78.035       -8.628       67.914       65.900       36.635     4612.254     4342.772     1342.111        2.970        0.515      221.443       34.229        0.024      341.772       16.713      867.531
11/06/2014  20:16:00     -169.935      -43.259       -7.319       70.421       48.763       33.871     4959.098     2377.826     1147.266        1.964        0.424      175.354       32.547        0.034      341.702       16.598      867.538
11/06/2014  20:17:00     -116.573      -51.483        5.661       73.044       50.427       30.014     5335.442     2542.868      900.813        1.252        0.439      127.435       28.804        0.051      341.677       16.554      867.540
11/06/2014  20:18:00      -62.125      -35.073        5.291       42.180       29.369       15.404     1779.137      862.541      237.269        0.400        0.144       71.341       19.247        0.073      341.654       16.516      867.550
11/06/2014  20:19:00       -7.622      -29.907        9.328       23.526       32.578       13.470      553.483     1061.303      181.442        0.142        0.090       30.863       16.264        0.278      341.401       16.087      867.555
11/06/2014  20:20:00       30.172      -21.961       -3.788       21.679       24.352       17.408      469.959      593.014      303.042        0.139        0.068       37.318       15.354        0.169      340.825       15.113      867.579
11/06/2014  20:21:00       51.257      -27.555       -0.913       18.366       29.212       26.191      337.306      853.322      685.972        0.263        0.094       58.194       17.464        0.090      340.738       14.965      867.605
11/06/2014  20:22:00       41.766      -22.314       -1.547       30.437       22.910       22.584      926.429      524.869      510.041        0.210        0.098       47.353       18.091        0.146      340.841       15.140      867.610
11/06/2014  20:23:00        2.331       -8.427       16.323       14.013       32.923       17.609      196.357     1083.914      310.068        0.097        0.080        8.744       14.533        2.763      340.671       14.852      867.620
11/06/2014  20:24:00       69.330      -26.108        0.201       32.861       30.583       24.946     1079.862      935.319      622.325        0.406        0.132       74.083       26.404        0.127      340.978       15.372      867.629
11/06/2014  20:25:00       15.040       14.915        4.769       23.701       51.824       22.289      561.716     2685.751      496.795        0.211        0.187       21.182       27.546        1.691      340.767       15.015      867.610
11/06/2014  20:26:00       72.078      102.388       19.441       42.955       32.851       53.064     1845.125     1079.218     2815.746        1.090        0.287      125.214       34.112        0.074      341.177       15.707      867.604
11/06/2014  20:27:00       15.532       85.662        7.163       42.956       30.849       31.752     1845.200      951.671     1008.218        0.572        0.190       87.059       27.507        0.100      341.579       16.389      867.599
11/06/2014  20:28:00       37.014        6.624        6.451       16.101       15.889       15.888      259.239      252.472      252.435        0.111        0.038       37.602        8.145        0.047      341.116       15.606      867.614
11/06/2014  20:29:00       14.408        1.370       11.074       14.022       15.515       10.826      196.627      240.727      117.198        0.044        0.028       14.473        8.062        0.310      340.899       15.237      867.644
11/06/2014  20:30:00       55.010       28.178       19.925       26.078       31.613       23.847      680.072      999.395      568.665        0.323        0.112       61.807       21.861        0.125      340.677       14.863      867.663
11/06/2014  20:31:00       24.895      -20.631       10.456       29.832       29.098       20.647      889.935      846.719      426.316        0.166        0.108       32.332       18.163        0.316      340.541       14.633      867.681
11/06/2014  20:32:00       20.667        5.816       13.410       16.429       23.206       15.687      269.908      538.526      246.086        0.085        0.053       21.469       11.963        0.310      340.474       14.519      867.684
11/06/2014  20:33:00       62.148       33.948       -1.807       18.095       22.175       18.053      327.439      491.724      325.926        0.308        0.057       70.815       12.051        0.029      340.587       14.711      867.691
11/06/2014  20:34:00       80.802       38.362        9.781       28.235       16.716       25.582      797.217      279.411      654.428        0.491        0.087       89.446       19.781        0.049      340.783       15.041      867.672
11/06/2014  20:35:00       72.949       46.190       19.258       38.850       25.008       26.796     1509.359      625.395      718.033        0.534        0.143       86.343       17.478        0.041      340.813       15.091      867.659
11/06/2014  20:36:00       11.058       22.598       22.984       23.094       22.467       21.291      533.321      504.781      453.328        0.133        0.075       25.158       16.460        0.428      340.702       14.906      867.662
11/06/2014  20:37:00       21.365       19.099       23.119       28.580       25.844       26.756      816.806      667.933      715.905        0.178        0.110       28.657       23.226        0.657      340.605       14.742      867.660
11/06/2014  20:38:00        8.413      -29.301        7.244       19.497       48.884       21.540      380.142     2389.613      463.968        0.211        0.162       30.485       27.639        0.822      340.543       14.636      867.686
11/06/2014  20:39:00      -42.784      -78.141      -13.002       37.729       43.654       28.290     1423.496     1905.711      800.326        0.612        0.206       89.087        7.028        0.006      340.548       14.645      867.724
11/06/2014  20:40:00      -19.802      -50.029       -3.269       37.790       36.943       19.941     1428.072     1364.771      397.633        0.305        0.160       53.805       10.059        0.035      340.601       14.735      867.735
11/06/2014  20:41:00       23.843      -62.119        1.234       33.923       44.473       38.244     1150.778     1977.854     1462.580        0.451        0.230       66.538       10.502        0.025      340.594       14.724      867.744
11/06/2014  20:42:00       -3.959      -20.933        3.114       15.565       19.133       11.460      242.276      366.070      131.341        0.060        0.037       21.304        7.280        0.117      340.476       14.524      867.753
11/06/2014  20:43:00       -7.709        1.130       -2.811       12.077        8.058        7.003      145.858       64.937       49.043        0.016        0.013        7.791        5.697        0.535      340.511       14.584      867.747
11/06/2014  20:44:00      -41.271        4.246      -11.974       11.387        9.018        7.251      129.656       81.329       52.571        0.106        0.013       41.489        5.380        0.017      340.625       14.775      867.755
11/06/2014  20:45:00      -39.592      -10.879       -4.121       10.713       14.195        6.122      114.768      201.486       37.484        0.103        0.018       41.059        6.086        0.022      340.658       14.833      867.780
11/06/2014  20:46:00      -66.202      -21.498       -4.545       19.551       20.202       11.667      382.244      408.129      136.114        0.290        0.046       69.605       10.282        0.022      340.327       14.271      867.824
11/06/2014  20:47:00      -85.615      -57.995       -0.050       33.137       25.226       12.509     1098.058      636.342      156.483        0.629        0.095      103.409        9.703        0.009      340.263       14.163      867.860
11/06/2014  20:48:00      -87.151      -76.559        2.520       48.541       40.945       26.295     2356.194     1676.505      691.426        0.909        0.236      116.002       27.038        0.054      340.362       14.330      867.902
11/06/2014  20:49:00      -61.138      -39.634       -4.358       23.138       57.435       20.623      535.369     3298.760      425.318        0.479        0.213       72.861       20.507        0.079      340.710       14.919      867.913
11/06/2014  20:50:00      -12.651      -22.658       -6.492       31.058       19.070       19.258      964.612      363.678      370.874        0.121        0.085       25.951       18.245        0.494      340.481       14.531      867.909
11/06/2014  20:51:00       -4.011      -38.565       -1.931       11.715       16.144        8.328      137.231      260.618       69.360        0.099        0.023       38.773        6.479        0.028      340.621       14.767      867.886
11/06/2014  20:52:00       -1.544      -34.748       -4.664       17.663       13.380        9.055      311.982      179.025       82.002        0.090        0.029       34.783        5.926        0.029      340.497       14.558      867.864
11/06/2014  20:53:00      -33.029      -48.603       -3.412       23.518       15.191        8.080      553.100      230.769       65.293        0.216        0.042       58.764        6.277        0.011      340.525       14.606      867.862
11/06/2014  20:54:00      -60.306      -39.134       -6.351       16.611       15.739       13.171      275.940      247.710      173.466        0.295        0.035       71.890        8.385        0.014      340.562       14.670      867.866
11/06/2014  20:55:00      -27.803      -36.721       -3.713       12.895        9.966        5.849      166.294       99.315       34.206        0.122        0.015       46.059        5.332        0.013      340.677       14.861      867.860
11/06/2014  20:56:00      -51.213      -40.126       -1.938       13.560       13.779        9.924      183.885      189.870       98.477        0.235        0.024       65.060        6.611        0.010      340.411       14.412      867.872
11/06/2014  20:57:00      -14.844      -25.420        4.701       23.014       15.355       13.113      529.650      235.785      171.956        0.091        0.047       29.436        5.668        0.037      340.168       14.003      867.891
11/06/2014  20:58:00      -56.499      -67.545       -0.279       39.850       40.227       21.310     1588.050     1618.182      454.129        0.571        0.183       88.060       23.503        0.071      340.282       14.195      867.902
11/06/2014  20:59:00      -62.477      -61.359       -3.961       28.076       25.834       17.439      788.280      667.371      304.118        0.472        0.088       87.569       17.742        0.041      340.356       14.320      867.900
11/06/2014  21:00:00      -61.634      -48.034       -4.531       25.568       24.975       12.390      653.730      623.756      153.513        0.378        0.072       78.141       13.690        0.031      340.334       14.284      867.885
11/06/2014  21:01:00      -93.861      -29.900       -3.028       21.357       20.052       10.151      456.113      402.071      103.042        0.534        0.048       98.508       10.109        0.011      340.193       14.044      867.870
11/06/2014  21:02:00      -93.975      -10.884       -4.957       24.330       20.472       11.848      591.953      419.092      140.382        0.506        0.058       94.603       11.537        0.015      340.041       13.788      867.866
11/06/2014  21:03:00      -78.534      -32.024       -0.254       29.600       15.196       11.391      876.133      230.921      129.766        0.421        0.062       84.812       11.231        0.018      339.903       13.557      867.883
11/06/2014  21:04:00      -83.976      -13.080       -2.097       30.091       22.692       12.186      905.498      514.940      148.511        0.440        0.078       84.988       11.649        0.019      339.864       13.491      867.903
11/06/2014  21:05:00     -115.353       -6.653      -14.603       20.970       16.674       12.698      439.750      278.034      161.233        0.722        0.044      115.544        9.443        0.007      339.878       13.514      867.907
11/06/2014  21:06:00     -132.933       -6.456      -14.755       26.130       34.789       18.214      682.759     1210.247      331.742        1.008        0.111      133.089       11.143        0.007      339.789       13.363      867.907
11/06/2014  21:07:00     -104.681      -10.308       -2.912       36.660       26.027       18.688     1343.986      677.388      349.232        0.672        0.119      105.187       18.616        0.031      339.626       13.088      867.903
11/06/2014  21:08:00      -65.621      -23.039        7.010       50.433       21.941       19.585     2543.486      481.405      383.576        0.415        0.170       69.548       23.958        0.119      339.519       12.907      867.903
11/06/2014  21:09:00      -85.835      -14.666        0.524       35.408       27.391       17.320     1253.734      750.285      299.981        0.494        0.115       87.079       16.745        0.037      339.658       13.142      867.918
11/06/2014  21:10:00      -85.018      -30.964        4.357       28.452       23.759       13.506      809.500      564.488      182.409        0.488        0.078       90.481       15.513        0.029      339.773       13.337      867.937
11/06/2014  21:11:00      -96.555      -17.070       -3.294       31.530       20.890       17.945      994.113      436.376      322.016        0.569        0.088       98.053       18.119        0.034      339.960       13.652      867.950
11/06/2014  21:12:00      -12.143      -16.811        7.828       19.556       11.568       10.618      382.418      133.829      112.752        0.056        0.031       20.738       10.698        0.266      339.924       13.591      867.969
11/06/2014  21:13:00      -60.810      -58.623       -2.304       42.088       29.333       20.236     1771.421      860.410      409.509        0.509        0.152       84.466       23.883        0.080      340.203       14.061      867.993
11/06/2014  21:14:00      -79.250      -11.074        0.454       29.462       22.093       13.913      868.032      488.112      193.582        0.398        0.077       80.020       15.618        0.038      339.921       13.586      868.001
11/06/2014  21:15:00     -118.758       10.177       -4.538       27.142       29.670       10.395      736.688      880.322      108.066        0.798        0.086      119.194       10.769        0.008      339.839       13.448      868.013
11/06/2014  21:16:00      -69.118      -49.234        7.775       29.982       36.456       19.163      898.918     1329.060      367.234        0.493        0.130       84.860       18.236        0.046      339.928       13.597      868.022
11/06/2014  21:17:00      -76.597      -32.370        0.679       36.242       22.227       17.762     1313.487      494.057      315.492        0.452        0.106       83.156       17.043        0.042      340.032       13.773      868.017
11/06/2014  21:18:00      -43.954       -0.876       -0.692       12.293       13.005        8.934      151.115      169.124       79.808        0.117        0.020       43.963        6.278        0.020      339.930       13.601      868.011
11/06/2014  21:19:00      -19.340       14.431        3.550       11.612       13.741        7.875      134.834      188.815       62.008        0.049        0.019       24.131        6.503        0.073      339.993       13.705      868.021
11/06/2014  21:20:00       42.363       36.334       13.484       12.696       12.785       20.244      161.194      163.455      409.822        0.202        0.037       55.810       10.618        0.036      339.884       13.522      868.017
11/06/2014  21:21:00       60.609       39.020       -0.112       19.763       22.853       19.390      390.571      522.266      375.963        0.324        0.064       72.083       13.763        0.036      339.579       13.009      868.015
11/06/2014  21:22:00       86.073       73.686        5.643       21.564       18.674       19.984      465.016      348.709      399.342        0.704        0.061      113.306       12.313        0.012      339.507       12.887      868.027
11/06/2014  21:23:00       86.807       89.567       13.736       38.333       20.205       26.695     1469.456      408.232      712.637        0.917        0.130      124.731       10.142        0.007      339.579       13.010      868.042
11/06/2014  21:24:00      121.372       86.581       17.059       39.035       34.393       27.235     1523.755     1182.903      741.749        1.298        0.172      149.089       22.908        0.024      339.661       13.148      868.049
11/06/2014  21:25:00      117.711       96.837       15.931       39.009       24.102       26.785     1521.666      580.902      717.434        1.315        0.141      152.424       12.863        0.007      339.641       13.114      868.046
11/06/2014  21:26:00      131.454       94.624       24.594       43.875       35.853       33.178     1924.977     1285.468     1100.812        1.557        0.216      161.968       19.693        0.015      339.557       12.972      868.038
11/06/2014  21:27:00      102.505       64.852       26.394       38.138       27.505       23.539     1454.474      756.541      554.069        0.909        0.138      121.297       15.005        0.015      339.515       12.901      868.050
11/06/2014  21:28:00      110.571       66.201       16.155       35.327       26.207       21.102     1247.972      686.793      445.299        0.962        0.119      128.874        9.722        0.006      339.465       12.816      868.064
11/06/2014  21:29:00      113.524       59.784       43.636       27.028       21.256       24.542      730.540      451.809      602.294        1.007        0.089      128.304       15.622        0.015      339.430       12.758      868.060
11/06/2014  21:30:00      128.027       88.729       24.371       37.819       25.425       25.778     1430.239      646.435      664.519        1.380        0.137      155.768       21.675        0.019      339.392       12.694      868.037
11/06/2014  21:31:00      129.523       89.795       27.854       31.585       35.582       31.841      997.636     1266.077     1013.867        1.445        0.164      157.605       24.189        0.024      339.479       12.841      868.022
11/06/2014  21:32:00       96.411       74.010       16.717       28.817       27.685       27.000      830.416      766.468      729.021        0.869        0.116      121.542       16.309        0.018      339.501       12.878      868.041
11/06/2014  21:33:00       92.477       62.782       20.865       37.433       22.326       23.871     1401.215      498.472      569.805        0.770        0.123      111.774       14.937        0.018      339.500       12.876      868.067
11/06/2014  21:34:00       62.023       56.147       16.716       36.717       29.771       32.511     1348.167      886.307     1056.970        0.528        0.165       83.662       26.481        0.100      339.485       12.849      868.089
11/06/2014  21:35:00       60.928       58.824       12.942       39.796       26.119       25.795     1583.682      682.190      665.404        0.514        0.147       84.691       18.413        0.047      339.537       12.937      868.100
11/06/2014  21:36:00      101.264       60.823       33.848       34.659       21.898       19.677     1201.245      479.522      387.179        0.858        0.103      118.126       10.085        0.007      339.636       13.104      868.103
11/06/2014  21:37:00       73.860       40.165       22.235       22.935       29.883       25.268      525.995      893.000      638.478        0.481        0.103       84.074       17.948        0.046      339.532       12.930      868.096
11/06/2014  21:38:00       79.502       56.804       19.297       17.639       17.177       22.940      311.130      295.058      526.263        0.553        0.057       97.710        8.714        0.008      339.646       13.122      868.077
11/06/2014  21:39:00       41.291       42.056        3.154       22.737       19.280       13.317      516.964      371.736      177.336        0.227        0.053       58.938        7.673        0.017      339.679       13.176      868.075
11/06/2014  21:40:00       14.675        5.275       11.429       24.820       18.186       10.528      616.008      330.723      110.831        0.072        0.053       15.594        5.672        0.132      339.646       13.123      868.076
11/06/2014  21:41:00      -25.685      -29.656       -0.026       19.765       14.230        9.356      390.643      202.500       87.533        0.111        0.034       39.233        7.997        0.042      339.585       13.019      868.077
11/06/2014  21:42:00        2.767      -53.229        0.768       25.873       25.161       21.374      669.437      633.054      456.863        0.230        0.088       53.301       16.518        0.096      339.852       13.470      868.083
11/06/2014  21:43:00       27.958      -31.292       -0.465       20.876       13.931       15.898      435.827      194.071      252.741        0.132        0.044       41.963       10.479        0.062      339.781       13.350      868.082
11/06/2014  21:44:00       -1.004       -2.937        4.521        9.269        8.720       10.517       85.913       76.034      110.616        0.015        0.014        3.104        5.697        3.368      339.659       13.144      868.072
11/06/2014  21:45:00       31.066       35.225       15.709       22.701       27.648       21.543      515.350      764.404      464.113        0.210        0.087       46.966       16.221        0.119      339.771       13.334      868.063
11/06/2014  21:46:00       29.422        9.000       -0.163       17.805       20.100       12.693      317.029      403.992      161.108        0.091        0.044       30.767       13.738        0.199      339.742       13.286      868.057
11/06/2014  21:47:00      -20.214       -8.535       -2.493       15.237       12.484       10.434      232.162      155.843      108.858        0.049        0.025       21.942        7.539        0.118      339.723       13.251      868.073
11/06/2014  21:48:00      -46.039       -6.195       -5.648        4.243        9.163        5.200       17.999       83.955       27.043        0.116        0.006       46.454        4.115        0.008      339.735       13.271      868.067
11/06/2014  21:49:00      -39.059        2.588       -7.092        5.484        4.739        4.587       30.071       22.458       21.045        0.083        0.004       39.145        3.963        0.010      339.797       13.376      868.063
11/06/2014  21:50:00        9.503       14.218       -6.528       25.080       12.204       11.297      629.011      148.931      127.613        0.062        0.045       17.102       11.096        0.421      340.114       13.912      868.049
11/06/2014  21:51:00       31.858       11.913       -4.400       13.983       15.370       13.250      195.519      236.236      175.563        0.089        0.030       34.012        9.132        0.072      339.971       13.670      868.031
11/06/2014  21:52:00      -41.393        0.596       -3.014       27.771       13.358       13.056      771.247      178.446      170.464        0.142        0.056       41.397       18.034        0.190      339.955       13.642      868.024
11/06/2014  21:53:00      -67.174        1.774      -12.837       11.285        7.687       10.112      127.350       59.091      102.246        0.248        0.014       67.198        7.773        0.013      339.707       13.225      868.032
11/06/2014  21:54:00      -37.022       32.825       -2.546       38.319       13.581        9.082     1468.341      184.434       82.477        0.209        0.087       49.479       11.252        0.052      339.912       13.571      868.039
11/06/2014  21:55:00       56.787       37.439       10.849       19.362       13.295       11.671      374.878      176.746      136.219        0.272        0.034       68.018        5.761        0.007      340.126       13.932      868.043
11/06/2014  21:56:00       33.370        3.061        4.606       23.630       21.986       10.503      558.377      483.378      110.319        0.115        0.058       33.510       13.035        0.151      340.063       13.827      868.069
11/06/2014  21:57:00      -79.328      -26.559       -9.316       45.611       19.180       12.021     2080.380      367.868      144.494        0.484        0.130       83.655       16.807        0.040      339.627       13.090      868.111
11/06/2014  21:58:00      -94.660       -7.715      -15.237       23.030       16.751       12.368      530.362      280.591      152.964        0.511        0.048       94.974        7.828        0.007      339.723       13.251      868.134
11/06/2014  21:59:00       14.838       41.198       -2.831       35.705       22.265       13.178     1274.858      495.747      173.672        0.193        0.097       43.789       15.625        0.127      340.192       14.043      868.117
11/06/2014  22:00:00       40.488       67.428        3.923       15.356       20.031       23.937      235.800      401.234      573.003        0.371        0.061       78.650       15.264        0.038      340.249       14.138      868.091
11/06/2014  22:01:00       26.894       49.685       -0.031       22.845       24.858       20.856      521.909      617.901      434.980        0.238        0.079       56.496       14.484        0.066      340.235       14.117      868.069
11/06/2014  22:02:00        8.965       34.684       -4.002       24.602       19.355       11.975      605.280      374.601      143.389        0.121        0.056       35.824       12.204        0.116      340.500       14.563      868.084
11/06/2014  22:03:00     -106.904      -57.272      -12.165       42.432       37.842       19.006     1800.441     1432.038      361.213        0.922        0.180      121.279       16.940        0.020      339.580       13.011      868.126
11/06/2014  22:04:00     -121.104      -30.871       -4.495       44.692       27.129       16.768     1997.403      735.965      281.152        0.933        0.151      124.977       18.967        0.023      339.546       12.952      868.183
11/06/2014  22:05:00      -48.559        1.571       -0.568       23.013       14.317       10.531      529.584      204.965      110.893        0.160        0.042       48.585        8.202        0.028      339.946       13.630      868.218
11/06/2014  22:06:00       -3.739       -3.413        0.770        6.578        4.554        4.586       43.273       20.743       21.029        0.006        0.004        5.063        2.607        0.265      340.202       14.059      868.216
11/06/2014  22:07:00      -20.320      -19.873       -0.153       16.154       13.788        7.228      260.959      190.103       52.237        0.066        0.025       28.423        6.150        0.047      339.854       13.474      868.217
11/06/2014  22:08:00      -86.109      -46.916       -7.873       31.569       15.145       11.925      996.626      229.369      142.214        0.552        0.068       98.060        6.016        0.004      339.727       13.259      868.213
11/06/2014  22:09:00      -97.041      -20.834       -2.687       33.238       28.662       15.372     1104.769      821.513      236.309        0.601        0.108       99.253       15.762        0.025      339.581       13.014      868.197
11/06/2014  22:10:00     -107.830       25.457      -15.673       10.451        8.836        7.126      109.224       78.068       50.777        0.638        0.012      110.795        2.644        0.001      339.683       13.185      868.169
11/06/2014  22:11:00      -91.017        6.704      -14.860       17.269       15.385       12.347      298.217      236.711      152.445        0.462        0.034       91.264        6.444        0.005      339.781       13.348      868.157
11/06/2014  22:12:00      -83.627      -32.976      -17.073       19.981       17.297       10.521      399.255      299.192      110.683        0.459        0.040       89.894        4.719        0.003      339.568       12.991      868.160
11/06/2014  22:13:00      -83.774      -27.583      -10.651       24.788       22.301       15.809      614.459      497.344      249.939        0.463        0.068       88.199       13.359        0.023      339.464       12.814      868.158
11/06/2014  22:14:00      -59.584      -22.938       -2.867       34.220       22.295       17.224     1170.981      497.077      296.679        0.302        0.098       63.846       16.209        0.064      339.440       12.775      868.160
11/06/2014  22:15:00      -46.062      -11.819       -4.184       28.040       18.263       11.009      786.220      333.539      121.206        0.176        0.062       47.555       11.693        0.060      339.477       12.838      868.153
11/06/2014  22:16:00      -33.893        0.951       -6.684       23.597       16.126       13.665      556.826      260.039      186.724        0.110        0.050       33.906       13.032        0.148      339.405       12.716      868.144
11/06/2014  22:17:00      -51.981      -10.344        2.736       25.094       25.520       16.366      629.690      651.253      267.852        0.218        0.077       53.000       10.000        0.036      339.550       12.960      868.143
11/06/2014  22:18:00      -83.675      -16.480      -11.478       31.430       30.144       13.049      987.823      908.652      170.278        0.474        0.103       85.282        9.325        0.012      339.463       12.813      868.146
11/06/2014  22:19:00      -94.367      -14.157       -7.660       24.596       23.984       14.258      604.977      575.220      203.282        0.527        0.069       95.423        8.111        0.007      339.361       12.642      868.156
11/06/2014  22:20:00      -50.361       67.670      -15.597       30.418       33.263       10.678      925.244     1106.394      114.028        0.475        0.107       84.353        8.801        0.011      339.769       13.329      868.149
11/06/2014  22:21:00      -41.830       82.863      -15.754       22.634       22.684       14.308      512.291      514.568      204.730        0.505        0.062       92.822        9.922        0.011      340.130       13.938      868.141
11/06/2014  22:22:00      -74.712       30.483       -7.974       14.320       37.975       13.455      205.065     1442.114      181.040        0.420        0.091       80.691       17.268        0.046      339.817       13.411      868.152
11/06/2014  22:23:00      -56.355      -28.726      -12.194        9.407       10.017        5.472       88.487      100.332       29.945        0.218        0.011       63.254        1.579        0.001      339.434       12.766      868.151
11/06/2014  22:24:00      -57.181      -38.421      -15.246       15.354       12.947       10.248      235.731      167.620      105.027        0.274        0.025       68.890        7.092        0.011      339.483       12.846      868.152
11/06/2014  22:25:00      -83.888      -46.058      -16.858       23.728       12.231       13.075      563.019      149.609      170.964        0.516        0.044       95.700       10.044        0.011      339.268       12.485      868.154
11/06/2014  22:26:00     -105.409      -47.873       -9.791       21.986       18.381       13.529      483.400      337.857      183.030        0.725        0.050      115.770        6.750        0.003      339.166       12.312      868.156
11/06/2014  22:27:00      -54.886        8.245        2.340       40.452       31.130       24.416     1636.392      969.096      596.159        0.314        0.160       55.502       20.454        0.136      339.256       12.464      868.146
11/06/2014  22:28:00      -18.837       10.907        2.440       39.339       37.786       23.096     1547.573     1427.751      533.424        0.199        0.175       21.767       18.312        0.708      339.493       12.865      868.120
11/06/2014  22:29:00      -32.105       10.870       -7.147       20.431       23.298       15.177      417.426      542.793      230.343        0.120        0.060       33.895       12.600        0.138      339.600       13.046      868.099
11/06/2014  22:30:00      -54.725      -33.705      -11.953       24.108       17.794       14.843      581.219      316.643      220.314        0.270        0.056       64.272       10.537        0.027      339.496       12.870      868.095
11/06/2014  22:31:00      -88.863      -35.376      -17.846       16.991       23.100       12.248      288.691      533.603      150.001        0.522        0.049       95.646        9.575        0.010      339.273       12.492      868.094
11/06/2014  22:32:00      -29.831        9.385       -9.902       20.032       21.442       13.714      401.265      459.765      188.087        0.106        0.052       31.273       13.069        0.175      339.260       12.471      868.084
11/06/2014  22:33:00      -51.189       51.279      -12.417       19.514       13.306        8.348      380.792      177.062       69.691        0.302        0.031       72.456        6.926        0.009      339.929       13.601      868.073
11/06/2014  22:34:00      -86.061      -12.438      -15.465       14.839       28.783       11.317      220.205      828.439      128.079        0.449        0.059       86.955       10.200        0.014      339.459       12.808      868.069
11/06/2014  22:35:00     -113.432       -0.298      -12.715       49.913       46.986       33.466     2491.344     2207.727     1119.987        0.942        0.291      113.432       26.534        0.055      339.192       12.357      868.083
11/06/2014  22:36:00      -79.462        4.476      -16.769       36.557       40.278       18.921     1336.382     1622.316      358.000        0.497        0.166       79.588       13.545        0.029      339.400       12.708      868.098
11/06/2014  22:37:00      -70.506        1.119      -11.261       14.798       14.311        9.811      218.969      204.816       96.263        0.281        0.026       70.515        3.296        0.002      339.748       13.294      868.121
11/06/2014  22:38:00      -41.326      -18.368       -7.084       13.234       19.583        6.953      175.150      383.500       48.342        0.135        0.030       45.225        4.030        0.008      339.916       13.578      868.145
11/06/2014  22:39:00      -53.878      -32.938      -10.037       27.515       13.710        9.703      757.052      187.971       94.148        0.256        0.052       63.149        6.512        0.011      339.428       12.754      868.164
11/06/2014  22:40:00      -61.231      -37.117      -15.663       22.091       20.110       12.961      488.014      404.400      167.990        0.322        0.053       71.602        9.825        0.019      339.142       12.271      868.158
11/06/2014  22:41:00      -70.487      -17.137      -10.466       20.900       21.083       14.407      436.804      444.495      207.555        0.323        0.054       72.540       12.652        0.030      339.169       12.318      868.149
11/06/2014  22:42:00      -69.279      -27.434      -21.024       17.253       21.724       15.348      297.674      471.940      235.564        0.350        0.050       74.513       10.218        0.019      339.386       12.683      868.146
11/06/2014  22:43:00      -67.366      -27.647      -14.133       30.060       22.883       18.758      903.613      523.645      351.845        0.364        0.089       72.818        7.950        0.012      339.280       12.504      868.163
11/06/2014  22:44:00      -71.891      -37.792       -5.387       31.639       31.731       18.136     1001.003     1006.826      328.916        0.448        0.117       81.220       15.420        0.036      339.177       12.333      868.174
11/06/2014  22:45:00      -61.115        3.203       -8.113       35.161       25.565       16.222     1236.318      653.562      263.169        0.298        0.108       61.199        8.935        0.021      339.291       12.525      868.183
11/06/2014  22:46:00      -39.815        5.493       -1.241       36.870       15.837       14.452     1359.390      250.799      208.871        0.172        0.091       40.192       17.014        0.179      339.230       12.421      868.201
11/06/2014  22:47:00       31.162       14.553        6.084       27.442       12.597       16.516      753.065      158.674      272.784        0.120        0.059       34.393       13.042        0.144      339.389       12.688      868.224
11/06/2014  22:48:00       43.076       19.996       -5.142       15.100       18.678       15.293      227.997      348.885      233.879        0.155        0.041       47.491       10.169        0.046      339.891       13.535      868.220
11/06/2014  22:49:00       33.843        6.539       -5.159       14.627       23.683       17.459      213.953      560.872      304.820        0.115        0.054       34.469       10.085        0.086      339.683       13.185      868.224
11/06/2014  22:50:00       48.990       40.562        4.095       23.582       29.369       29.330      556.096      862.550      860.264        0.317        0.114       63.602       21.391        0.113      339.483       12.849      868.229
11/06/2014  22:51:00       93.265       27.378       15.685       34.164       22.563       25.568     1167.160      509.104      653.706        0.601        0.116       97.200       12.755        0.017      339.264       12.479      868.227
11/06/2014  22:52:00       41.704       22.160        3.778       16.983       13.696        8.362      288.420      187.591       69.928        0.140        0.027       47.226        4.545        0.009      339.476       12.835      868.216
11/06/2014  22:53:00       20.804       49.750       -5.160        8.886       10.274        8.277       78.965      105.558       68.508        0.159        0.013       53.924        6.610        0.015      339.887       13.528      868.214
11/06/2014  22:54:00       24.485       12.592       -0.337       18.036       25.949       13.694      325.284      673.363      187.536        0.097        0.059       27.533        8.978        0.106      339.699       13.212      868.221
11/06/2014  22:55:00       21.087      -36.676       -4.919       11.135       13.686       14.852      123.995      187.304      220.584        0.117        0.027       42.306        8.580        0.041      339.511       12.895      868.230
11/06/2014  22:56:00       21.680      -10.850        0.407       15.531       23.776       15.212      241.212      565.286      231.406        0.081        0.052       24.244       10.715        0.195      339.378       12.671      868.213
11/06/2014  22:57:00        7.151      -20.816        2.213       16.208       24.547       16.970      262.692      602.577      287.996        0.082        0.058       22.011       16.143        0.538      339.207       12.382      868.201
11/06/2014  22:58:00       -2.290      -33.358        9.255       21.437       24.957       21.684      459.533      622.858      470.188        0.138        0.078       33.437       14.114        0.178      339.120       12.236      868.205
11/06/2014  22:59:00      -92.050      -12.995       -9.023       36.031       22.488       15.942     1298.254      505.701      254.151        0.539        0.103       92.962       17.370        0.035      338.838       11.761      868.226
11/06/2014  23:00:00      -98.211      -20.544       -0.894       23.997       15.910       15.950      575.851      253.113      254.388        0.558        0.054      100.337       13.919        0.019      338.929       11.914      868.251
11/06/2014  23:01:00      -73.100      -31.226        0.604       23.927       17.269        8.397      572.482      298.212       70.517        0.363        0.047       79.490        8.013        0.010      339.057       12.129      868.270
11/06/2014  23:02:00      -35.497      -13.964       -3.497       15.325       19.026       11.746      234.846      362.003      137.975        0.110        0.037       38.144        8.617        0.051      338.956       11.959      868.282
11/06/2014  23:03:00       -0.734      -12.041       -7.754        5.253       12.030        6.089       27.598      144.721       37.080        0.021        0.010       12.063        2.267        0.035      339.292       12.525      868.284
11/06/2014  23:04:00       34.522        2.028       -2.290       26.488       30.588       13.279      701.594      935.647      176.329        0.151        0.091       34.582       11.370        0.108      339.523       12.916      868.279
11/06/2014  23:05:00       39.543       20.504       -0.436       19.809       25.352       18.113      392.380      642.712      328.093        0.167        0.068       44.543       14.672        0.108      339.347       12.618      868.275
11/06/2014  23:06:00       35.786       11.223       -3.895       11.764        9.388       11.982      138.403       88.136      143.560        0.090        0.019       37.504        6.842        0.033      339.121       12.237      868.269
11/06/2014  23:07:00       35.620       21.351        1.806       17.954       15.282       11.467      322.353      233.549      131.500        0.121        0.034       41.529        5.539        0.018      339.085       12.174      868.269
11/06/2014  23:08:00       33.358       12.890        1.890       11.638       17.713       10.681      135.442      313.755      114.085        0.092        0.028       35.762        7.956        0.049      339.032       12.088      868.270
11/06/2014  23:09:00       21.722      -12.372      -10.128       12.132       15.225       11.522      147.177      231.794      132.764        0.062        0.026       24.998       10.254        0.168      339.286       12.515      868.269
11/06/2014  23:10:00        1.052      -14.515       -6.703       15.058       11.570       11.403      226.731      133.868      130.018        0.037        0.025       14.553        9.344        0.412      339.132       12.256      868.262
11/06/2014  23:11:00      -29.650      -17.425       -6.796       14.798        7.146        7.794      218.976       51.071       60.753        0.078        0.017       34.391        3.905        0.013      338.868       11.813      868.249
11/06/2014  23:12:00      -91.491      -24.789      -10.422       12.261       11.716        7.224      150.323      137.273       52.192        0.472        0.017       94.790        3.382        0.001      338.862       11.800      868.222
11/06/2014  23:13:00      -87.726      -35.644       -8.940       10.198       14.987        8.761      103.992      224.616       76.755        0.473        0.020       94.691        4.551        0.002      339.135       12.260      868.204
11/06/2014  23:14:00      -43.300      -13.156       -3.100       18.097       13.085        4.656      327.497      171.224       21.682        0.129        0.026       45.254        2.941        0.004      339.145       12.278      868.193
11/06/2014  23:15:00      -10.258       -1.744       -3.681        9.180        2.889        3.783       84.279        8.346       14.309        0.011        0.005       10.406        4.853        0.217      339.291       12.524      868.195
11/06/2014  23:16:00       19.269       -9.614       -3.263       24.752       13.057       15.775      612.655      170.498      248.838        0.075        0.052       21.535       12.056        0.313      339.307       12.551      868.216
11/06/2014  23:17:00       -9.782       -9.921       -6.823       21.457       18.446       11.598      460.412      340.250      134.506        0.059        0.047       13.933        9.698        0.484      339.251       12.456      868.217
11/06/2014  23:18:00       -2.214       -1.695       -1.297       15.675       21.268       18.927      245.694      452.333      358.231        0.053        0.053        2.788       15.955       32.756      339.296       12.532      868.218
11/06/2014  23:19:00      -14.507      -13.189       -3.803       18.853       21.571       13.894      355.422      465.301      193.031        0.071        0.051       19.606        8.043        0.168      339.422       12.745      868.224
11/06/2014  23:20:00      -32.012      -16.642       -7.650       35.273       11.684       14.054     1244.205      136.506      197.527        0.147        0.079       36.079       10.738        0.089      339.080       12.168      868.241
11/06/2014  23:21:00      -83.719      -12.455      -13.634       11.601       11.283        9.189      134.575      127.300       84.443        0.385        0.017       84.640        5.542        0.004      338.929       11.915      868.260
11/06/2014  23:22:00     -122.795        4.063      -19.119       16.865       10.118        7.878      284.442      102.367       62.058        0.795        0.022      122.862        5.763        0.002      338.805       11.706      868.285
11/06/2014  23:23:00     -108.091        4.892       -9.152       41.501       29.228       24.005     1722.294      854.268      576.228        0.747        0.158      108.202       24.061        0.049      338.611       11.380      868.304
11/06/2014  23:24:00      -28.054       15.796        3.793       37.231       30.059       19.466     1386.135      903.551      378.915        0.186        0.133       32.195       16.573        0.265      338.699       11.528      868.303
11/06/2014  23:25:00      -29.271       11.144       -5.167       21.881       23.427       11.665      478.788      548.819      136.065        0.109        0.058       31.321        7.790        0.062      338.805       11.707      868.296
11/06/2014  23:26:00      -55.558      -13.868      -11.277       23.892       33.417       15.221      570.834     1116.724      231.669        0.266        0.096       57.262       12.101        0.045      338.843       11.769      868.294
11/06/2014  23:27:00     -106.616      -59.666       -5.934       36.860       39.121       18.311     1358.625     1530.466      335.308        0.909        0.161      122.176       10.819        0.008      338.753       11.619      868.293
11/06/2014  23:28:00      -94.482      -31.699       -1.555       36.738       43.511       21.451     1349.674     1893.216      460.127        0.682        0.185       99.658       19.562        0.039      338.603       11.366      868.313
11/06/2014  23:29:00      -63.675       11.146       -0.705       26.837       19.894       17.083      720.223      395.791      291.818        0.279        0.070       64.643       15.656        0.059      338.496       11.186      868.308
11/06/2014  23:30:00      -15.937        7.294       10.820       34.782       21.620       18.188     1209.799      467.403      330.791        0.122        0.100       17.527       11.781        0.452      338.544       11.269      868.269
11/06/2014  23:31:00      -65.468       92.974       -8.540       17.958       22.869       13.462      322.476      523.000      181.215        0.701        0.051      113.711        9.752        0.007      339.379       12.673      868.226
11/06/2014  23:32:00      -47.258       43.104       -1.637       19.545       32.007        9.441      382.006     1024.425       89.139        0.279        0.075       63.963       10.464        0.027      339.250       12.455      868.205
11/06/2014  23:33:00     -114.761      -60.617      -16.012       34.655       28.937       14.464     1200.965      837.336      209.210        0.967        0.112      129.786        5.976        0.002      338.650       11.447      868.224
11/06/2014  23:34:00     -127.845      -47.790       -4.120       42.165       40.733       21.657     1777.902     1659.203      469.005        1.127        0.195      136.485       19.733        0.021      338.486       11.171      868.258
11/06/2014  23:35:00     -148.147        8.783      -12.587       51.631       27.350       18.490     2665.770      748.036      341.883        1.297        0.188      148.407       22.250        0.022      338.563       11.301      868.286
11/06/2014  23:36:00     -111.576      -21.219       -5.331       48.242       21.664       15.849     2327.301      469.332      251.200        0.799        0.152      113.576       21.435        0.036      338.612       11.382      868.298
11/06/2014  23:37:00      -62.352      -22.896       -1.307       25.322       16.724       12.852      641.204      279.696      165.165        0.275        0.054       66.422       12.989        0.038      338.623       11.400      868.303
11/06/2014  23:38:00      -89.312      -12.934       -1.739       38.049       18.917       14.965     1447.694      357.854      223.938        0.509        0.101       90.243       21.241        0.055      338.624       11.400      868.317
11/06/2014  23:39:00     -122.633      -13.071      -13.906       21.033       12.584       12.680      442.391      158.357      160.788        0.808        0.038      123.327       10.711        0.008      338.627       11.406      868.318
11/06/2014  23:40:00      -90.932      -21.866       -6.302       28.252       14.216       12.134      798.171      202.085      147.244        0.497        0.057       93.524       13.123        0.020      338.507       11.205      868.308
11/06/2014  23:41:00      -94.807       -1.033       -6.437       21.795       15.105       12.053      475.021      228.174      145.266        0.494        0.042       94.812       11.063        0.014      338.663       11.467      868.294
11/06/2014  23:42:00      -56.041       16.666       -7.371       24.142       17.022       13.667      582.834      289.760      186.781        0.227        0.053       58.467       11.574        0.039      338.968       11.978      868.269
11/06/2014  23:43:00      -33.994       15.058       -2.929       19.705       20.196       12.427      388.292      407.868      154.433        0.117        0.048       37.179        8.688        0.055      339.742       13.284      868.252
11/06/2014  23:44:00      -14.419      -32.370       -2.929       18.729       26.183       15.184      350.764      685.534      230.539        0.127        0.063       35.436       17.096        0.233      339.357       12.635      868.253
11/06/2014  23:45:00      -82.834      -66.597       -5.045       56.876       44.512       27.473     3234.828     1981.297      754.762        0.865        0.299      106.285       34.195        0.104      338.667       11.474      868.273
11/06/2014  23:46:00      -83.284      -43.806       -3.759       26.823       29.335       21.157      719.471      860.538      447.631        0.545        0.101       94.102       16.618        0.031      338.414       11.050      868.301
11/06/2014  23:47:00      -72.871       -0.842       -5.333       20.092       12.028       11.650      403.680      144.662      135.716        0.301        0.034       72.875        7.954        0.012      338.803       11.703      868.307
11/06/2014  23:48:00      -52.647       -3.331       -7.733        8.671       10.631        5.692       75.194      113.023       32.396        0.153        0.011       52.752        4.901        0.009      339.136       12.263      868.290
11/06/2014  23:49:00      -43.552       -5.691       -5.159        9.447        9.971        6.337       89.251       99.423       40.154        0.109        0.011       43.922        3.456        0.006      339.090       12.185      868.258
11/06/2014  23:50:00      -36.884       -1.666       -4.388        5.508        6.511        6.287       30.335       42.398       39.525        0.075        0.006       36.922        3.807        0.011      339.063       12.140      868.230
11/06/2014  23:51:00      -62.361      -10.981       -8.404       19.898       14.496        8.364      395.919      210.124       69.954        0.238        0.034       63.320        7.411        0.014      338.790       11.681      868.223
11/06/2014  23:52:00      -83.452      -37.993      -13.689       25.443       13.697       10.434      647.323      187.610      108.862        0.477        0.047       91.693       10.850        0.014      338.775       11.655      868.256
11/06/2014  23:53:00     -139.771      -24.303      -20.652       22.054       16.479       15.300      486.378      271.556      234.088        1.077        0.050      141.868       11.514        0.007      338.599       11.362      868.302
11/06/2014  23:54:00     -146.287      -42.301      -12.941       48.242       63.136       27.978     2327.284     3986.127      782.788        1.522        0.355      152.280       23.331        0.023      338.236       10.749      868.332
11/06/2014  23:55:00     -154.706       -2.867      -18.202       48.061       45.003       26.987     2309.816     2025.283      728.304        1.467        0.253      154.732       23.258        0.023      338.343       10.931      868.332
11/06/2014  23:56:00     -115.694        1.450       -5.965       45.278       36.062       23.689     2050.130     1300.442      561.188        0.867        0.196      115.703       24.501        0.045      338.378       10.989      868.313
11/06/2014  23:57:00      -43.872       -1.162        0.703       23.615       17.381       15.859      557.687      302.116      251.520        0.152        0.056       43.887       13.623        0.096      338.470       11.143      868.284
11/06/2014  23:58:00      -52.315      -12.247       -6.337        7.480        7.331        4.647       55.956       53.749       21.599        0.153        0.007       53.730        2.352        0.002      338.722       11.565      868.256
11/06/2014  23:59:00      -60.180      -11.508       -7.147        6.987        9.145        4.149       48.818       83.639       17.218        0.198        0.007       61.270        2.256        0.001      339.407       12.719      868.234
